[[{"header":{"parameterUnit":"m.s-1","parameterCategory":1,"la1":31.0,"la2":29.5877,"lo1":-88.7671,"lo2":-86.6584,"dy":0.0162,"dx":0.0185,"nx":115,"ny":88,"refTime":"2024-05-22T00:00:00:Z","depth":0,"parameterNumber":2,"parameterNumberName":"U-component_of_WINDS"},"data":[0.0,0.0,0.0,0.0,0.0,0.0,0.0,0.0,0.0,0.0,0.0,0.0,0.0,0.0,0.0,0.0,0.0,0.0,0.0,0.0,0.0,0.0,0.0,0.0,0.0,0.0,0.0,0.0,0.0,0.0,0.0,0.0,0.0,0.0,0.0,0.0,0.0,0.0,0.0,0.0,0.0,0.0,0.0,0.0,0.0,0.0,0.0,0.0,0.0,0.0,0.0,0.0,0.0,0.0,0.0,0.0,0.0,0.0,0.0,0.0,0.0,0.0,0.0,0.0,0.0,0.0,0.0,0.0,0.0,0.0,0.0,0.0,0.0,0.0,0.0,0.0,0.0,0.0,0.0,0.0,0.0,0.0,0.0,0.0,0.0,0.0,0.0,0.0,0.0,0.0,0.0,0.0,0.0,0.0,0.0,0.0,0.0,0.0,0.0,0.0,0.0,0.0,0.0,0.0,0.0,0.0,0.0,0.0,0.0,0.0,0.0,0.0,0.0,0.0,0.0,0.0,0.0,0.0,0.0,0.0,0.0,0.0,0.0,0.0,0.0,0.0,0.0,0.0,0.0,0.0,0.0,0.0,0.0,0.0,0.0,0.0,0.0,0.0,0.0,0.0,0.0,0.0,0.0,0.0,0.0,0.0,0.0,0.0,0.0,0.0,0.0,0.0,0.0,0.0,0.0,0.0,0.0,0.0,0.0,0.0,0.0,0.0,0.0,0.0,0.0,0.0,0.0,0.0,0.0,0.0,0.0,0.0,0.0,0.0,0.0,0.0,0.0,0.0,0.0,0.0,0.0,0.0,0.0,0.0,0.0,0.0,0.0,0.0,0.0,0.0,0.0,0.0,0.0,0.0,0.0,0.0,0.0,0.0,0.0,0.0,0.0,0.0,0.0,0.0,0.0,0.0,0.0,0.0,0.0,0.0,0.0,0.0,0.0,0.0,0.0,0.0,0.0,0.0,0.0,0.0,0.0,0.0,0.0,0.0,0.0,0.0,0.0,0.0,0.0,0.0,0.0,0.0,0.0,0.0,0.0,0.0,0.0,0.0,0.0,0.0,0.0,0.0,0.0,0.0,0.0,0.0,0.0,0.0,0.0,0.0,0.0,0.0,0.0,0.0,0.0,0.0,0.0,0.0,0.0,0.0,0.0,0.0,0.0,0.0,0.0,0.0,0.0,0.0,0.0,0.0,0.0,0.0,0.0,0.0,0.0,0.0,0.0,0.0,0.0,0.0,0.0,0.0,0.0,0.0,0.0,0.0,0.0,0.0,0.0,0.0,0.0,0.0,0.0,0.0,0.0,0.0,0.0,0.0,0.0,0.0,0.0,0.0,0.0,0.0,0.0,0.0,0.0,0.0,0.0,0.0,0.0,0.0,0.0,0.0,0.0,0.0,0.0,0.0,0.0,0.0,0.0,0.0,0.0,0.0,0.0,0.0,0.0,0.0,0.0,0.0,0.0,0.0,0.0,0.0,0.0,0.0,0.0,0.0,0.0,0.0,0.0,0.0,0.0,0.0,0.0,0.0,0.0,0.0,0.0,0.0,0.0,0.0,0.0,0.0,0.0,0.0,0.0,0.0,0.0,0.0,0.0,0.0,0.0,0.0,0.0,0.0,0.0,0.0,0.0,0.0,0.0,0.0,0.0,0.0,0.0,0.0,0.0,0.0,0.0,0.0,0.0,0.0,0.0,0.0,0.0,0.0,0.0,0.0,0.0,0.0,0.0,0.0,0.0,0.0,0.0,0.0,0.0,0.0,0.0,0.0,0.0,0.0,0.0,0.0,0.0,0.0,0.0,0.0,0.0,0.0,0.0,0.0,0.0,0.0,0.0,0.0,0.0,0.0,0.0,0.0,0.0,0.0,0.0,0.0,0.0,0.0,0.0,0.0,0.0,0.0,0.0,0.0,0.0,0.0,0.0,0.0,0.0,0.0,0.0,0.0,0.0,0.0,0.0,0.0,0.0,0.0,0.0,0.0,0.0,0.0,0.0,0.0,0.0,0.0,0.0,0.0,0.0,0.0,0.0,0.0,0.0,0.0,0.0,0.0,0.0,0.0,0.0,0.0,0.0,0.0,0.0,0.0,0.0,0.0,0.0,0.0,0.0,0.0,0.0,0.0,0.0,0.0,0.0,0.0,0.0,0.0,0.0,0.0,0.0,0.0,0.0,0.0,0.0,0.0,0.0,0.0,0.0,0.0,0.0,0.0,0.0,0.0,0.0,0.0,0.0,0.0,0.0,0.0,0.0,0.0,0.0,0.0,0.0,0.0,0.0,0.0,0.0,0.0,0.0,0.0,0.0,0.0,0.0,0.0,0.0,0.0,0.0,0.0,0.0,0.0,0.0,0.0,0.0,0.0,0.0,0.0,0.0,0.0,0.0,0.0,0.0,0.0,0.0,0.0,0.0,0.0,0.0,0.0,0.0,0.0,0.0,0.0,0.0,0.0,0.0,0.0,0.0,0.0,0.0,0.0,0.0,0.0,0.0,0.0,0.0,0.0,0.0,0.0,0.0,0.0,0.0,0.0,0.0,0.0,0.0,0.0,0.0,0.0,0.0,0.0,0.0,0.0,0.0,0.0,0.0,0.0,0.0,0.0,0.0,0.0,0.0,0.0,0.0,0.0,0.0,0.0,0.0,0.0,0.0,0.0,0.0,0.0,0.0,0.0,0.0,0.0,0.0,0.0,0.0,0.0,0.0,0.0,0.0,0.0,0.0,0.0,0.0,0.0,0.0,0.0,0.0,0.0,0.0,0.0,0.0,0.0,0.0,0.0,0.0,0.0,0.0,0.0,0.0,0.0,0.0,0.0,0.0,0.0,0.0,0.0,0.0,0.0,0.0,0.0,0.0,0.0,0.0,0.0,0.0,0.0,0.0,0.0,0.0,0.0,0.0,0.0,0.0,0.0,0.0,0.0,0.0,0.0,0.0,0.0,0.0,0.0,0.0,0.0,0.0,0.0,0.0,0.0,0.0,0.0,0.0,0.0,0.0,0.0,0.0,0.0,0.0,0.0,0.0,0.0,0.0,0.0,0.0,0.0,0.0,0.0,0.0,0.0,0.0,0.0,0.0,0.0,0.0,0.0,0.0,0.0,0.0,0.0,0.0,0.0,0.0,0.0,0.0,0.0,0.0,0.0,0.0,0.0,0.0,0.0,0.0,0.0,0.0,0.0,0.0,0.0,0.0,0.0,0.0,0.0,0.0,0.0,0.0,0.0,0.0,0.0,0.0,0.0,0.0,0.0,0.0,0.0,0.0,0.0,0.0,0.0,0.0,0.0,0.0,0.0,0.0,0.0,0.0,0.0,0.0,0.0,0.0,0.0,0.0,0.0,0.0,0.0,0.0,0.0,0.0,0.0,0.0,0.0,0.0,0.0,0.0,0.0,0.0,0.0,0.0,0.0,0.0,0.0,0.0,0.0,0.0,0.0,0.0,0.0,0.0,0.0,0.0,0.0,0.0,0.0,0.0,0.0,0.0,0.0,0.0,0.0,0.0,0.0,0.0,0.0,0.0,0.0,0.0,0.0,0.0,0.0,0.0,0.0,0.0,0.0,0.0,0.0,0.0,0.0,0.0,0.0,0.0,0.0,0.0,0.0,0.0,0.0,0.0,0.0,0.0,0.0,0.0,0.0,0.0,0.0,0.0,0.0,0.0,0.0,0.0,0.0,0.0,0.0,0.0,0.0,0.0,0.0,0.0,0.0,0.0,0.0,0.0,0.0,0.0,0.0,0.0,0.0,0.0,0.0,0.0,0.0,0.0,0.0,0.0,0.0,0.0,0.0,0.0,0.0,0.0,0.0,0.0,0.0,0.0,0.0,0.0,0.0,0.0,0.0,0.0,0.0,0.0,0.0,0.0,0.0,0.0,0.0,0.0,0.0,0.0,0.0,0.0,0.0,0.0,0.0,0.0,0.0,0.0,0.0,0.0,0.0,0.0,0.0,0.0,0.0,0.0,0.0,0.0,0.0,0.0,0.0,0.0,0.0,0.0,0.0,0.0,0.0,0.0,0.0,0.0,0.0,0.0,0.0,0.0,0.0,0.0,0.0,0.0,0.0,0.0,0.0,0.0,0.0,0.0,0.0,0.0,0.0,0.0,0.0,0.0,0.0,0.0,0.0,0.0,0.0,0.0,0.0,0.0,0.0,0.0,0.0,0.0,0.0,0.0,0.0,0.0,0.0,0.0,0.0,0.0,0.0,0.0,0.0,0.0,0.0,0.0,0.0,0.0,0.0,0.0,0.0,0.0,0.0,-5.4431,0.0,0.0,0.0,-5.3145,0.0,0.0,0.0,0.0,0.0,0.0,0.0,0.0,0.0,0.0,0.0,0.0,0.0,0.0,0.0,0.0,0.0,0.0,0.0,0.0,0.0,0.0,0.0,0.0,0.0,0.0,0.0,0.0,0.0,0.0,0.0,0.0,0.0,0.0,0.0,0.0,0.0,0.0,0.0,0.0,0.0,0.0,0.0,0.0,0.0,0.0,0.0,0.0,0.0,0.0,0.0,0.0,0.0,0.0,0.0,0.0,0.0,0.0,0.0,0.0,0.0,0.0,0.0,0.0,0.0,0.0,0.0,0.0,0.0,0.0,0.0,0.0,0.0,0.0,0.0,0.0,0.0,0.0,0.0,0.0,0.0,0.0,0.0,0.0,0.0,0.0,0.0,0.0,0.0,0.0,0.0,0.0,0.0,0.0,0.0,0.0,0.0,0.0,0.0,0.0,0.0,0.0,0.0,0.0,0.0,0.0,0.0,0.0,0.0,0.0,-5.4938,-5.5683,-5.5074,-5.4499,-5.4059,0.0,0.0,0.0,0.0,0.0,0.0,0.0,0.0,0.0,0.0,0.0,0.0,0.0,0.0,0.0,0.0,0.0,0.0,0.0,0.0,0.0,0.0,0.0,0.0,0.0,0.0,0.0,0.0,0.0,0.0,0.0,0.0,0.0,0.0,0.0,0.0,0.0,0.0,0.0,0.0,0.0,0.0,0.0,0.0,0.0,0.0,0.0,0.0,0.0,0.0,0.0,0.0,0.0,0.0,0.0,0.0,0.0,0.0,0.0,0.0,0.0,0.0,0.0,0.0,0.0,0.0,0.0,0.0,0.0,0.0,0.0,0.0,0.0,0.0,0.0,0.0,0.0,0.0,0.0,0.0,0.0,0.0,0.0,0.0,0.0,0.0,0.0,0.0,0.0,0.0,0.0,0.0,0.0,0.0,0.0,0.0,0.0,0.0,0.0,0.0,0.0,0.0,0.0,0.0,0.0,0.0,0.0,0.0,0.0,0.0,0.0,0.0,-5.6055,-5.5446,-5.4329,0.0,0.0,0.0,0.0,0.0,0.0,0.0,0.0,0.0,0.0,0.0,0.0,0.0,0.0,0.0,0.0,0.0,0.0,0.0,0.0,0.0,0.0,0.0,0.0,0.0,0.0,0.0,0.0,0.0,0.0,0.0,0.0,0.0,0.0,0.0,0.0,0.0,0.0,0.0,0.0,0.0,0.0,0.0,0.0,0.0,0.0,0.0,0.0,0.0,0.0,0.0,0.0,0.0,0.0,0.0,0.0,0.0,0.0,0.0,0.0,0.0,0.0,0.0,0.0,0.0,0.0,0.0,0.0,0.0,0.0,0.0,0.0,0.0,0.0,0.0,0.0,0.0,0.0,0.0,0.0,0.0,0.0,0.0,0.0,0.0,0.0,0.0,0.0,0.0,0.0,0.0,0.0,0.0,0.0,0.0,0.0,0.0,0.0,0.0,0.0,0.0,0.0,0.0,0.0,0.0,0.0,0.0,0.0,0.0,0.0,-5.6934,-5.7645,-5.7036,0.0,-5.3687,0.0,0.0,0.0,0.0,0.0,0.0,0.0,0.0,0.0,0.0,0.0,0.0,0.0,0.0,0.0,0.0,0.0,0.0,0.0,0.0,0.0,0.0,0.0,0.0,0.0,0.0,0.0,0.0,0.0,0.0,0.0,0.0,0.0,0.0,0.0,0.0,0.0,0.0,0.0,0.0,0.0,0.0,0.0,0.0,0.0,0.0,0.0,0.0,0.0,0.0,0.0,0.0,0.0,0.0,0.0,0.0,0.0,0.0,0.0,0.0,0.0,0.0,0.0,0.0,0.0,0.0,0.0,0.0,0.0,0.0,0.0,0.0,0.0,0.0,0.0,0.0,0.0,0.0,0.0,0.0,0.0,0.0,0.0,0.0,0.0,0.0,0.0,0.0,0.0,0.0,0.0,0.0,0.0,0.0,0.0,0.0,0.0,0.0,0.0,0.0,0.0,0.0,0.0,0.0,0.0,0.0,0.0,0.0,0.0,0.0,-5.7137,-5.7881,-5.6765,-5.5715,0.0,0.0,0.0,0.0,0.0,0.0,0.0,0.0,0.0,0.0,0.0,0.0,0.0,0.0,0.0,0.0,0.0,0.0,0.0,0.0,0.0,0.0,0.0,0.0,0.0,0.0,0.0,0.0,0.0,0.0,0.0,0.0,0.0,0.0,0.0,0.0,0.0,0.0,0.0,0.0,0.0,0.0,0.0,0.0,0.0,0.0,0.0,0.0,0.0,0.0,0.0,0.0,0.0,0.0,0.0,0.0,0.0,0.0,0.0,0.0,0.0,0.0,0.0,0.0,0.0,0.0,0.0,0.0,0.0,0.0,0.0,0.0,0.0,0.0,0.0,0.0,0.0,0.0,0.0,0.0,0.0,0.0,0.0,0.0,0.0,0.0,0.0,0.0,0.0,0.0,0.0,0.0,0.0,0.0,0.0,0.0,0.0,0.0,0.0,0.0,0.0,0.0,0.0,0.0,0.0,0.0,0.0,0.0,0.0,0.0,-5.663,-5.734,-5.778,-5.6461,-5.5681,-5.5681,0.0,0.0,0.0,0.0,0.0,0.0,0.0,0.0,0.0,0.0,0.0,0.0,0.0,0.0,0.0,0.0,0.0,0.0,0.0,0.0,0.0,0.0,0.0,0.0,0.0,0.0,0.0,0.0,0.0,0.0,0.0,0.0,0.0,0.0,0.0,0.0,0.0,0.0,0.0,0.0,0.0,0.0,0.0,0.0,0.0,0.0,0.0,0.0,0.0,0.0,0.0,0.0,0.0,0.0,0.0,0.0,0.0,0.0,0.0,0.0,0.0,0.0,0.0,0.0,0.0,0.0,0.0,0.0,0.0,0.0,0.0,0.0,0.0,0.0,0.0,0.0,0.0,0.0,0.0,0.0,0.0,0.0,0.0,0.0,0.0,0.0,0.0,0.0,0.0,0.0,0.0,0.0,0.0,0.0,0.0,0.0,0.0,0.0,0.0,0.0,0.0,0.0,0.0,0.0,0.0,0.0,0.0,0.0,-5.575,-5.7103,-5.7848,-5.7848,-5.6494,-5.5681,0.0,0.0,0.0,0.0,0.0,0.0,0.0,0.0,0.0,0.0,0.0,0.0,0.0,0.0,0.0,0.0,0.0,0.0,0.0,0.0,0.0,0.0,0.0,0.0,0.0,0.0,0.0,0.0,0.0,0.0,0.0,0.0,0.0,0.0,0.0,0.0,0.0,0.0,0.0,0.0,0.0,0.0,0.0,0.0,0.0,0.0,0.0,0.0,0.0,0.0,0.0,0.0,0.0,0.0,0.0,0.0,0.0,0.0,0.0,0.0,0.0,0.0,0.0,0.0,0.0,0.0,0.0,0.0,0.0,0.0,0.0,0.0,0.0,0.0,0.0,0.0,0.0,0.0,0.0,0.0,0.0,0.0,0.0,0.0,0.0,0.0,0.0,0.0,0.0,0.0,0.0,0.0,0.0,0.0,0.0,0.0,0.0,0.0,0.0,0.0,0.0,0.0,0.0,0.0,0.0,0.0,0.0,0.0,0.0,-5.5749,-5.7137,-5.7881,-5.7848,-5.6494,-5.5681,0.0,0.0,0.0,0.0,0.0,0.0,0.0,0.0,0.0,0.0,0.0,0.0,0.0,0.0,0.0,0.0,0.0,0.0,0.0,0.0,0.0,0.0,0.0,0.0,0.0,0.0,0.0,0.0,0.0,0.0,0.0,0.0,0.0,0.0,0.0,0.0,0.0,0.0,0.0,0.0,0.0,0.0,0.0,0.0,0.0,0.0,0.0,0.0,0.0,0.0,0.0,0.0,0.0,0.0,0.0,0.0,0.0,0.0,0.0,0.0,0.0,0.0,0.0,0.0,0.0,0.0,0.0,0.0,0.0,0.0,0.0,0.0,0.0,0.0,0.0,0.0,0.0,0.0,0.0,0.0,0.0,0.0,0.0,0.0,0.0,0.0,0.0,0.0,0.0,0.0,0.0,0.0,0.0,0.0,0.0,0.0,0.0,0.0,0.0,0.0,0.0,0.0,0.0,0.0,0.0,0.0,0.0,0.0,0.0,-5.6765,0.0,-5.8254,-5.822,-5.707,-5.6224,0.0,0.0,0.0,0.0,0.0,0.0,0.0,0.0,0.0,0.0,0.0,0.0,0.0,0.0,0.0,0.0,0.0,0.0,0.0,0.0,0.0,0.0,0.0,0.0,0.0,0.0,0.0,0.0,0.0,0.0,0.0,0.0,0.0,0.0,0.0,0.0,0.0,0.0,0.0,0.0,0.0,0.0,0.0,0.0,0.0,0.0,0.0,0.0,0.0,0.0,0.0,0.0,0.0,0.0,0.0,0.0,0.0,0.0,0.0,0.0,0.0,0.0,0.0,0.0,0.0,0.0,0.0,0.0,0.0,0.0,0.0,0.0,0.0,0.0,0.0,0.0,0.0,0.0,0.0,0.0,0.0,0.0,0.0,0.0,0.0,0.0,0.0,0.0,0.0,0.0,0.0,0.0,0.0,0.0,0.0,0.0,0.0,0.0,0.0,0.0,0.0,0.0,0.0,0.0,0.0,0.0,0.0,0.0,-5.6763,-5.8863,-5.8998,-5.9032,-5.8998,-5.8254,-5.7171,0.0,0.0,0.0,0.0,0.0,0.0,0.0,0.0,0.0,0.0,0.0,0.0,0.0,0.0,0.0,0.0,0.0,0.0,0.0,0.0,0.0,0.0,0.0,0.0,0.0,0.0,0.0,0.0,0.0,0.0,0.0,0.0,0.0,0.0,0.0,0.0,0.0,0.0,0.0,0.0,0.0,0.0,0.0,0.0,0.0,0.0,0.0,0.0,0.0,0.0,0.0,0.0,0.0,0.0,0.0,0.0,0.0,0.0,0.0,0.0,0.0,0.0,0.0,0.0,0.0,0.0,0.0,0.0,0.0,0.0,0.0,0.0,0.0,0.0,0.0,0.0,0.0,0.0,0.0,0.0,0.0,0.0,0.0,0.0,0.0,0.0,0.0,0.0,0.0,0.0,0.0,0.0,0.0,0.0,0.0,0.0,0.0,0.0,0.0,0.0,0.0,0.0,0.0,0.0,0.0,0.0,0.0,0.0,0.0,-5.8964,-5.9505,-5.9742,-5.9708,-5.8558,-5.7442,0.0,0.0,0.0,0.0,0.0,0.0,0.0,0.0,0.0,0.0,0.0,0.0,0.0,0.0,0.0,0.0,0.0,0.0,0.0,0.0,0.0,0.0,0.0,0.0,0.0,0.0,0.0,0.0,0.0,0.0,0.0,0.0,0.0,0.0,0.0,0.0,0.0,0.0,0.0,0.0,0.0,0.0,0.0,0.0,0.0,0.0,0.0,0.0,0.0,0.0,0.0,0.0,0.0,0.0,0.0,0.0,0.0,0.0,0.0,0.0,0.0,0.0,0.0,0.0,0.0,0.0,0.0,0.0,0.0,0.0,0.0,0.0,0.0,0.0,0.0,0.0,0.0,0.0,0.0,0.0,0.0,0.0,0.0,0.0,0.0,0.0,0.0,0.0,0.0,0.0,0.0,0.0,0.0,0.0,0.0,0.0,0.0,0.0,0.0,0.0,0.0,0.0,0.0,0.0,0.0,0.0,0.0,0.0,0.0,-5.9844,-6.0317,-6.0554,-6.0554,-5.9336,-5.8118,-5.6833,0.0,0.0,0.0,0.0,0.0,0.0,0.0,0.0,0.0,0.0,0.0,0.0,0.0,0.0,0.0,0.0,0.0,0.0,0.0,0.0,0.0,0.0,0.0,0.0,0.0,0.0,0.0,0.0,0.0,0.0,0.0,0.0,0.0,0.0,0.0,0.0,0.0,0.0,0.0,0.0,0.0,0.0,0.0,0.0,0.0,0.0,0.0,0.0,0.0,0.0,0.0,0.0,0.0,0.0,0.0,0.0,0.0,0.0,0.0,0.0,0.0,0.0,0.0,0.0,0.0,0.0,0.0,0.0,0.0,0.0,0.0,0.0,0.0,0.0,0.0,0.0,0.0,0.0,0.0,0.0,0.0,0.0,0.0,0.0,0.0,0.0,0.0,0.0,0.0,0.0,0.0,0.0,0.0,0.0,0.0,0.0,0.0,0.0,0.0,0.0,0.0,0.0,0.0,0.0,0.0,0.0,0.0,0.0,-6.1332,-6.14,-6.1434,-6.1434,-6.0588,-5.9167,0.0,0.0,0.0,0.0,0.0,0.0,0.0,0.0,0.0,0.0,0.0,0.0,0.0,0.0,0.0,0.0,0.0,0.0,0.0,0.0,0.0,0.0,0.0,0.0,0.0,0.0,0.0,0.0,0.0,0.0,0.0,0.0,0.0,0.0,0.0,0.0,0.0,0.0,0.0,0.0,0.0,0.0,0.0,0.0,0.0,0.0,0.0,0.0,0.0,0.0,0.0,0.0,0.0,0.0,0.0,0.0,0.0,0.0,0.0,0.0,0.0,0.0,0.0,0.0,0.0,0.0,0.0,0.0,0.0,0.0,0.0,0.0,0.0,0.0,0.0,0.0,0.0,0.0,0.0,0.0,0.0,0.0,0.0,0.0,0.0,0.0,0.0,0.0,0.0,0.0,0.0,0.0,0.0,0.0,0.0,0.0,0.0,0.0,0.0,0.0,0.0,0.0,0.0,0.0,0.0,0.0,0.0,0.0,0.0,-6.2076,-6.2651,-6.2956,-6.2922,-6.167,-6.0182,0.0,0.0,0.0,0.0,0.0,0.0,0.0,0.0,0.0,0.0,0.0,0.0,0.0,0.0,0.0,0.0,0.0,0.0,0.0,0.0,0.0,0.0,0.0,0.0,0.0,0.0,0.0,0.0,0.0,0.0,0.0,0.0,0.0,0.0,0.0,0.0,0.0,0.0,0.0,0.0,0.0,0.0,0.0,0.0,0.0,0.0,0.0,0.0,0.0,0.0,0.0,0.0,0.0,0.0,0.0,0.0,0.0,0.0,0.0,0.0,0.0,0.0,0.0,0.0,0.0,0.0,0.0,0.0,0.0,0.0,0.0,0.0,0.0,0.0,0.0,0.0,0.0,0.0,0.0,0.0,0.0,0.0,0.0,0.0,0.0,0.0,0.0,0.0,0.0,0.0,0.0,0.0,0.0,0.0,0.0,0.0,0.0,0.0,0.0,0.0,0.0,0.0,0.0,0.0,0.0,0.0,0.0,0.0,-6.1332,-6.2854,-6.3903,-6.4275,-6.3971,-6.255,-6.0892,0.0,0.0,0.0,0.0,0.0,0.0,0.0,0.0,0.0,0.0,0.0,0.0,0.0,0.0,0.0,0.0,0.0,0.0,0.0,0.0,0.0,0.0,0.0,0.0,0.0,0.0,0.0,0.0,0.0,0.0,0.0,0.0,0.0,0.0,0.0,0.0,0.0,0.0,0.0,0.0,0.0,0.0,0.0,0.0,0.0,0.0,0.0,0.0,0.0,0.0,0.0,0.0,0.0,0.0,0.0,0.0,0.0,0.0,0.0,0.0,0.0,0.0,0.0,0.0,0.0,0.0,0.0,0.0,0.0,0.0,0.0,0.0,0.0,0.0,0.0,0.0,0.0,0.0,0.0,0.0,0.0,0.0,0.0,0.0,0.0,0.0,0.0,0.0,0.0,0.0,0.0,0.0,0.0,0.0,0.0,0.0,0.0,0.0,0.0,0.0,0.0,0.0,0.0,0.0,0.0,0.0,0.0,0.0,-6.2042,-6.3599,-6.4986,-6.5358,-6.458,-6.3226,-6.1434,0.0,0.0,0.0,0.0,0.0,0.0,0.0,0.0,0.0,0.0,0.0,0.0,0.0,0.0,0.0,0.0,0.0,0.0,0.0,0.0,0.0,0.0,0.0,0.0,0.0,0.0,0.0,0.0,0.0,0.0,0.0,0.0,0.0,0.0,0.0,0.0,0.0,0.0,0.0,0.0,0.0,0.0,0.0,0.0,0.0,0.0,0.0,0.0,0.0,0.0,0.0,0.0,0.0,0.0,0.0,0.0,0.0,0.0,0.0,0.0,0.0,0.0,0.0,0.0,0.0,0.0,0.0,0.0,0.0,0.0,0.0,0.0,0.0,0.0,0.0,0.0,0.0,0.0,0.0,0.0,0.0,0.0,0.0,0.0,0.0,0.0,0.0,0.0,0.0,0.0,0.0,0.0,0.0,0.0,0.0,0.0,0.0,0.0,0.0,0.0,0.0,0.0,0.0,0.0,0.0,0.0,0.0,0.0,-6.2313,-6.4309,-6.5222,-6.5324,-6.4613,-6.3734,-6.2178,0.0,0.0,0.0,0.0,0.0,0.0,0.0,0.0,0.0,0.0,0.0,0.0,0.0,0.0,0.0,0.0,0.0,0.0,0.0,0.0,0.0,0.0,0.0,0.0,0.0,0.0,0.0,0.0,0.0,0.0,0.0,0.0,0.0,0.0,0.0,0.0,0.0,0.0,0.0,0.0,0.0,0.0,0.0,0.0,0.0,0.0,0.0,0.0,-6.2956,0.0,0.0,0.0,0.0,0.0,0.0,0.0,0.0,0.0,0.0,0.0,0.0,0.0,0.0,0.0,0.0,0.0,0.0,0.0,0.0,0.0,0.0,0.0,0.0,0.0,0.0,0.0,0.0,0.0,0.0,0.0,0.0,0.0,0.0,0.0,0.0,0.0,0.0,0.0,0.0,0.0,0.0,0.0,0.0,0.0,0.0,0.0,0.0,0.0,0.0,0.0,0.0,0.0,0.0,0.0,0.0,0.0,0.0,0.0,-6.3091,-6.458,-6.5662,-6.5696,-6.4647,-6.4241,-6.2787,0.0,0.0,0.0,0.0,0.0,0.0,0.0,0.0,0.0,0.0,0.0,0.0,0.0,0.0,0.0,0.0,0.0,0.0,0.0,0.0,0.0,0.0,0.0,0.0,0.0,0.0,0.0,0.0,0.0,0.0,0.0,0.0,0.0,0.0,0.0,0.0,0.0,0.0,0.0,0.0,0.0,0.0,0.0,0.0,0.0,0.0,0.0,0.0,0.0,0.0,0.0,0.0,0.0,0.0,0.0,0.0,0.0,0.0,0.0,0.0,0.0,0.0,0.0,0.0,0.0,0.0,0.0,0.0,0.0,0.0,0.0,0.0,0.0,0.0,0.0,0.0,0.0,0.0,0.0,0.0,0.0,0.0,0.0,0.0,0.0,0.0,0.0,0.0,0.0,0.0,0.0,0.0,0.0,0.0,0.0,0.0,0.0,0.0,0.0,0.0,0.0,0.0,0.0,0.0,0.0,0.0,0.0,-6.2245,-6.3768,-6.4613,-6.6068,-6.6102,-6.4647,-6.4613,-6.3193,-6.0216,0.0,0.0,0.0,0.0,0.0,0.0,0.0,0.0,0.0,0.0,0.0,0.0,0.0,0.0,0.0,0.0,0.0,0.0,0.0,0.0,0.0,0.0,0.0,0.0,0.0,0.0,0.0,0.0,0.0,0.0,0.0,0.0,0.0,0.0,0.0,0.0,0.0,0.0,-5.734,-6.0419,0.0,0.0,0.0,0.0,0.0,0.0,0.0,0.0,-6.4106,0.0,0.0,0.0,0.0,0.0,0.0,0.0,0.0,0.0,0.0,0.0,0.0,0.0,0.0,0.0,0.0,0.0,0.0,0.0,0.0,0.0,0.0,0.0,0.0,0.0,0.0,0.0,0.0,0.0,0.0,0.0,0.0,0.0,0.0,0.0,0.0,0.0,0.0,0.0,0.0,0.0,0.0,0.0,0.0,0.0,0.0,0.0,0.0,0.0,0.0,0.0,0.0,0.0,0.0,0.0,0.0,-6.0047,-6.1738,-6.3226,-6.458,-6.6034,-6.6102,-6.4681,-6.4613,-6.3193,-6.025,0.0,0.0,0.0,0.0,0.0,0.0,0.0,0.0,0.0,0.0,0.0,0.0,0.0,0.0,0.0,0.0,0.0,0.0,0.0,0.0,0.0,0.0,0.0,0.0,0.0,0.0,0.0,0.0,0.0,0.0,0.0,0.0,0.0,0.0,0.0,0.0,0.0,0.0,0.0,-6.2178,-6.3599,0.0,0.0,0.0,0.0,0.0,0.0,0.0,0.0,-6.3666,0.0,0.0,0.0,0.0,0.0,0.0,0.0,0.0,0.0,0.0,0.0,0.0,0.0,0.0,0.0,0.0,0.0,0.0,0.0,0.0,0.0,0.0,0.0,0.0,0.0,0.0,0.0,0.0,0.0,0.0,0.0,0.0,0.0,0.0,0.0,0.0,0.0,0.0,0.0,0.0,0.0,0.0,0.0,0.0,0.0,0.0,0.0,0.0,0.0,0.0,0.0,0.0,0.0,0.0,0.0,-6.0047,-6.1603,-6.3125,-6.4546,-6.529,-6.5324,-6.4613,-6.3869,-6.2381,0.0,0.0,0.0,0.0,0.0,0.0,0.0,0.0,0.0,0.0,0.0,0.0,0.0,0.0,0.0,0.0,0.0,0.0,0.0,0.0,0.0,0.0,0.0,0.0,0.0,0.0,0.0,0.0,0.0,0.0,0.0,0.0,0.0,0.0,0.0,0.0,0.0,0.0,0.0,0.0,-6.2651,-6.4208,-6.4546,0.0,0.0,0.0,0.0,0.0,0.0,-6.4546,-6.3971,0.0,0.0,0.0,0.0,0.0,0.0,0.0,0.0,0.0,0.0,0.0,0.0,0.0,0.0,0.0,0.0,0.0,0.0,0.0,0.0,0.0,0.0,0.0,0.0,0.0,0.0,0.0,0.0,0.0,0.0,0.0,0.0,0.0,0.0,0.0,0.0,0.0,0.0,0.0,0.0,0.0,0.0,0.0,0.0,0.0,0.0,0.0,0.0,0.0,0.0,0.0,0.0,0.0,0.0,0.0,-5.9844,-6.14,-6.2956,-6.4512,-6.4613,-6.4613,-6.458,-6.3193,-6.1603,0.0,0.0,0.0,0.0,0.0,0.0,0.0,0.0,0.0,0.0,0.0,0.0,0.0,0.0,0.0,0.0,0.0,0.0,0.0,0.0,0.0,0.0,0.0,0.0,0.0,0.0,0.0,0.0,0.0,0.0,0.0,0.0,0.0,0.0,0.0,0.0,0.0,0.0,0.0,0.0,0.0,-6.4613,-6.4613,-6.5865,0.0,0.0,0.0,0.0,-6.5797,-6.5087,0.0,0.0,0.0,0.0,0.0,0.0,0.0,0.0,0.0,0.0,0.0,0.0,0.0,0.0,0.0,0.0,0.0,0.0,0.0,0.0,0.0,0.0,0.0,0.0,0.0,0.0,0.0,0.0,0.0,0.0,0.0,0.0,0.0,0.0,0.0,0.0,0.0,0.0,0.0,0.0,0.0,0.0,0.0,0.0,0.0,0.0,0.0,0.0,0.0,0.0,0.0,0.0,0.0,0.0,0.0,0.0,-5.9099,-6.0655,-6.2448,-6.4478,-6.4613,-6.4613,-6.458,-6.3159,-6.1366,0.0,0.0,0.0,0.0,0.0,0.0,0.0,0.0,0.0,0.0,0.0,0.0,0.0,0.0,0.0,0.0,0.0,0.0,0.0,0.0,0.0,0.0,0.0,0.0,0.0,0.0,0.0,0.0,0.0,0.0,0.0,0.0,0.0,0.0,0.0,0.0,0.0,0.0,0.0,0.0,0.0,-6.4613,-6.4613,-6.5865,-6.6812,0.0,0.0,-6.6576,-6.5797,-6.5087,0.0,0.0,0.0,0.0,0.0,0.0,0.0,0.0,0.0,0.0,0.0,0.0,0.0,0.0,0.0,0.0,0.0,0.0,0.0,0.0,0.0,0.0,0.0,0.0,0.0,0.0,0.0,0.0,0.0,0.0,0.0,0.0,0.0,0.0,0.0,0.0,0.0,0.0,0.0,0.0,0.0,0.0,0.0,0.0,0.0,0.0,0.0,0.0,0.0,0.0,0.0,0.0,0.0,0.0,0.0,-5.6763,-5.8927,-6.008,-6.1704,-6.3869,-6.3565,-6.3362,-6.3328,-6.1873,-6.025,0.0,0.0,0.0,0.0,0.0,0.0,0.0,0.0,0.0,0.0,0.0,0.0,0.0,0.0,0.0,0.0,0.0,0.0,0.0,0.0,0.0,0.0,0.0,0.0,0.0,0.0,0.0,0.0,0.0,0.0,0.0,0.0,0.0,0.0,0.0,0.0,0.0,0.0,0.0,0.0,0.0,0.0,-6.4613,-6.5865,0.0,0.0,0.0,-6.6711,-6.6373,0.0,0.0,0.0,0.0,0.0,0.0,0.0,0.0,0.0,0.0,0.0,0.0,0.0,0.0,0.0,0.0,0.0,0.0,0.0,0.0,0.0,0.0,0.0,0.0,0.0,0.0,0.0,0.0,0.0,0.0,0.0,0.0,0.0,0.0,0.0,0.0,0.0,0.0,0.0,0.0,0.0,0.0,0.0,0.0,0.0,0.0,0.0,0.0,0.0,0.0,0.0,0.0,0.0,0.0,0.0,0.0,0.0,-5.8693,-5.9641,-6.1197,-6.3396,-6.2787,-6.2415,-6.2381,-6.0892,0.0,0.0,0.0,0.0,0.0,0.0,0.0,0.0,0.0,0.0,0.0,0.0,0.0,0.0,0.0,0.0,0.0,0.0,0.0,0.0,0.0,0.0,0.0,0.0,0.0,0.0,0.0,-4.4335,0.0,0.0,0.0,0.0,0.0,0.0,0.0,0.0,0.0,0.0,0.0,0.0,0.0,0.0,-6.4681,-6.485,-6.5967,-6.6812,0.0,0.0,-6.6812,-6.6812,-6.573,-6.4816,0.0,0.0,0.0,0.0,0.0,0.0,0.0,0.0,0.0,0.0,0.0,0.0,0.0,0.0,0.0,0.0,0.0,0.0,0.0,0.0,0.0,0.0,0.0,0.0,0.0,0.0,0.0,0.0,0.0,0.0,0.0,0.0,0.0,0.0,0.0,0.0,0.0,0.0,0.0,0.0,0.0,0.0,0.0,0.0,0.0,0.0,0.0,0.0,0.0,0.0,0.0,0.0,0.0,0.0,-5.6461,-5.7949,-5.937,-6.1197,-6.3396,-6.2787,-6.2415,-6.2381,-6.0892,-5.9066,0.0,0.0,0.0,0.0,0.0,0.0,0.0,0.0,0.0,0.0,0.0,0.0,0.0,0.0,0.0,0.0,0.0,0.0,0.0,0.0,0.0,0.0,0.0,0.0,0.0,0.0,0.0,0.0,0.0,0.0,0.0,0.0,0.0,0.0,0.0,0.0,0.0,0.0,0.0,0.0,0.0,-6.485,-6.5527,-6.6305,-6.6812,0.0,-6.6812,-6.6812,-6.6812,-6.6136,-6.5392,-6.4715,0.0,0.0,0.0,0.0,0.0,0.0,0.0,0.0,0.0,0.0,0.0,0.0,0.0,0.0,0.0,0.0,0.0,0.0,0.0,0.0,0.0,0.0,0.0,0.0,0.0,0.0,0.0,0.0,0.0,0.0,0.0,0.0,0.0,0.0,0.0,0.0,0.0,0.0,0.0,0.0,0.0,0.0,0.0,0.0,0.0,0.0,0.0,0.0,0.0,0.0,0.0,0.0,0.0,-5.575,-5.7205,-5.866,-6.0317,-6.2076,-6.2313,-6.1941,-6.0994,-6.0419,-5.8863,0.0,0.0,0.0,0.0,0.0,0.0,0.0,0.0,0.0,0.0,0.0,0.0,0.0,0.0,0.0,0.0,0.0,0.0,0.0,0.0,0.0,0.0,0.0,0.0,0.0,0.0,0.0,0.0,-4.7392,-4.8615,-5.0083,0.0,0.0,0.0,0.0,0.0,0.0,0.0,0.0,0.0,0.0,-6.4727,-6.5595,-6.6339,0.0,0.0,-6.6812,-6.6812,-6.6812,-6.6078,-6.5387,-6.5117,-6.407,0.0,0.0,0.0,0.0,0.0,0.0,0.0,0.0,0.0,0.0,0.0,0.0,0.0,0.0,0.0,0.0,0.0,0.0,0.0,0.0,0.0,0.0,0.0,0.0,0.0,0.0,0.0,0.0,0.0,0.0,0.0,0.0,0.0,0.0,0.0,0.0,0.0,0.0,0.0,0.0,0.0,0.0,0.0,0.0,0.0,0.0,0.0,0.0,0.0,0.0,0.0,0.0,-5.531,-5.6799,-5.8254,-5.9776,-6.1264,-6.1806,-6.1434,-6.0148,-5.9674,-5.8254,0.0,0.0,0.0,0.0,0.0,0.0,0.0,0.0,0.0,0.0,0.0,0.0,0.0,0.0,0.0,0.0,0.0,0.0,0.0,0.0,0.0,0.0,0.0,0.0,0.0,0.0,0.0,0.0,-4.7966,-4.9229,-5.1134,0.0,0.0,0.0,0.0,0.0,0.0,0.0,0.0,0.0,0.0,-6.4464,-6.5573,-6.6221,-6.6567,-6.6601,-6.6601,-6.6601,-6.6601,-6.6036,-6.5505,-6.5261,0.0,0.0,0.0,0.0,0.0,0.0,0.0,0.0,0.0,0.0,0.0,0.0,0.0,0.0,0.0,0.0,0.0,0.0,0.0,0.0,0.0,0.0,0.0,0.0,0.0,0.0,0.0,-5.2764,0.0,0.0,-5.1335,0.0,0.0,0.0,0.0,0.0,0.0,0.0,0.0,0.0,0.0,0.0,0.0,0.0,0.0,0.0,0.0,0.0,0.0,0.0,0.0,0.0,0.0,-5.531,-5.6765,-5.822,-5.9708,-6.1231,-6.1332,-6.0926,-6.008,-5.8693,-5.7239,-5.5681,0.0,0.0,0.0,0.0,0.0,0.0,0.0,0.0,0.0,0.0,0.0,0.0,0.0,0.0,0.0,0.0,0.0,0.0,0.0,0.0,0.0,0.0,0.0,0.0,0.0,0.0,-4.7619,-4.8934,-5.0351,0.0,0.0,0.0,0.0,0.0,0.0,0.0,0.0,0.0,-6.3149,-6.3624,-6.4157,-6.559,-6.5965,-6.6095,-6.6095,-6.6139,-6.6095,-6.6095,-6.6062,-6.5741,0.0,0.0,0.0,0.0,0.0,0.0,0.0,0.0,0.0,0.0,0.0,0.0,0.0,0.0,0.0,0.0,0.0,0.0,0.0,0.0,0.0,0.0,0.0,0.0,0.0,0.0,0.0,-5.4894,-5.3806,0.0,0.0,0.0,0.0,0.0,0.0,0.0,0.0,0.0,0.0,0.0,-5.4566,-5.5108,0.0,0.0,0.0,0.0,0.0,0.0,0.0,0.0,0.0,0.0,0.0,0.0,-5.46,-5.6055,-5.7036,-5.8287,-5.9742,-6.025,-6.0148,-5.937,-5.8423,-5.6731,-5.4296,0.0,0.0,0.0,0.0,0.0,0.0,0.0,0.0,0.0,0.0,0.0,0.0,0.0,0.0,0.0,0.0,0.0,0.0,0.0,0.0,0.0,0.0,0.0,0.0,0.0,-4.8168,0.0,0.0,0.0,0.0,0.0,0.0,0.0,0.0,0.0,0.0,-5.8766,-5.9905,-6.2344,-6.2672,-6.3298,-6.506,-6.5315,-6.5404,0.0,0.0,0.0,0.0,0.0,0.0,0.0,0.0,0.0,0.0,0.0,0.0,0.0,0.0,-5.7213,-5.6506,-5.5551,-5.485,-5.488,0.0,0.0,0.0,0.0,0.0,0.0,0.0,0.0,0.0,0.0,0.0,0.0,0.0,0.0,-5.7335,-5.5983,-5.5286,0.0,0.0,0.0,0.0,0.0,0.0,0.0,0.0,-5.5547,-5.5953,-5.5715,-5.5953,-5.5953,0.0,-5.5681,-5.4702,0.0,0.0,0.0,0.0,0.0,0.0,0.0,0.0,-5.4228,-5.5683,-5.6427,-5.7509,-5.8964,-5.9471,-5.9505,-5.8998,-5.778,-5.5852,-5.3179,-5.186,-5.0879,0.0,0.0,0.0,0.0,0.0,0.0,0.0,0.0,0.0,0.0,0.0,0.0,0.0,0.0,0.0,0.0,0.0,0.0,0.0,0.0,0.0,0.0,0.0,-4.8764,0.0,0.0,0.0,0.0,0.0,0.0,0.0,0.0,0.0,-5.7956,-5.8551,-5.9596,-6.1426,-6.1879,-6.2566,-6.4059,0.0,0.0,0.0,0.0,0.0,0.0,0.0,-6.4114,-6.402,-6.3404,-6.2825,-6.258,-6.144,-6.0372,-5.9911,0.0,0.0,-5.7079,-5.6342,-5.5837,-5.5837,-5.6196,-5.6346,-5.5927,-5.6196,-5.6376,0.0,0.0,0.0,0.0,0.0,0.0,0.0,0.0,-6.1292,-6.0541,0.0,-5.827,0.0,0.0,0.0,0.0,-5.5647,-5.5716,0.0,0.0,-5.6562,-5.6528,-5.5952,-5.663,-5.6562,-5.5886,-5.5884,-5.5852,-5.5647,-5.4329,0.0,0.0,0.0,0.0,0.0,0.0,-5.4262,-5.5683,-5.6427,-5.7509,-5.8896,-5.8964,-5.8964,-5.8792,-5.6833,-5.4668,-5.2435,-5.1623,-5.0879,-5.0101,-4.939,0.0,0.0,0.0,0.0,0.0,0.0,0.0,0.0,0.0,0.0,0.0,0.0,0.0,0.0,0.0,0.0,0.0,0.0,0.0,0.0,-4.8788,0.0,0.0,0.0,0.0,0.0,0.0,0.0,0.0,0.0,-5.7618,-5.8069,-5.8588,-5.9334,-6.0503,0.0,0.0,0.0,0.0,-6.3084,-6.3052,-6.3052,-6.3052,-6.3052,-6.3052,-6.2987,-6.2808,0.0,0.0,-6.1277,-6.0711,-6.0294,-5.9948,-5.9199,-5.8414,-5.7699,-5.7251,-5.7034,-5.7034,-5.7064,-5.7124,-5.7094,-5.7064,-5.7094,-6.6119,0.0,0.0,0.0,0.0,-6.3998,-6.3862,-6.3539,-6.3127,-6.2144,-6.0748,-5.9347,0.0,0.0,0.0,0.0,0.0,0.0,-5.6765,-5.7306,-5.8051,-5.8524,-5.8863,-5.9066,-5.9032,-5.8829,-5.8863,-5.8287,-5.7273,-5.6833,-5.5716,-5.3957,0.0,0.0,0.0,0.0,-5.4769,-5.5647,-5.6427,-5.7273,-5.8186,-5.822,-5.7712,-5.6697,-5.6019,-5.4634,-5.2367,-5.1589,-5.0879,-5.0101,-4.939,0.0,0.0,0.0,0.0,0.0,0.0,0.0,0.0,0.0,0.0,0.0,0.0,0.0,0.0,0.0,0.0,0.0,0.0,0.0,-4.9205,-5.0033,-5.0632,0.0,0.0,0.0,0.0,0.0,0.0,0.0,0.0,0.0,-5.7459,-5.8152,-5.8952,0.0,0.0,-6.0621,-6.1508,-6.1702,-6.1803,-6.1922,-6.1972,0.0,-6.1972,-6.1853,-6.1702,-6.1683,-6.1277,-6.0815,-6.0377,-6.0197,-5.9986,-5.969,-5.9432,-5.9145,-5.8691,-5.7775,-5.7154,-5.7124,-5.7483,-5.7633,-5.7244,-5.7483,-5.7663,-6.8825,-6.71,-6.6182,-6.5778,-6.5815,-6.603,-6.5952,-6.5585,-6.5232,-6.4158,-6.2467,-6.1014,-5.9769,-5.866,-5.7859,0.0,0.0,0.0,-5.8355,-5.8761,-5.9235,-5.9674,-6.008,-6.008,-6.008,-6.008,-6.008,-5.9471,-5.8321,-5.8321,-5.7374,-5.5513,0.0,-5.4803,-5.4397,-5.4803,-5.5412,-5.6122,-5.6596,-5.7137,-5.7881,-5.7611,-5.69,-5.575,-5.5446,-5.4499,-5.2841,-5.2063,-5.1319,-5.0574,-4.983,-4.9289,0.0,0.0,0.0,0.0,0.0,0.0,0.0,0.0,0.0,0.0,0.0,-4.7301,-4.7098,0.0,0.0,0.0,-4.7622,-4.8622,-4.9559,-5.0322,0.0,0.0,0.0,0.0,0.0,0.0,0.0,-5.5488,-5.5873,-5.6462,-5.7434,-5.7867,-5.8447,-5.9287,-5.9634,-6.0043,-6.0628,0.0,-6.0794,-6.0918,-6.0918,-6.0918,-6.0918,-6.0845,-6.069,-6.0555,-6.0272,-5.9955,-5.972,-5.9613,-5.956,-5.9369,-5.9369,-5.9315,-5.9153,-5.8411,-5.7902,-5.7902,-5.8201,-5.8351,-5.7962,-5.8231,-5.8381,-7.0954,-7.0,-6.7797,-6.688,-6.6843,-6.7577,-6.7707,-6.7373,-6.7372,-6.6213,-6.419,-6.2962,-6.1798,-6.0637,-6.0303,0.0,-5.9133,-5.981,-6.0114,-6.0182,-6.0182,-6.025,-6.0283,-6.0283,-6.0283,-6.0283,-6.0283,-5.9911,-5.9235,-5.9201,-5.8457,-5.7002,-5.6325,-5.585,-5.5716,-5.5784,-5.6122,-5.6799,-5.6867,-5.7239,-5.7848,-5.7171,-5.6461,-5.5715,-5.4972,-5.4262,-5.3518,-5.2739,-5.1995,-5.1319,-5.0541,-4.9763,-4.912,0.0,0.0,0.0,0.0,0.0,0.0,0.0,0.0,0.0,0.0,0.0,0.0,0.0,0.0,-4.7083,-4.7939,0.0,-4.9375,-5.0019,0.0,0.0,0.0,-5.3279,-5.3699,-5.4851,-5.5603,-5.5603,0.0,0.0,-5.7668,-5.7652,-5.7872,-5.8797,-5.9486,-5.9963,-5.9963,-5.9933,-5.9963,-5.9933,-5.9963,-5.9963,-5.9986,-5.9933,-5.988,-5.9583,-5.9476,-5.9422,-5.9207,-5.9153,-5.9099,-5.9099,-5.9099,-5.9099,-5.9099,-5.9039,-5.9099,-5.9039,-5.9069,-5.9069,-5.9009,-5.9039,-5.9039,-7.1762,-7.0962,-7.0403,-6.9816,-6.9265,-6.9338,-6.9185,-6.8764,-6.7724,-6.6631,-6.5507,-6.3484,-6.1834,-6.0452,-6.0227,-6.0013,-5.9844,-6.0013,-6.0452,-6.0994,-6.1028,-6.1298,-6.1839,-6.1839,-6.1839,-6.1839,-6.1839,-6.1467,-6.0791,-6.0757,-6.0013,-5.8558,-5.8321,-5.7408,-5.5783,-5.6258,-5.663,-5.6799,-5.734,-5.7712,-5.7848,-5.7171,-5.6461,-5.5716,-5.4972,-5.4262,-5.3518,-5.2739,-5.2232,-5.2029,-5.0777,-5.0031,-4.983,-4.9154,0.0,0.0,0.0,0.0,0.0,0.0,0.0,0.0,0.0,-4.767,-4.7065,0.0,-4.7442,0.0,-4.7911,-4.9047,-5.0179,-5.1351,0.0,0.0,-5.3361,-5.402,-5.4157,-5.4557,-5.4831,-5.4831,-5.5661,-5.6483,-5.7213,-5.7648,-5.8248,-5.8931,-5.9225,-5.9315,-5.9315,-5.9315,-5.9345,-5.9315,-5.9345,-5.9315,-5.9315,-5.9315,-5.9345,-5.9207,-5.9207,-5.9153,-5.9099,-5.9099,-5.9099,-5.9099,-5.9099,-5.9099,-5.9099,-5.9099,-5.9099,-5.9099,-5.9099,-5.9099,-5.9099,-5.9099,-5.9099,-7.2239,-7.1835,-7.1835,-7.1521,-7.1024,-7.0608,-7.0194,-6.9703,-6.8314,-6.7133,-6.5967,-6.3791,-6.2164,-6.0959,-6.1037,-6.0926,-6.0655,-6.096,-6.1366,-6.1772,-6.1806,-6.2009,-6.2381,-6.2415,-6.2415,-6.2415,-6.2415,-6.2009,-6.1332,-6.1298,-6.0689,-5.9505,-5.9167,-5.8352,-5.7239,-5.7239,-5.7273,-5.7306,-5.7679,-5.7881,-5.7848,-5.6867,-5.6122,-5.5716,-5.4668,-5.3923,-5.3518,-5.3078,-5.2672,-5.23,-5.1488,-5.0777,-5.0135,-4.9424,-4.8785,0.0,0.0,0.0,0.0,0.0,0.0,0.0,0.0,0.0,0.0,0.0,-4.7632,-4.7773,-4.8619,-4.9738,-5.1053,-5.1848,-5.2475,-5.3024,-5.3888,-5.4382,-5.4286,-5.4616,-5.501,-5.531,-5.582,-5.6526,-5.7423,-5.7902,-5.8381,-5.9009,-5.9099,-5.9099,-5.9099,-5.9099,-5.9099,-5.9099,-5.9099,-5.9099,-5.9099,-5.9099,-5.9099,-5.9099,-5.9099,-5.9099,-5.9099,-5.9099,-5.9099,-5.9099,-5.9099,-5.9099,-5.9099,-5.9099,-5.9099,-5.9099,-5.9099,-5.9099,-5.9099,-5.9099,-5.9099,-7.2532,-7.2532,-7.2532,-7.2446,-7.2197,-7.1502,-7.0943,-7.0346,-6.897,-6.7456,-6.5723,-6.3915,-6.2586,-6.1813,-6.2266,-6.2081,-6.1501,-6.2076,-6.2415,-6.2415,-6.2415,-6.2415,-6.2415,-6.2415,-6.2415,-6.2415,-6.2415,-6.2042,-6.1467,-6.1434,-6.1028,-6.025,-5.9505,-5.9099,-5.8964,-5.8254,-5.7881,-5.7881,-5.7881,-5.7881,-5.7881,-5.6461,-5.5681,-5.5649,-5.4296,-5.3518,-5.3518,-5.3518,-5.3179,-5.2503,-5.2367,-5.1725,-5.0439,-4.9695,-4.9227,0.0,-4.8277,0.0,0.0,0.0,0.0,0.0,0.0,0.0,0.0,-4.7313,-4.7939,-4.9105,-4.9758,-5.0562,-5.1803,-5.2076,-5.2557,-5.3543,-5.4296,-5.4589,-5.4371,-5.485,-5.5448,-5.6107,-5.6256,-5.6765,-5.7902,-5.8171,-5.8501,-5.9009,-5.9099,-5.9099,-5.9099,-5.9099,-5.9099,-5.9099,-5.9099,-5.9099,-5.9099,-5.9099,-5.9099,-5.9099,-5.9099,-5.9099,-5.9099,-5.9099,-5.9099,-5.9099,-5.9099,-5.9099,-5.9099,-5.9099,-5.9099,-5.9099,-5.9099,-5.9099,-5.9099,-5.9099,-5.9069,-7.2532,-7.2532,-7.2532,-7.2321,-7.2048,-7.1902,-7.1556,-7.0983,-6.9024,-6.6802,-6.4532,-6.3816,-6.3199,-6.2757,-6.2663,-6.2469,-6.2212,-6.2313,-6.2415,-6.2415,-6.2415,-6.2415,-6.2415,-6.2415,-6.2415,-6.2415,-6.2415,-6.2313,-6.2178,-6.2178,-6.1806,-6.1061,-6.0283,-5.9573,-5.8961,0.0,0.0,0.0,-5.7881,-5.7881,-5.7848,-5.6461,-5.5681,-5.5683,-5.4262,0.0,-5.3518,-5.3518,-5.345,-5.3247,-5.2638,0.0,0.0,0.0,0.0,0.0,0.0,0.0,0.0,0.0,0.0,0.0,-4.8789,-4.8351,-4.7405,-4.7776,-4.8711,-5.014,-5.0681,-5.1309,-5.209,-5.314,-5.3841,-5.4061,-5.466,-5.505,-5.4999,-5.5119,-5.5448,-5.6158,-5.6585,-5.7214,-5.7992,-5.856,-5.8949,-5.9069,-5.9099,-5.9099,-5.9099,-5.9099,-5.9099,-5.9099,-5.9099,-5.9099,-5.9099,-5.9099,-5.9099,-5.9099,-5.9099,-5.9099,-5.9099,-5.9099,-5.9099,-5.9099,-5.9099,-5.9099,-5.9099,-5.9099,-5.9099,-5.9099,-5.9099,-5.9099,-5.9099,-5.9099,-5.8949,-7.2532,-7.2532,-7.2532,-7.2321,0.0,-7.2018,-7.1682,-7.1002,-6.9063,-6.6764,-6.4252,-6.382,-6.3377,-6.3,-6.277,-6.2576,-6.2415,-6.2415,-6.2415,-6.2415,-6.2415,-6.2415,-6.2415,-6.2415,-6.2415,-6.2415,-6.2415,-6.2415,-6.2415,-6.2415,-6.2042,-6.1298,-6.0486,-5.9742,-5.8998,-5.8254,-5.7881,-5.7881,-5.7881,-5.7881,-5.7848,-5.6833,-5.6089,-5.5681,-5.4634,0.0,0.0,0.0,0.0,0.0,0.0,0.0,0.0,0.0,0.0,-5.1057,-5.0826,-5.0526,-5.005,-4.9821,-4.9687,-4.9642,-4.9819,-4.9508,-4.8523,-4.8952,-4.9569,-5.0319,-5.1156,-5.1977,-5.2636,-5.3623,-5.4341,-5.467,-5.4999,-5.5209,-5.5209,-5.5209,-5.5448,-5.6077,-5.6705,-5.7363,-5.8022,-5.868,-5.9069,-5.9099,-5.9099,-5.9099,-5.9099,-5.9099,-5.9099,-5.9099,-5.9099,-5.9099,-5.9099,-5.9099,-5.9099,-5.9099,-5.9099,-5.9099,-5.9099,-5.9099,-5.9099,-5.9099,-5.9099,-5.9099,-5.9099,-5.9099,-5.9099,-5.9069,-5.883,-5.862,-5.862,-5.862,-5.853,-7.2532,-7.2532,-7.2532,-7.2321,-7.2018,-7.2018,-7.1547,-7.0656,0.0,0.0,0.0,-6.3963,-6.3452,-6.3,-6.2808,-6.2615,-6.2381,-6.2415,-6.2415,-6.2415,-6.2415,-6.2415,-6.2415,-6.2415,-6.2415,-6.2415,-6.2415,-6.2415,-6.2415,-6.2415,-6.2009,-6.1298,-6.0486,-5.9674,-5.8829,-5.8186,-5.7881,-5.7881,-5.7881,-5.7881,-5.7848,-5.7171,-5.6461,-5.5716,-5.4972,-5.4228,-5.3518,-5.3518,-5.3518,-5.3518,-5.3518,-5.3213,-5.257,-5.2503,-5.22,-5.1461,-5.1195,-5.0859,-5.0309,-5.0334,-5.0387,-5.0525,-5.0746,-5.0559,-4.9883,-5.0125,-5.0318,-5.0437,-5.1588,-5.2606,-5.3144,-5.3922,-5.461,-5.5149,-5.5209,-5.5209,-5.5209,-5.5209,-5.5448,-5.6128,-5.6667,-5.7244,-5.8022,-5.856,-5.8979,-5.9099,-5.9099,-5.9099,-5.9099,-5.9099,-5.9099,-5.9099,-5.9099,-5.9099,-5.9099,-5.9099,-5.9099,-5.9099,-5.9099,-5.9099,-5.9099,-5.9099,-5.9099,-5.9099,-5.9099,-5.9099,-5.9099,-5.8979,-5.8949,-5.8919,-5.8411,-5.7932,-5.7932,-5.7789,-5.7752,-7.2532,-7.2532,-7.2532,-7.2321,-7.2018,-7.2018,-7.1221,-6.9868,-6.8346,-6.6882,-6.5408,-6.4494,-6.371,-6.3,-6.2962,-6.277,-6.2415,-6.2415,-6.2415,-6.2415,-6.2415,-6.2415,-6.2415,-6.2415,-6.2415,-6.2415,-6.2415,-6.2415,-6.2415,-6.2415,-6.2009,-6.1298,-6.0486,-5.9404,-5.8152,-5.7949,-5.7881,-5.7881,-5.7881,-5.7881,-5.7881,-5.7171,-5.6461,-5.5716,-5.5006,-5.4228,-5.3551,-5.3518,-5.3518,-5.3518,-5.3518,-5.345,-5.3348,-5.3315,-5.3213,-5.291,-5.2705,-5.2324,-5.1723,-5.1455,-5.143,-5.1729,-5.1616,-5.1339,-5.0848,-5.0638,-5.0773,-5.1375,-5.239,-5.3084,-5.3234,-5.4311,-5.5059,-5.5179,-5.5209,-5.5209,-5.5209,-5.5209,-5.5418,-5.6047,-5.6226,-5.6795,-5.7812,-5.8118,-5.8471,-5.8949,-5.9069,-5.9099,-5.9099,-5.9099,-5.9099,-5.9099,-5.9099,-5.9099,-5.9099,-5.9099,-5.9099,-5.9099,-5.9099,-5.9099,-5.9099,-5.9099,-5.9099,-5.9099,-5.9069,-5.9039,-5.9039,-5.862,-5.8321,-5.8231,-5.7723,-5.7274,-5.7244,-5.6885,-5.6496,-7.2532,-7.2532,-7.2532,-7.2321,-7.1957,-7.162,-7.1087,-7.03,-6.8421,-6.6918,-6.5724,-6.4636,-6.3747,-6.3038,-6.3,-6.277,-6.2415,-6.2415,-6.2415,-6.2415,-6.2415,-6.2415,-6.2415,-6.2415,-6.2415,-6.2415,-6.2415,-6.2415,-6.2415,-6.2415,-6.1806,-6.0655,-5.9471,-5.8558,-5.7915,-5.7881,-5.7881,-5.7881,-5.7881,-5.7881,-5.7881,-5.7577,-5.6867,-5.575,-5.5378,-5.4668,-5.3551,-5.3518,-5.3518,-5.3518,-5.3518,-5.3518,-5.3518,-5.3518,-5.345,-5.3382,-5.3076,-5.2896,-5.294,-5.3029,-5.2899,-5.2606,-5.2707,-5.2591,-5.2178,-5.1516,-5.1421,-5.2085,-5.278,-5.3324,-5.3713,-5.461,-5.5209,-5.5209,-5.5209,-5.5209,-5.5209,-5.5209,-5.5329,-5.5628,-5.6008,-5.6406,-5.6974,-5.7363,-5.7812,-5.8441,-5.883,-5.9099,-5.9099,-5.9099,-5.9099,-5.9099,-5.9099,-5.9099,-5.9099,-5.9099,-5.9099,-5.9099,-5.9099,-5.9099,-5.9099,-5.9099,-5.9099,-5.9069,-5.883,-5.859,-5.856,-5.8022,-5.7663,-5.7513,-5.7034,-5.6645,-5.6526,-5.6077,-5.5688,-7.2532,-7.2532,-7.2532,-7.2321,-7.1964,-7.1272,-7.0979,-7.077,-6.8777,-6.7234,-6.6075,-6.4776,-6.3747,-6.3038,-6.3,-6.277,-6.242,-6.2415,-6.2415,-6.2415,-6.2415,-6.2415,-6.2415,-6.2415,-6.2415,-6.2415,-6.2415,-6.2415,-6.2415,-6.2415,-6.1603,-6.008,-5.8626,-5.7881,-5.7881,-5.7881,-5.7881,-5.7881,-5.7881,-5.7881,-5.7881,-5.7881,-5.7273,-5.6089,-5.5784,-5.5108,-5.3856,-5.3585,-5.3518,-5.3518,-5.3518,-5.3518,-5.3518,-5.3518,-5.3518,-5.3484,-5.3278,-5.3332,-5.3705,-5.4168,-5.4051,-5.3238,-5.3533,-5.3596,-5.3144,-5.2382,-5.206,-5.2631,-5.3026,-5.3571,-5.4102,-5.479,-5.5209,-5.5209,-5.5209,-5.5209,-5.5209,-5.5209,-5.5209,-5.5239,-5.5628,-5.6038,-5.6226,-5.6585,-5.7214,-5.8022,-5.856,-5.889,-5.9069,-5.9099,-5.9099,-5.9099,-5.9099,-5.9099,-5.9099,-5.9099,-5.9099,-5.9099,-5.9099,-5.9099,-5.9069,-5.9009,-5.889,-5.877,-5.8291,-5.7962,-5.7842,-5.7334,-5.6974,-5.6855,-5.6376,-5.5957,-5.5927,-5.5598,-5.5239,-7.2532,-7.2532,-7.2532,-7.2321,-7.1927,-7.1304,-7.1012,-7.0806,-6.9346,-6.8046,-6.6707,-6.4986,-6.3747,-6.3076,-6.3,-6.277,-6.2454,-6.2415,-6.2415,-6.2415,-6.2415,-6.2415,-6.2415,-6.2415,-6.2415,-6.2415,-6.2415,-6.2415,-6.2381,-6.2313,-6.1569,-6.008,-5.8626,-5.7881,-5.7881,-5.7881,-5.7881,-5.7881,-5.7881,-5.7881,-5.7881,-5.7881,-5.7509,-5.6731,-5.6055,-5.5344,-5.4532,-5.3856,-5.3518,-5.3518,-5.3518,-5.3518,-5.3518,-5.3518,-5.3518,-5.3551,-5.3748,-5.392,-5.3912,-5.4196,-5.4205,-5.3716,-5.3904,-5.3856,-5.3377,-5.2922,-5.2688,-5.302,-5.3326,-5.3747,-5.4211,-5.482,-5.5179,-5.5209,-5.5209,-5.5209,-5.5209,-5.5209,-5.5209,-5.5209,-5.5299,-5.5508,-5.6017,-5.6278,-5.6765,-5.7752,-5.8052,-5.8411,-5.889,-5.9009,-5.9069,-5.9099,-5.9099,-5.9099,-5.9099,-5.9099,-5.9099,-5.9099,-5.9099,-5.9069,-5.8949,-5.859,-5.8148,-5.8141,-5.7663,-5.7244,-5.7064,-5.6705,-5.6286,-5.6196,-5.5807,-5.5329,-5.5299,-5.5239,-5.5209,-7.2532,-7.2532,-7.2532,-7.2321,-7.1927,-7.1399,-7.1114,-7.0875,-6.952,-6.8187,-6.6883,-6.5474,-6.4161,-6.3,-6.3,-6.277,-6.2381,-6.2415,-6.2415,-6.2415,-6.2415,-6.2415,-6.2415,-6.2415,-6.2415,-6.2415,-6.2415,-6.2415,-6.2245,-6.1501,-6.0689,-6.0013,-5.8626,-5.7881,-5.7881,-5.7881,-5.7881,-5.7881,-5.7881,-5.7881,-5.7881,-5.7881,-5.7543,-5.6867,-5.6528,-5.6021,-5.5277,-5.4532,-5.416,-5.4126,-5.3754,-5.3687,-5.4126,-5.4126,-5.4363,-5.4768,-5.5091,-5.5155,-5.4744,-5.5156,-5.519,-5.4744,-5.4431,-5.4071,-5.3627,-5.353,-5.3591,-5.3741,-5.368,-5.3916,-5.466,-5.5029,-5.5209,-5.5209,-5.5209,-5.5209,-5.5209,-5.5209,-5.5209,-5.5209,-5.5209,-5.5269,-5.5598,-5.5927,-5.6428,-5.6944,-5.7244,-5.7782,-5.8381,-5.853,-5.871,-5.9009,-5.9099,-5.9099,-5.9099,-5.9099,-5.9099,-5.9099,-5.9099,-5.9039,-5.859,-5.8381,-5.8022,-5.7603,-5.6974,-5.6585,-5.6555,-5.6047,-5.5568,-5.5538,-5.5508,-5.5209,-5.5209,-5.5209,-5.5209,-7.2532,-7.2496,-7.2467,-7.2263,-7.1994,-7.1562,-7.1207,-7.0842,-6.9802,-6.861,-6.7305,-6.6174,-6.4823,-6.3536,-6.3178,-6.277,-6.242,-6.2415,-6.2415,-6.2415,-6.2415,-6.2415,-6.2415,-6.2415,-6.2415,-6.2415,-6.2415,-6.2415,-6.2212,-6.0858,-6.008,-5.9877,-5.8626,-5.7881,-5.7881,-5.7881,-5.7881,-5.7881,-5.7881,-5.7881,-5.7881,-5.7881,-5.7645,-5.7137,-5.69,-5.6562,-5.5986,-5.5277,-5.4905,-5.4871,-5.4397,-5.4363,-5.4837,-5.4905,-5.5208,-5.5847,-5.6099,-5.6025,-5.5694,-5.5949,-5.5886,-5.5409,-5.4832,-5.4285,-5.3982,-5.4033,-5.4266,-5.4342,-5.4127,-5.4375,-5.509,-5.5229,-5.5209,-5.5209,-5.5209,-5.5209,-5.5209,-5.5209,-5.5209,-5.5209,-5.5209,-5.5209,-5.5269,-5.5598,-5.6008,-5.6256,-5.6585,-5.7094,-5.7723,-5.8022,-5.8321,-5.877,-5.8949,-5.9099,-5.9099,-5.9099,-5.9099,-5.9039,-5.9009,-5.862,-5.8112,-5.7962,-5.7543,-5.6825,-5.6256,-5.5957,-5.5897,-5.5448,-5.5209,-5.5209,-5.5209,-5.5209,-5.5209,-5.5209,-5.5209,-7.2532,-7.2467,-7.2387,-7.2204,-7.1957,-7.162,-7.1304,-7.0946,-7.0337,-6.9459,-6.8258,-6.7015,-6.5734,-6.449,-6.3463,-6.277,-6.2454,-6.2415,-6.2415,-6.2415,-6.2415,-6.2415,-6.2415,-6.2415,-6.2415,-6.2415,-6.2415,-6.2415,-6.2279,-6.0858,-6.008,-6.0013,-5.8626,-5.7881,-5.7881,-5.7881,-5.7881,-5.7881,-5.7881,-5.7881,-5.7881,-5.7881,-5.7881,-5.7746,-5.7171,-5.6833,-5.6664,-5.6055,-5.5683,-5.5647,-5.5512,-5.5546,-5.5614,-5.5683,-5.5915,-5.6376,-5.6328,-5.6333,-5.652,-5.633,-5.5927,-5.5483,-5.5031,-5.4603,-5.4229,-5.4348,-5.451,-5.4668,-5.4792,-5.5073,-5.543,-5.533,-5.5179,-5.5209,-5.5209,-5.5209,-5.5209,-5.5209,-5.5209,-5.5209,-5.5209,-5.5209,-5.5209,-5.5209,-5.5538,-5.5978,-5.6248,-5.6436,-5.7034,-5.7663,-5.7992,-5.8231,-5.862,-5.9099,-5.9099,-5.9099,-5.9099,-5.8919,-5.856,-5.8112,-5.7693,-5.7244,-5.6675,-5.6137,-5.5718,-5.5418,-5.5269,-5.5209,-5.5209,-5.5209,-5.5209,-5.5209,-5.5209,-5.5209,-5.5209,-7.2532,-7.2467,-7.2321,-7.2174,-7.1988,-7.178,-7.1399,-7.0946,-7.0581,-6.9671,-6.8434,-6.7085,-6.584,-6.4631,-6.3498,-6.2847,-6.2576,-6.2493,-6.2415,-6.2415,-6.2415,-6.2415,-6.2415,-6.2415,-6.2415,-6.2415,-6.2415,-6.2415,-6.2212,-6.0825,-6.008,-5.9844,-5.8626,-5.7881,-5.7881,-5.7881,-5.7881,-5.7881,-5.7881,-5.7881,-5.7881,-5.7881,-5.7881,-5.7881,-5.7645,-5.7509,-5.7509,-5.6799,-5.6393,-5.6427,-5.5952,-5.5953,-5.6393,-5.6867,-5.7133,-5.715,-5.7033,-5.6909,-5.6839,-5.6525,-5.6132,-5.5886,-5.5319,-5.5005,-5.4983,-5.5014,-5.5206,-5.5519,-5.5722,-5.5883,-5.5739,-5.5481,-5.5209,-5.5209,-5.5209,-5.5209,-5.5209,-5.5209,-5.5209,-5.5209,-5.5209,-5.5209,-5.5209,-5.5209,-5.5299,-5.5478,-5.5538,-5.5837,-5.6346,-5.6735,-5.7064,-5.7453,-5.8022,-5.8471,-5.8471,-5.886,-5.9009,-5.859,-5.8118,-5.7573,-5.7064,-5.6705,-5.6166,-5.5748,-5.5299,-5.5239,-5.5209,-5.5209,-5.5209,-5.5209,-5.5209,-5.5209,-5.5209,-5.5209,-5.5209,-7.2532,-7.2504,-7.238,-7.2233,-7.1988,-7.1903,-7.1526,-7.0979,-7.0649,-6.9918,-6.8823,-6.7471,-6.6259,-6.5199,-6.3916,-6.3128,-6.2804,-6.2498,-6.2415,-6.2415,-6.2415,-6.2415,-6.2415,-6.2415,-6.2415,-6.2415,-6.2415,-6.2415,-6.2279,-6.1095,-6.0385,-6.0013,-5.8829,-5.8118,-5.7915,-5.7881,-5.7881,-5.7881,-5.7881,-5.7881,-5.7881,-5.7881,-5.7881,-5.7881,-5.7881,-5.7881,-5.7881,-5.7408,-5.7137,-5.707,-5.6664,-5.6664,-5.7137,-5.7611,-5.7845,-5.7698,-5.7439,-5.7252,-5.7063,-5.668,-5.6323,-5.6086,-5.5564,-5.532,-5.5559,-5.5613,-5.5854,-5.6171,-5.6378,-5.639,-5.6077,-5.5631,-5.528,-5.5229,-5.5209,-5.5209,-5.5209,-5.5209,-5.5209,-5.5209,-5.5209,-5.5209,-5.5209,-5.5209,-5.5209,-5.5209,-5.5209,-5.5418,-5.5748,-5.6077,-5.6338,-5.6735,-5.7363,-5.7723,-5.7782,-5.8022,-5.8471,-5.8171,-5.7513,-5.6944,-5.6526,-5.6137,-5.5777,-5.5359,-5.5209,-5.5209,-5.5209,-5.5209,-5.5209,-5.5209,-5.5209,-5.5209,-5.5209,-5.5209,-5.5209,-7.2532,-7.2496,-7.2496,-7.2321,-7.2018,-7.1988,-7.162,-7.1012,-7.0649,-7.0236,-6.953,-6.8208,-6.7071,-6.619,-6.4683,-6.3683,-6.2992,-6.2576,-6.2415,-6.2415,-6.2415,-6.2415,-6.2415,-6.2415,-6.2415,-6.2415,-6.2415,-6.2415,-6.2347,-6.1569,-6.0825,-6.008,-5.9336,-5.8524,-5.7881,-5.7881,-5.7881,-5.7881,-5.7881,-5.7881,-5.7881,-5.7881,-5.7881,-5.7881,-5.7881,-5.7881,-5.7881,-5.7848,-5.778,-5.7814,-5.778,-5.7848,-5.778,-5.7881,-5.7881,-5.7808,-5.7514,-5.7327,-5.7252,-5.6757,-5.6402,-5.6158,-5.5718,-5.5656,-5.5943,-5.6093,-5.6266,-5.6606,-5.6665,-5.6634,-5.6372,-5.5929,-5.5481,-5.5259,-5.5229,-5.5209,-5.5209,-5.5209,-5.5209,-5.5209,-5.5209,-5.5209,-5.5209,-5.5209,-5.5209,-5.5209,-5.5209,-5.5209,-5.5359,-5.5718,-5.6077,-5.6256,-5.6675,-5.7094,-5.7094,-5.7124,-5.7543,-5.7693,-5.6915,-5.6286,-5.6047,-5.5718,-5.5538,-5.5209,-5.5209,-5.5209,-5.5209,-5.5209,-5.5209,-5.5209,-5.5209,-5.5209,-5.5209,-5.5209,-5.5209,-7.2532,-7.2532,-7.2532,-7.2321,-7.2018,-7.2018,-7.162,-7.1015,-7.075,-7.0375,-6.9672,-6.8425,-6.7322,-6.6297,-6.482,-6.3683,-6.2996,-6.2576,-6.2415,-6.2415,-6.2415,-6.2415,-6.2415,-6.2415,-6.2415,-6.2415,-6.2415,-6.2415,-6.2245,-6.167,-6.0892,-6.0114,-5.937,-5.8626,-5.7949,-5.7881,-5.7881,-5.7881,-5.7881,-5.7881,-5.7881,-5.7881,-5.7881,-5.7881,-5.7881,-5.7881,-5.7881,-5.7881,-5.7881,-5.7881,-5.7881,-5.7881,-5.7881,-5.7881,-5.7881,-5.7881,-5.7662,-5.7439,-5.7289,-5.6987,-5.6641,-5.6389,-5.6319,-5.6602,-5.6862,-5.6885,-5.7091,-5.7447,-5.7276,-5.6892,-5.6585,-5.6145,-5.578,-5.5481,-5.533,-5.5209,-5.5209,-5.5209,-5.5209,-5.5209,-5.5209,-5.5209,-5.5209,-5.5209,-5.5209,-5.5209,-5.5209,-5.5209,-5.5239,-5.5388,-5.5478,-5.5538,-5.6047,-5.6436,-5.6436,-5.6436,-5.6645,-5.6855,-5.6346,-5.5897,-5.5658,-5.5478,-5.5269,-5.5209,-5.5209,-5.5209,-5.5209,-5.5209,-5.5209,-5.5209,-5.5209,-5.5209,-5.5209,-5.5209,-5.5209,-7.2532,-7.2532,-7.2532,-7.2285,-7.2018,-7.2018,-7.162,-7.1012,-7.0781,-7.0374,-6.9743,-6.8777,-6.764,-6.6438,-6.5172,-6.4034,-6.303,-6.2654,-6.2459,-6.242,-6.2415,-6.2415,-6.2415,-6.2415,-6.2415,-6.2415,-6.2415,-6.2415,-6.2381,-6.1907,-6.1332,-6.0554,-5.981,-5.9066,-5.8355,-5.8017,-5.7881,-5.7881,-5.7881,-5.7881,-5.7881,-5.7881,-5.7881,-5.7881,-5.7881,-5.7881,-5.7881,-5.7881,-5.7881,-5.7881,-5.7881,-5.7881,-5.7881,-5.7881,-5.7881,-5.7845,-5.7698,-5.7551,-5.7402,-5.7139,-5.6872,-5.6618,-5.6749,-5.706,-5.7397,-5.7413,-5.7711,-5.8007,-5.7606,-5.7132,-5.6844,-5.6439,-5.6077,-5.578,-5.5381,-5.5229,-5.5209,-5.5209,-5.5209,-5.5209,-5.5209,-5.5209,-5.5209,-5.5209,-5.5209,-5.5209,-5.5209,-5.5209,-5.5209,-5.5209,-5.5209,-5.5239,-5.5508,-5.5748,-5.5807,-5.5807,-5.5858,-5.5867,-5.5807,-5.5568,-5.5359,-5.5329,-5.5209,-5.5209,-5.5209,-5.5209,-5.5209,-5.5209,-5.5209,-5.5209,-5.5209,-5.5209,-5.5209,-5.5209,-5.5119,-7.2532,-7.2532,-7.2532,-7.2321,-7.2018,-7.1988,-7.162,-7.1045,-7.0814,-7.0443,-6.9885,-6.9272,-6.8025,-6.6684,-6.5773,-6.4599,-6.3205,-6.277,-6.2537,-6.242,-6.2415,-6.2415,-6.2415,-6.2415,-6.2415,-6.2415,-6.2415,-6.2415,-6.2381,-6.2313,-6.2009,-6.1197,-6.0486,-5.9742,-5.8964,-5.8287,-5.7983,-5.7881,-5.7881,-5.7881,-5.7881,-5.7881,-5.7881,-5.7881,-5.7881,-5.7881,-5.7881,-5.7881,-5.7881,-5.7881,-5.7881,-5.7881,-5.7881,-5.7881,-5.7881,-5.7881,-5.7735,-5.7625,-5.7514,-5.7252,-5.7015,-5.6951,-5.7146,-5.7331,-5.7729,-5.8031,-5.8154,-5.8286,-5.784,-5.7448,-5.7115,-5.6682,-5.6323,-5.5979,-5.5481,-5.5259,-5.5209,-5.5209,-5.5209,-5.5209,-5.5209,-5.5209,-5.5209,-5.5209,-5.5209,-5.5209,-5.5209,-5.5209,-5.5209,-5.5209,-5.5209,-5.5239,-5.5329,-5.5359,-5.5508,-5.5508,-5.5508,-5.5508,-5.5478,-5.5388,-5.5239,-5.5209,-5.5209,-5.5209,-5.5209,-5.5209,-5.5209,-5.5209,-5.5209,-5.5209,-5.5209,-5.5209,-5.5209,-5.5209,-5.497,-7.2532,-7.2532,-7.2532,-7.2321,-7.2024,-7.1988,-7.1718,-7.1243,-7.0979,-7.0579,-7.0096,-6.9634,-6.8318,-6.6547,-6.5994,-6.4782,-6.3311,-6.277,-6.2576,-6.2454,-6.2415,-6.2415,-6.2415,-6.2415,-6.2415,-6.2415,-6.2415,-6.2415,-6.2415,-6.2415,-6.2042,-6.1332,-6.1061,-6.0283,-5.9167,-5.8829,-5.8423,-5.7949,-5.7881,-5.7881,-5.7881,-5.7881,-5.7881,-5.7881,-5.7881,-5.7881,-5.7881,-5.7881,-5.7881,-5.7881,-5.7881,-5.7881,-5.7881,-5.7881,-5.7881,-5.7881,-5.7845,-5.7735,-5.7588,-5.7398,-5.7372,-5.7709,-5.8012,-5.8372,-5.8801,-5.9091,-5.9061,-5.8837,-5.8303,-5.784,-5.7417,-5.6892,-5.639,-5.578,-5.5431,-5.5259,-5.5209,-5.5209,-5.5209,-5.5209,-5.5209,-5.5209,-5.5209,-5.5209,-5.5209,-5.5209,-5.5209,-5.5209,-5.5209,-5.5209,-5.5209,-5.5209,-5.5239,-5.5209,-5.5239,-5.5239,-5.5239,-5.5269,-5.5269,-5.5269,-5.5209,-5.5209,-5.5209,-5.5209,-5.5209,-5.5209,-5.5209,-5.5209,-5.5209,-5.5209,-5.5209,-5.5209,-5.5209,-5.5179,-5.482,-7.2532,-7.2532,-7.2532,-7.2351,-7.2114,-7.2018,-7.178,-7.1404,-7.1078,-7.0747,-7.0235,-6.946,-6.8218,-6.6659,-6.5833,-6.4663,-6.3254,-6.2923,-6.2693,-6.2537,-6.242,-6.2381,-6.2415,-6.2415,-6.2415,-6.2415,-6.2415,-6.2415,-6.2415,-6.2415,-6.2144,-6.1772,-6.1434,-6.0825,-6.008,-5.9268,-5.8829,-5.8389,-5.8084,-5.7881,-5.7881,-5.7881,-5.7881,-5.7881,-5.7881,-5.7881,-5.7881,-5.7881,-5.7881,-5.7881,-5.7881,-5.7881,-5.7881,-5.7881,-5.7881,-5.7881,-5.7881,-5.7845,-5.7803,-5.782,-5.7997,-5.8302,-5.8741,-5.9218,-5.9413,-5.961,-5.954,-5.9318,-5.8624,-5.8119,-5.7746,-5.7132,-5.6457,-5.5929,-5.5531,-5.536,-5.5229,-5.5209,-5.5209,-5.5209,-5.5209,-5.5209,-5.5209,-5.5209,-5.5209,-5.5209,-5.5209,-5.5209,-5.5209,-5.5209,-5.5209,-5.5209,-5.5209,-5.5209,-5.5209,-5.5209,-5.5209,-5.5209,-5.5209,-5.5209,-5.5209,-5.5209,-5.5209,-5.5209,-5.5209,-5.5209,-5.5209,-5.5209,-5.5209,-5.5209,-5.5209,-5.5209,-5.5209,-5.5179,-5.482,-7.2532,-7.2532,-7.2532,-7.2446,-7.2299,-7.2084,-7.1805,-7.1494,-7.1175,-7.0778,-7.0159,-6.907,-6.7905,-6.6632,-6.5604,-6.447,-6.3302,-6.3076,-6.2847,-6.2615,-6.2459,-6.2415,-6.2415,-6.2415,-6.2415,-6.2415,-6.2415,-6.2415,-6.2415,-6.2415,-6.2415,-6.2178,-6.1704,-6.1366,-6.0892,-5.9945,-5.9302,-5.9032,-5.8457,-5.8152,-5.8084,-5.7983,-5.7881,-5.7881,-5.7881,-5.7881,-5.7881,-5.7881,-5.7881,-5.7881,-5.7881,-5.7881,-5.7881,-5.7881,-5.7881,-5.7881,-5.7881,-5.7915,-5.8082,-5.8403,-5.8757,-5.893,-5.9611,-5.9985,-5.9894,-5.9912,-5.9848,-5.9628,-5.885,-5.8349,-5.7887,-5.7227,-5.6603,-5.6096,-5.578,-5.5531,-5.528,-5.5259,-5.5209,-5.5209,-5.5209,-5.5209,-5.5209,-5.5209,-5.5209,-5.5209,-5.5209,-5.5209,-5.5209,-5.5209,-5.5209,-5.5209,-5.5209,-5.5209,-5.5209,-5.5209,-5.5209,-5.5209,-5.5209,-5.5209,-5.5209,-5.5209,-5.5209,-5.5209,-5.5209,-5.5209,-5.5209,-5.5209,-5.5209,-5.5209,-5.5209,-5.5209,-5.5209,-5.5209,-5.497,-7.2532,-7.2532,-7.2532,-7.2409,-7.2299,-7.2084,-7.1903,-7.1687,-7.1372,-7.0652,-6.9788,-6.9097,-6.7798,-6.6075,-6.5437,-6.4585,-6.3595,-6.3189,-6.2808,-6.2459,-6.242,-6.2415,-6.2415,-6.2415,-6.2415,-6.2415,-6.2415,-6.2415,-6.2415,-6.2415,-6.2415,-6.2347,-6.2178,-6.1873,-6.1298,-6.0926,-6.0452,-5.9877,-5.9133,-5.8795,-5.8626,-5.8254,-5.8017,-5.7949,-5.7881,-5.7881,-5.7881,-5.7881,-5.7881,-5.7881,-5.7881,-5.7881,-5.7881,-5.7881,-5.7881,-5.7915,-5.7949,-5.8152,-5.8656,-5.8811,-5.9199,-6.013,-6.0251,-6.0388,-6.0738,-6.0544,-6.0206,-5.9772,-5.9286,-5.8669,-5.784,-5.7322,-5.6827,-5.639,-5.6077,-5.578,-5.5531,-5.533,-5.5229,-5.5209,-5.5209,-5.5209,-5.5209,-5.5209,-5.5209,-5.5209,-5.5209,-5.5209,-5.5209,-5.5209,-5.5209,-5.5209,-5.5209,-5.5209,-5.5209,-5.5209,-5.5209,-5.5209,-5.5209,-5.5209,-5.5209,-5.5209,-5.5209,-5.5209,-5.5209,-5.5209,-5.5209,-5.5209,-5.5209,-5.5209,-5.5209,-5.5209,-5.5209,-5.5209,-5.482,-7.2532,-7.2532,-7.2532,-7.2438,-7.2351,-7.2204,-7.1835,-7.1332,-7.0951,-7.0202,-6.9196,-6.8442,-6.7296,-6.6004,-6.5233,-6.4422,-6.3777,-6.3227,-6.277,-6.2459,-6.2415,-6.2415,-6.2415,-6.2415,-6.2415,-6.2415,-6.2415,-6.2415,-6.2415,-6.2415,-6.2415,-6.2415,-6.2415,-6.2212,-6.1772,-6.1501,-6.1061,-6.0622,-5.9911,-5.9539,-5.9404,-5.9167,-5.8693,-5.8355,-5.8084,-5.7881,-5.7881,-5.7881,-5.7881,-5.7881,-5.7881,-5.7881,-5.7881,-5.7881,-5.7881,-5.7915,-5.8287,-5.8524,-5.8927,-5.9595,-6.0261,-6.0852,-6.0991,-6.1113,-6.1193,-6.1044,-6.0666,-6.0109,-5.964,-5.9062,-5.798,-5.7495,-5.7067,-5.6585,-5.6225,-5.588,-5.5631,-5.5381,-5.5209,-5.5209,-5.5209,-5.5209,-5.5209,-5.5209,-5.5209,-5.5209,-5.5209,-5.5209,-5.5209,-5.5209,-5.5209,-5.5209,-5.5209,-5.5209,-5.5209,-5.5209,-5.5209,-5.5209,-5.5209,-5.5209,-5.5209,-5.5209,-5.5209,-5.5209,-5.5209,-5.5209,-5.5209,-5.5209,-5.5209,-5.5209,-5.5209,-5.5209,-5.5089,-5.491,-5.4371,-7.2129,-7.2129,-7.2129,-7.2165,-7.21,-7.1919,-7.137,-7.0645,-7.0272,-6.9565,-6.8498,-6.7426,-6.6787,-6.5893,-6.4953,-6.4287,-6.3783,-6.3265,-6.2808,-6.2498,-6.242,-6.2381,-6.2415,-6.2415,-6.2415,-6.2415,-6.2415,-6.2415,-6.2415,-6.2415,-6.2415,-6.2415,-6.2415,-6.2347,-6.2212,-6.1839,-6.1535,-6.1366,-6.0689,-6.0317,-6.0216,-6.008,-5.9641,-5.9201,-5.8761,-5.8457,-5.8457,-5.8423,-5.8321,-5.8254,-5.822,-5.822,-5.8186,-5.8084,-5.8051,-5.8118,-5.8795,-5.9302,-5.9742,-6.0482,-6.1153,-6.1094,-6.1593,-6.173,-6.1506,-6.1252,-6.0919,-6.042,-5.9903,-5.9197,-5.8303,-5.7746,-5.7275,-5.6796,-5.6342,-5.5979,-5.5681,-5.5431,-5.528,-5.5209,-5.5209,-5.5209,-5.5209,-5.5209,-5.5209,-5.5209,-5.5209,-5.5209,-5.5209,-5.5209,-5.5209,-5.5209,-5.5209,-5.5209,-5.5209,-5.5209,-5.5209,-5.5209,-5.5209,-5.5209,-5.5209,-5.5209,-5.5209,-5.5209,-5.5209,-5.5209,-5.5209,-5.5209,-5.5209,-5.5209,-5.5209,-5.5209,-5.494,-5.461,-5.3982,-7.0477,-7.0477,-7.0477,-7.0513,-7.0485,-7.0372,-7.0193,-6.9836,-6.9629,-6.8862,-6.7739,-6.7303,-6.6453,-6.5566,-6.495,-6.4287,-6.371,-6.3227,-6.2885,-6.2615,-6.2498,-6.2415,-6.2415,-6.2415,-6.2415,-6.2415,-6.2415,-6.2415,-6.2415,-6.2415,-6.2415,-6.2415,-6.2415,-6.2415,-6.2381,-6.2245,-6.211,-6.2009,-6.1434,-6.1129,-6.0994,-6.052,-6.0182,-5.9911,-5.9641,-5.9539,-5.9607,-5.9674,-5.9742,-5.9742,-5.9742,-5.9674,-5.9505,-5.9099,-5.893,-5.8964,-5.9505,-6.0148,-6.0655,-6.1061,-6.1637,-6.193,-6.2082,-6.1917,-6.1669,-6.1424,-6.1094,-6.0548,-5.9859,-5.9062,-5.8303,-5.784,-5.7417,-5.6988,-5.6634,-5.6225,-5.5979,-5.5681,-5.5431,-5.528,-5.5229,-5.5209,-5.5209,-5.5209,-5.5209,-5.5209,-5.5209,-5.5209,-5.5209,-5.5209,-5.5209,-5.5209,-5.5209,-5.5209,-5.5209,-5.5209,-5.5209,-5.5209,-5.5209,-5.5209,-5.5209,-5.5209,-5.5209,-5.5209,-5.5209,-5.5209,-5.5209,-5.5209,-5.5209,-5.5209,-5.5209,-5.5209,-5.491,-5.4581,-5.3952,-7.011,-7.011,-7.011,-7.011,-7.011,-7.0017,-6.9657,-6.9149,-6.8903,-6.8239,-6.7336,-6.6844,-6.6288,-6.5483,-6.5013,-6.4393,-6.3675,-6.3189,-6.2885,-6.2693,-6.2498,-6.2415,-6.2415,-6.2415,-6.2415,-6.2415,-6.2415,-6.2415,-6.2415,-6.2415,-6.2415,-6.2415,-6.2415,-6.2415,-6.2415,-6.2381,-6.2415,-6.2279,-6.2042,-6.1839,-6.1806,-6.1129,-6.0757,-6.0655,-6.0351,-6.0114,-6.008,-6.008,-6.008,-6.008,-6.008,-6.008,-6.0114,-6.0182,-6.0013,-5.981,-6.0317,-6.0858,-6.1332,-6.1603,-6.2076,-6.2279,-6.2229,-6.211,-6.1911,-6.1628,-6.126,-6.0591,-5.999,-5.9241,-5.8701,-5.8119,-5.7746,-5.7353,-5.6875,-5.6488,-5.6145,-5.583,-5.5581,-5.5381,-5.531,-5.5259,-5.5209,-5.5209,-5.5209,-5.5209,-5.5209,-5.5209,-5.5209,-5.5209,-5.5209,-5.5209,-5.5209,-5.5209,-5.5209,-5.5209,-5.5209,-5.5209,-5.5209,-5.5209,-5.5209,-5.5209,-5.5209,-5.5209,-5.5209,-5.5209,-5.5209,-5.5209,-5.5209,-5.5209,-5.5209,-5.5149,-5.491,-5.4491,-5.3773,-6.9633,-6.9596,-6.9596,-6.9596,-6.9596,-6.9596,-6.9146,-6.8531,-6.8252,-6.7658,-6.6829,-6.6457,-6.6057,-6.5542,-6.5046,-6.4428,-6.3673,-6.3265,-6.2923,-6.277,-6.2498,-6.2415,-6.2415,-6.2415,-6.2415,-6.2415,-6.2415,-6.2415,-6.2415,-6.2415,-6.2415,-6.2415,-6.2415,-6.2415,-6.2415,-6.2415,-6.2415,-6.2415,-6.2415,-6.2415,-6.2245,-6.1873,-6.1535,-6.1501,-6.0892,-6.0622,-6.0757,-6.0757,-6.0757,-6.0723,-6.0689,-6.0622,-6.0689,-6.1163,-6.1197,-6.0791,-6.1197,-6.1434,-6.167,-6.1975,-6.2313,-6.2381,-6.2415,-6.2229,-6.1997,-6.1676,-6.1301,-6.0591,-6.0033,-5.9596,-5.9107,-5.8532,-5.8072,-5.7653,-5.7132,-5.6682,-5.639,-5.6047,-5.5731,-5.5531,-5.536,-5.5259,-5.5209,-5.5209,-5.5209,-5.5209,-5.5209,-5.5209,-5.5209,-5.5209,-5.5209,-5.5209,-5.5209,-5.5209,-5.5209,-5.5209,-5.5209,-5.5209,-5.5209,-5.5209,-5.5209,-5.5209,-5.5209,-5.5209,-5.5209,-5.5209,-5.5209,-5.5209,-5.5209,-5.5209,-5.5209,-5.5029,-5.467,-5.4102,-5.3384,-6.8008,-6.7981,-6.7981,-6.7981,-6.8017,-6.8054,-6.7899,-6.7689,-6.7513,-6.7149,-6.6786,-6.6457,-6.6119,-6.5607,-6.4808,-6.4358,-6.3965,-6.3377,-6.3,-6.2885,-6.2576,-6.2454,-6.2415,-6.2415,-6.2415,-6.2415,-6.2415,-6.2415,-6.2415,-6.2415,-6.2415,-6.2415,-6.2415,-6.2415,-6.2415,-6.2415,-6.2415,-6.2415,-6.2415,-6.2415,-6.2381,-6.2279,-6.2212,-6.2144,-6.2042,-6.1907,-6.1839,-6.1839,-6.1873,-6.1941,-6.2042,-6.2076,-6.2144,-6.2178,-6.2245,-6.2144,-6.2212,-6.2245,-6.2212,-6.2313,-6.2415,-6.2415,-6.2415,-6.2263,-6.203,-6.1676,-6.126,-6.076,-6.0249,-5.9859,-5.9464,-5.876,-5.8303,-5.7887,-5.7464,-5.6988,-5.6651,-5.6244,-5.5929,-5.5631,-5.5481,-5.528,-5.5209,-5.5209,-5.5209,-5.5209,-5.5179,-5.5209,-5.5209,-5.5209,-5.528,-5.528,-5.533,-5.528,-5.533,-5.528,-5.5229,-5.5229,-5.5179,-5.5179,-5.5209,-5.5209,-5.5209,-5.5209,-5.5179,-5.5179,-5.5209,-5.5209,-5.5209,-5.5119,-5.5059,-5.476,-5.4371,-5.3683,-5.2935,-6.7687,-6.7687,-6.7687,-6.7687,-6.7687,-6.7687,-6.766,-6.7552,-6.7322,-6.7126,-6.6925,-6.6482,-6.6025,-6.5445,-6.474,-6.4323,-6.4073,-6.3489,-6.3114,-6.2962,-6.2693,-6.2498,-6.2454,-6.2415,-6.2415,-6.2415,-6.2415,-6.2415,-6.2415,-6.2415,-6.2415,-6.2415,-6.2415,-6.2415,-6.2415,-6.2415,-6.2415,-6.2415,-6.2415,-6.2415,-6.2415,-6.2415,-6.2415,-6.2415,-6.2415,-6.2415,-6.2415,-6.2415,-6.2415,-6.2415,-6.2415,-6.2415,-6.2381,-6.2381,-6.2381,-6.2381,-6.2381,-6.2381,-6.2381,-6.2415,-6.2415,-6.2415,-6.2381,-6.2268,-6.1997,-6.175,-6.1383,-6.0961,-6.0506,-6.012,-5.9684,-5.9062,-5.8578,-5.8165,-5.77,-5.7322,-5.6892,-5.6488,-5.6127,-5.588,-5.5581,-5.5481,-5.533,-5.528,-5.528,-5.5209,-5.5229,-5.5229,-5.5229,-5.5209,-5.533,-5.5431,-5.5461,-5.5481,-5.5481,-5.5481,-5.533,-5.528,-5.5229,-5.5229,-5.5179,-5.5209,-5.528,-5.5229,-5.5259,-5.5259,-5.5229,-5.5179,-5.5179,-5.5029,-5.488,-5.4461,-5.3982,-5.3114,-5.2396,-6.7687,-6.7687,-6.7687,-6.7687,-6.7687,-6.7687,-6.7687,-6.766,-6.735,-6.721,-6.704,-6.6572,-6.5927,-6.5346,-6.4843,-6.4463,-6.4144,-6.3637,-6.3265,-6.3,-6.277,-6.2576,-6.2459,-6.2415,-6.2415,-6.2415,-6.2415,-6.2415,-6.2415,-6.2415,-6.2415,-6.2415,-6.2415,-6.2415,-6.2415,-6.2415,-6.2415,-6.2415,-6.2415,-6.2415,-6.2415,-6.2415,-6.2415,-6.2415,-6.2415,-6.2415,-6.2415,-6.2415,-6.2415,-6.2415,-6.2415,-6.2415,-6.2415,-6.2415,-6.2415,-6.2415,-6.2415,-6.2415,-6.2415,-6.2415,-6.2415,-6.2415,-6.2381,-6.2302,-6.2037,-6.183,-6.1547,-6.1169,-6.0717,-6.0292,-5.9903,-5.9452,-5.8972,-5.8518,-5.798,-5.7606,-5.718,-5.6779,-5.6421,-5.6127,-5.588,-5.5681,-5.5581,-5.5481,-5.5381,-5.5229,-5.5229,-5.528,-5.533,-5.5381,-5.5481,-5.5681,-5.5681,-5.5681,-5.5681,-5.5631,-5.5531,-5.5431,-5.5381,-5.5381,-5.5431,-5.5481,-5.5531,-5.5481,-5.533,-5.5431,-5.5581,-5.5381,-5.5119,-5.482,-5.4461,-5.4042,-5.3473,-5.2636,-5.2055,-6.7687,-6.7687,-6.7687,-6.7687,-6.7687,-6.7687,-6.7687,-6.7687,-6.735,-6.721,-6.7097,-6.6572,-6.599,-6.5477,-6.5046,-6.4637,-6.418,-6.3783,-6.3377,-6.3038,-6.2808,-6.2615,-6.2493,-6.2415,-6.2415,-6.2415,-6.2415,-6.2415,-6.2415,-6.2415,-6.2415,-6.2415,-6.2415,-6.2415,-6.2415,-6.2415,-6.2415,-6.2415,-6.2415,-6.2415,-6.2415,-6.2415,-6.2415,-6.2415,-6.2415,-6.2415,-6.2415,-6.2415,-6.2415,-6.2415,-6.2415,-6.2415,-6.2415,-6.2415,-6.2415,-6.2415,-6.2415,-6.2415,-6.2415,-6.2415,-6.2415,-6.2415,-6.2381,-6.2302,-6.2076,-6.187,-6.1588,-6.1383,-6.0969,-6.0633,-6.0249,-5.9935,-5.9331,-5.8927,-5.8427,-5.7933,-5.7464,-5.6988,-5.6634,-5.6421,-5.6176,-5.5929,-5.583,-5.5731,-5.5631,-5.5481,-5.5531,-5.5581,-5.5731,-5.578,-5.588,-5.5979,-5.5979,-5.5979,-5.5979,-5.5929,-5.583,-5.578,-5.5731,-5.578,-5.588,-5.588,-5.578,-5.578,-5.5731,-5.583,-5.5819,-5.545,-5.504,-5.4481,-5.4012,-5.356,-5.3008,-5.2227,-5.19,-6.7687,-6.7687,-6.7687,-6.7687,-6.7687,-6.7687,-6.7687,-6.766,-6.747,-6.7219,-6.6961,-6.6482,-6.599,-6.5542,-6.5114,-6.4707,-6.4216,-6.3963,-6.3489,-6.3152,-6.2885,-6.2693,-6.2537,-6.2415,-6.2415,-6.2415,-6.2415,-6.2415,-6.2415,-6.2415,-6.2415,-6.2415,-6.2415,-6.2415,-6.2415,-6.2415,-6.2415,-6.2415,-6.2415,-6.2415,-6.2415,-6.2415,-6.2415,-6.2415,-6.2415,-6.2415,-6.2415,-6.2415,-6.2415,-6.2415,-6.2415,-6.2415,-6.2415,-6.2415,-6.2415,-6.2415,-6.2415,-6.2415,-6.2415,-6.2415,-6.2415,-6.2415,-6.2381,-6.2341,-6.2189,-6.203,-6.183,-6.1547,-6.1177,-6.0877,-6.0548,-6.0066,-5.954,-5.9241,-5.8837,-5.8303,-5.7793,-5.7275,-5.6892,-5.6634,-5.6421,-5.6176,-5.6077,-5.5979,-5.588,-5.578,-5.583,-5.588,-5.6077,-5.6176,-5.6274,-5.6372,-5.6342,-5.6342,-5.6342,-5.6274,-5.6176,-5.6176,-5.6127,-5.6176,-5.6274,-5.6028,-5.5929,-5.6028,-5.6047,-5.6066,-5.5895,-5.5376,-5.4956,-5.4526,-5.3803,-5.3054,-5.245,-5.186,-5.1832,-6.7687,-6.7687,-6.7687,-6.7687,-6.7687,-6.7687,-6.7687,-6.766,-6.7552,-6.7247,-6.6845,-6.6452,-6.6052,-6.564,-6.5247,-6.4775,-6.4358,-6.4037,-6.3563,-6.3227,-6.2962,-6.277,-6.2537,-6.2415,-6.2415,-6.2415,-6.2415,-6.2415,-6.2415,-6.2415,-6.2415,-6.2415,-6.2415,-6.2415,-6.2415,-6.2415,-6.2415,-6.2415,-6.2415,-6.2415,-6.2415,-6.2415,-6.2415,-6.2415,-6.2415,-6.2415,-6.2415,-6.2415,-6.2415,-6.2415,-6.2415,-6.2415,-6.2415,-6.2415,-6.2415,-6.2415,-6.2415,-6.2415,-6.2415,-6.2415,-6.2415,-6.2415,-6.2415,-6.2415,-6.2341,-6.215,-6.1877,-6.179,-6.1424,-6.1086,-6.0802,-6.041,-5.9892,-5.9596,-5.9152,-5.8624,-5.8119,-5.7653,-5.7227,-5.6892,-5.6682,-5.6537,-5.647,-5.639,-5.6293,-5.6176,-5.6077,-5.6244,-5.6488,-5.6585,-5.6634,-5.673,-5.6827,-5.6779,-5.673,-5.673,-5.6779,-5.6827,-5.6779,-5.6682,-5.6634,-5.639,-5.639,-5.6634,-5.6651,-5.6396,-5.601,-5.552,-5.5036,-5.4613,-5.3672,-5.2623,-5.2364,-5.1924,-5.2032,-6.7687,-6.7687,-6.7687,-6.7687,-6.7687,-6.7687,-6.7687,-6.7687,-6.7524,-6.7303,-6.6961,-6.6512,-6.6177,-6.5895,-6.5445,-6.4911,-6.4463,-6.4216,-6.3783,-6.3227,-6.3,-6.277,-6.2537,-6.2454,-6.2415,-6.2415,-6.2415,-6.2415,-6.2415,-6.2415,-6.2415,-6.2415,-6.2415,-6.2415,-6.2415,-6.2415,-6.2415,-6.2415,-6.2415,-6.2415,-6.2415,-6.2415,-6.2415,-6.2415,-6.2415,-6.2415,-6.2415,-6.2415,-6.2415,-6.2415,-6.2415,-6.2415,-6.2415,-6.2415,-6.2415,-6.2415,-6.2415,-6.2415,-6.2415,-6.2415,-6.2415,-6.2415,-6.2415,-6.2415,-6.2341,-6.2189,-6.1997,-6.1877,-6.1628,-6.1334,-6.1086,-6.0793,-6.0368,-5.9859,-5.9419,-5.8972,-5.8518,-5.798,-5.7606,-5.7275,-5.7132,-5.7019,-5.6923,-5.6875,-5.6779,-5.6634,-5.647,-5.6585,-5.6923,-5.6971,-5.7019,-5.7067,-5.7163,-5.7163,-5.7163,-5.7306,-5.7401,-5.7401,-5.7353,-5.7163,-5.7115,-5.7067,-5.7163,-5.7353,-5.7149,-5.6848,-5.6262,-5.569,-5.4993,-5.4159,-5.3099,-5.2246,-5.2078,-5.2109,-5.2337,-6.7687,-6.7687,-6.7687,-6.7687,-6.7687,-6.7687,-6.7687,-6.766,-6.7405,-6.7238,-6.704,-6.6542,-6.6177,-6.5927,-6.5439,-6.4976,-6.4567,-6.4287,-6.382,-6.338,-6.3117,-6.2847,-6.2615,-6.2493,-6.2415,-6.2415,-6.2415,-6.2415,-6.2415,-6.2415,-6.2415,-6.2415,-6.2415,-6.2415,-6.2415,-6.2415,-6.2415,-6.2415,-6.2415,-6.2415,-6.2415,-6.2415,-6.2415,-6.2415,-6.2415,-6.2415,-6.2415,-6.2415,-6.2415,-6.2415,-6.2415,-6.2415,-6.2415,-6.2415,-6.2415,-6.2415,-6.2415,-6.2415,-6.2415,-6.2415,-6.2415,-6.2415,-6.2415,-6.2415,-6.2381,-6.2341,-6.2189,-6.2037,-6.187,-6.1588,-6.1342,-6.1086,-6.0708,-6.0282,-5.9816,-5.9363,-5.8837,-5.8349,-5.7933,-5.7731,-5.7543,-5.7448,-5.7353,-5.7448,-5.7401,-5.7401,-5.7258,-5.7163,-5.737,-5.7353,-5.7353,-5.7353,-5.7401,-5.7448,-5.7543,-5.7731,-5.7778,-5.7731,-5.759,-5.7401,-5.7448,-5.7684,-5.7637,-5.7637,-5.7496,-5.7246,-5.6387,-5.5482,-5.4521,-5.363,-5.2959,-5.2639,-5.2608,-5.2743,-5.2877,-6.6843,-6.6843,-6.688,-6.688,-6.6916,-6.7136,-6.7136,-6.689,-6.6564,-6.6427,-6.6223,-6.5829,-6.5466,-6.5161,-6.4824,-6.4369,-6.4001,-6.3834,-6.3549,-6.322,-6.3087,-6.2851,-6.2654,-6.2498,-6.2454,-6.2415,-6.2415,-6.2415,-6.2415,-6.2415,-6.2415,-6.2415,-6.2415,-6.2415,-6.2415,-6.2415,-6.2415,-6.2415,-6.2415,-6.2415,-6.2415,-6.2415,-6.2415,-6.2415,-6.2415,-6.2415,-6.2415,-6.2415,-6.2415,-6.2415,-6.2415,-6.2415,-6.2415,-6.2415,-6.2415,-6.2415,-6.2415,-6.2415,-6.2415,-6.2415,-6.2415,-6.2415,-6.2415,-6.2415,-6.2415,-6.2381,-6.2302,-6.2189,-6.207,-6.183,-6.1547,-6.1334,-6.1002,-6.0548,-6.012,-5.964,-5.9274,-5.8792,-5.8395,-5.815,-5.8011,-5.7918,-5.7871,-5.7965,-5.8011,-5.8058,-5.815,-5.8011,-5.7887,-5.7871,-5.7871,-5.7918,-5.7965,-5.8104,-5.815,-5.8197,-5.8197,-5.8058,-5.7965,-5.7871,-5.8058,-5.8289,-5.815,-5.7917,-5.7757,-5.733,-5.6203,-5.5265,-5.4467,-5.3972,-5.3577,-5.3321,-5.3233,-5.3277,-5.3365,-6.5338,-6.5338,-6.5338,-6.5411,-6.5485,-6.6109,-6.5999,-6.5349,-6.5181,-6.5011,-6.4849,-6.4698,-6.4491,-6.4016,-6.3525,-6.3187,-6.2904,-6.2995,-6.2752,-6.253,-6.2507,-6.2552,-6.2489,-6.2329,-6.2285,-6.2347,-6.2415,-6.2415,-6.2415,-6.2415,-6.2415,-6.2415,-6.2415,-6.2415,-6.2415,-6.2415,-6.2415,-6.2415,-6.2415,-6.2415,-6.2415,-6.2415,-6.2415,-6.2415,-6.2415,-6.2415,-6.2415,-6.2415,-6.2415,-6.2415,-6.2415,-6.2415,-6.2415,-6.2415,-6.2415,-6.2415,-6.2415,-6.2415,-6.2415,-6.2415,-6.2415,-6.2415,-6.2415,-6.2415,-6.2415,-6.2415,-6.2341,-6.2302,-6.2189,-6.1951,-6.175,-6.1465,-6.1219,-6.0802,-6.0378,-5.999,-5.9673,-5.9241,-5.8927,-5.8701,-5.8564,-5.8518,-5.8487,-5.861,-5.8655,-5.885,-5.894,-5.894,-5.876,-5.8473,-5.8518,-5.861,-5.8701,-5.8792,-5.8837,-5.8655,-5.861,-5.8473,-5.861,-5.861,-5.8792,-5.8837,-5.8701,-5.8464,-5.8103,-5.7388,-5.6157,-5.5245,-5.4528,-5.4146,-5.4017,-5.3888,-5.3726,-5.364,-5.3683,-6.5338,-6.5338,-6.5338,-6.5338,-6.5264,-6.4934,-6.4971,-6.5238,-6.5071,-6.4938,-6.4776,-6.4537,-6.4072,-6.3866,-6.3541,-6.3128,-6.2785,-6.2498,-6.2264,-6.2055,-6.1723,-6.1807,-6.1783,-6.183,-6.1946,-6.2178,-6.2313,-6.2313,-6.2381,-6.2381,-6.2415,-6.2415,-6.2415,-6.2415,-6.2415,-6.2415,-6.2415,-6.2415,-6.2415,-6.2415,-6.2415,-6.2415,-6.2415,-6.2415,-6.2415,-6.2415,-6.2415,-6.2415,-6.2415,-6.2415,-6.2415,-6.2415,-6.2415,-6.2415,-6.2415,-6.2415,-6.2415,-6.2415,-6.2415,-6.2415,-6.2415,-6.2415,-6.2415,-6.2415,-6.2415,-6.2415,-6.2415,-6.2341,-6.2302,-6.211,-6.1911,-6.1669,-6.1383,-6.1011,-6.0633,-6.0292,-6.0022,-5.9684,-5.9331,-5.9152,-5.9062,-5.9107,-5.9152,-5.9152,-5.9241,-5.952,-5.9696,-5.9652,-5.9596,-5.9241,-5.9107,-5.9241,-5.9241,-5.9286,-5.9107,-5.8972,-5.8927,-5.8927,-5.9139,-5.9274,-5.9241,-5.9241,-5.9241,-5.8824,-5.8192,-5.7194,-5.6039,-5.5304,-5.4854,-5.4697,-5.4603,-5.4401,-5.4242,-5.4157,-5.42,-6.4347,-6.431,-6.431,-6.431,-6.4211,-6.3796,-6.3906,-6.4248,-6.4171,-6.4041,-6.3829,-6.363,-6.3362,-6.2925,-6.2594,-6.2261,-6.1888,-6.1724,-6.1567,-6.1294,-6.0832,-6.1092,-6.1177,-6.1053,-6.1066,-6.1467,-6.1806,-6.1873,-6.2042,-6.2313,-6.2415,-6.2415,-6.2415,-6.2415,-6.2415,-6.2415,-6.2415,-6.2415,-6.2415,-6.2415,-6.2415,-6.2415,-6.2415,-6.2415,-6.2415,-6.2415,-6.2415,-6.2415,-6.2415,-6.2415,-6.2415,-6.2415,-6.2415,-6.2415,-6.2415,-6.2415,-6.2415,-6.2415,-6.2415,-6.2415,-6.2415,-6.2415,-6.2415,-6.2415,-6.2415,-6.2415,-6.2415,-6.2381,-6.2341,-6.2302,-6.207,-6.187,-6.1547,-6.1252,-6.0961,-6.0666,-6.0335,-6.0076,-5.9859,-5.964,-5.9596,-5.9684,-5.9684,-5.9728,-5.9772,-5.999,-6.0076,-6.012,-6.0076,-5.9903,-5.9772,-5.9816,-5.9728,-5.9684,-5.9508,-5.9419,-5.9508,-5.9596,-5.9728,-5.9772,-5.9696,-5.9598,-5.9512,-5.8885,-5.8097,-5.7096,-5.614,-5.5771,-5.5401,-5.5269,-5.5228,-5.5196,-5.4998,-5.479,-5.4874,-6.2842,-6.2879,-6.2805,-6.2927,-6.2842,-6.2879,-6.2915,-6.2805,-6.2927,-6.2702,-6.2532,-6.2443,-6.2268,-6.1975,-6.1745,-6.1355,-6.1105,-6.0982,-6.0831,-6.0597,-6.0248,-6.0369,-6.0427,-6.0272,-6.0287,-6.0419,-6.0757,-6.1298,-6.1501,-6.1839,-6.2178,-6.2381,-6.2415,-6.2415,-6.2415,-6.2415,-6.2415,-6.2415,-6.2415,-6.2415,-6.2415,-6.2415,-6.2415,-6.2415,-6.2415,-6.2415,-6.2415,-6.2415,-6.2415,-6.2415,-6.2415,-6.2415,-6.2415,-6.2415,-6.2415,-6.2415,-6.2415,-6.2415,-6.2415,-6.2415,-6.2415,-6.2415,-6.2415,-6.2415,-6.2415,-6.2415,-6.2415,-6.2415,-6.2381,-6.2341,-6.215,-6.203,-6.175,-6.1506,-6.126,-6.0969,-6.0708,-6.0378,-6.0163,-6.0033,-6.0033,-6.0076,-6.0206,-6.0249,-6.0378,-6.0463,-6.0591,-6.0633,-6.0591,-6.0506,-6.0335,-6.0292,-6.012,-6.0033,-6.0076,-6.0033,-6.0163,-6.0249,-6.0292,-6.0292,-6.0206,-5.9987,-5.9821,-5.9039,-5.8121,-5.729,-5.6474,-5.6115,-5.5806,-5.5846,-5.5846,-5.6006,-5.5846,-5.5531,-5.5483,-6.2805,-6.2805,-6.2805,-6.2805,-6.2805,-6.2805,-6.2805,-6.2805,-6.2805,-6.2629,-6.2423,-6.2381,-6.2114,-6.1615,-6.153,-6.1182,-6.0715,-6.0448,-6.0161,-5.98,-5.9493,-5.9583,-5.9714,-5.9488,-5.9543,-6.0013,-6.0385,-6.0689,-6.1129,-6.1501,-6.1873,-6.2279,-6.2245,-6.2144,-6.2279,-6.2279,-6.2313,-6.2381,-6.2415,-6.2415,-6.2415,-6.2415,-6.2415,-6.2415,-6.2415,-6.2415,-6.2415,-6.2415,-6.2415,-6.2415,-6.2415,-6.2415,-6.2415,-6.2415,-6.2415,-6.2415,-6.2415,-6.2415,-6.2415,-6.2415,-6.2415,-6.2415,-6.2415,-6.2415,-6.2415,-6.2415,-6.2415,-6.2415,-6.2381,-6.2341,-6.2302,-6.211,-6.1957,-6.1716,-6.1547,-6.126,-6.1044,-6.076,-6.0506,-6.0463,-6.0463,-6.0548,-6.0675,-6.0802,-6.1002,-6.1136,-6.1342,-6.1383,-6.1342,-6.1219,-6.0844,-6.0717,-6.042,-6.0378,-6.0506,-6.0591,-6.0675,-6.0633,-6.0548,-6.0591,-6.0633,-6.0553,-6.0331,-5.9185,-5.8207,-5.7606,-5.7014,-5.629,-5.6086,-5.6244,-5.6323,-5.6369,-5.648,-5.6211,-5.6093,-6.2805,-6.2805,-6.2805,-6.2805,-6.2805,-6.2805,-6.2805,-6.2805,-6.2805,-6.2629,-6.2433,-6.2381,-6.2114,-6.1644,-6.1623,-6.1211,-6.064,-6.0266,-6.0019,-5.9488,-5.8944,-5.887,-5.8859,-5.8776,-5.8733,-5.9099,-5.9539,-5.9979,-6.0655,-6.0791,-6.1028,-6.14,-6.1434,-6.1603,-6.1806,-6.1941,-6.211,-6.2381,-6.2381,-6.2415,-6.2415,-6.2415,-6.2415,-6.2415,-6.2415,-6.2415,-6.2415,-6.2415,-6.2415,-6.2415,-6.2415,-6.2415,-6.2415,-6.2415,-6.2415,-6.2415,-6.2415,-6.2415,-6.2415,-6.2415,-6.2415,-6.2415,-6.2415,-6.2415,-6.2415,-6.2415,-6.2415,-6.2415,-6.2415,-6.2381,-6.2381,-6.2229,-6.211,-6.1877,-6.1797,-6.1595,-6.1465,-6.126,-6.1136,-6.1136,-6.1136,-6.1136,-6.126,-6.126,-6.1383,-6.1424,-6.1669,-6.1709,-6.1709,-6.179,-6.1424,-6.1177,-6.0969,-6.0928,-6.1136,-6.1136,-6.1136,-6.1053,-6.0886,-6.1053,-6.1177,-6.1144,-6.0771,-5.9761,-5.8925,-5.8376,-5.7707,-5.6888,-5.6636,-5.6796,-5.6757,-5.6757,-5.6796,-5.6834,-5.6757,-6.2805,-6.2805,-6.2805,-6.2805,-6.2805,-6.2805,-6.2805,-6.2805,-6.278,-6.2629,-6.2433,-6.2433,-6.2087,-6.1728,-6.1559,-6.1093,-6.0671,-6.0266,-5.9914,-5.9453,-5.884,-5.8699,-5.845,-5.8201,-5.8191,-5.8287,-5.866,-5.9302,-5.9945,-6.0013,-6.0013,-6.0047,-6.0216,-6.0452,-6.096,-6.1332,-6.1603,-6.2042,-6.2212,-6.2381,-6.2415,-6.2415,-6.2415,-6.2415,-6.2415,-6.2415,-6.2415,-6.2415,-6.2415,-6.2415,-6.2415,-6.2415,-6.2415,-6.2415,-6.2415,-6.2415,-6.2415,-6.2415,-6.2415,-6.2415,-6.2415,-6.2415,-6.2415,-6.2415,-6.2415,-6.2415,-6.2415,-6.2415,-6.2415,-6.2415,-6.2381,-6.2341,-6.2189,-6.2076,-6.1997,-6.1877,-6.179,-6.1669,-6.1669,-6.1628,-6.1628,-6.1628,-6.1669,-6.1709,-6.175,-6.175,-6.179,-6.179,-6.183,-6.1951,-6.183,-6.175,-6.1628,-6.1669,-6.1669,-6.1588,-6.1465,-6.1465,-6.1342,-6.1547,-6.1669,-6.1506,-6.1165,-6.0585,-5.9816,-5.9003,-5.8269,-5.7492,-5.7377,-5.7214,-5.7139,-5.7025,-5.7101,-5.7139,-5.7252,-6.2805,-6.2805,-6.2805,-6.2805,-6.2805,-6.2805,-6.2805,-6.2805,-6.278,-6.2629,-6.2449,-6.2344,-6.2114,-6.1587,-6.1587,-6.1241,-6.0671,-6.0297,-5.9914,-5.9486,-5.8909,-5.8631,-5.8384,-5.8099,-5.7954,-5.7983,-5.8186,-5.8524,-5.9099,-5.9235,-5.9505,-5.9911,-5.9979,-6.0148,-6.0317,-6.0757,-6.1231,-6.1637,-6.2076,-6.2279,-6.2381,-6.2415,-6.2415,-6.2415,-6.2415,-6.2415,-6.2415,-6.2415,-6.2415,-6.2415,-6.2415,-6.2415,-6.2415,-6.2415,-6.2415,-6.2415,-6.2415,-6.2415,-6.2415,-6.2415,-6.2415,-6.2415,-6.2415,-6.2415,-6.2415,-6.2415,-6.2415,-6.2415,-6.2415,-6.2415,-6.2381,-6.2381,-6.2302,-6.2229,-6.215,-6.1991,-6.183,-6.179,-6.175,-6.175,-6.175,-6.175,-6.179,-6.183,-6.1951,-6.1991,-6.2144,-6.2144,-6.2144,-6.2183,-6.2223,-6.2183,-6.2183,-6.1984,-6.1783,-6.175,-6.1709,-6.1709,-6.175,-6.183,-6.183,-6.1709,-6.1341,-6.1025,-6.0181,-5.9298,-5.86,-5.8039,-5.7566,-5.7364,-5.7327,-5.7289,-5.7364,-5.7439,-5.7514]},{"header":{"parameterUnit":"m.s-1","parameterCategory":1,"la1":31.0,"la2":29.5877,"lo1":-88.7671,"lo2":-86.6584,"dy":0.0162,"dx":0.0185,"nx":115,"ny":88,"refTime":"2024-05-22T00:00:00:Z","depth":0,"parameterNumber":3,"parameterNumberName":"V-component_of_WINDS"},"data":[0.0,0.0,0.0,0.0,0.0,0.0,0.0,0.0,0.0,0.0,0.0,0.0,0.0,0.0,0.0,0.0,0.0,0.0,0.0,0.0,0.0,0.0,0.0,0.0,0.0,0.0,0.0,0.0,0.0,0.0,0.0,0.0,0.0,0.0,0.0,0.0,0.0,0.0,0.0,0.0,0.0,0.0,0.0,0.0,0.0,0.0,0.0,0.0,0.0,0.0,0.0,0.0,0.0,0.0,0.0,0.0,0.0,0.0,0.0,0.0,0.0,0.0,0.0,0.0,0.0,0.0,0.0,0.0,0.0,0.0,0.0,0.0,0.0,0.0,0.0,0.0,0.0,0.0,0.0,0.0,0.0,0.0,0.0,0.0,0.0,0.0,0.0,0.0,0.0,0.0,0.0,0.0,0.0,0.0,0.0,0.0,0.0,0.0,0.0,0.0,0.0,0.0,0.0,0.0,0.0,0.0,0.0,0.0,0.0,0.0,0.0,0.0,0.0,0.0,0.0,0.0,0.0,0.0,0.0,0.0,0.0,0.0,0.0,0.0,0.0,0.0,0.0,0.0,0.0,0.0,0.0,0.0,0.0,0.0,0.0,0.0,0.0,0.0,0.0,0.0,0.0,0.0,0.0,0.0,0.0,0.0,0.0,0.0,0.0,0.0,0.0,0.0,0.0,0.0,0.0,0.0,0.0,0.0,0.0,0.0,0.0,0.0,0.0,0.0,0.0,0.0,0.0,0.0,0.0,0.0,0.0,0.0,0.0,0.0,0.0,0.0,0.0,0.0,0.0,0.0,0.0,0.0,0.0,0.0,0.0,0.0,0.0,0.0,0.0,0.0,0.0,0.0,0.0,0.0,0.0,0.0,0.0,0.0,0.0,0.0,0.0,0.0,0.0,0.0,0.0,0.0,0.0,0.0,0.0,0.0,0.0,0.0,0.0,0.0,0.0,0.0,0.0,0.0,0.0,0.0,0.0,0.0,0.0,0.0,0.0,0.0,0.0,0.0,0.0,0.0,0.0,0.0,0.0,0.0,0.0,0.0,0.0,0.0,0.0,0.0,0.0,0.0,0.0,0.0,0.0,0.0,0.0,0.0,0.0,0.0,0.0,0.0,0.0,0.0,0.0,0.0,0.0,0.0,0.0,0.0,0.0,0.0,0.0,0.0,0.0,0.0,0.0,0.0,0.0,0.0,0.0,0.0,0.0,0.0,0.0,0.0,0.0,0.0,0.0,0.0,0.0,0.0,0.0,0.0,0.0,0.0,0.0,0.0,0.0,0.0,0.0,0.0,0.0,0.0,0.0,0.0,0.0,0.0,0.0,0.0,0.0,0.0,0.0,0.0,0.0,0.0,0.0,0.0,0.0,0.0,0.0,0.0,0.0,0.0,0.0,0.0,0.0,0.0,0.0,0.0,0.0,0.0,0.0,0.0,0.0,0.0,0.0,0.0,0.0,0.0,0.0,0.0,0.0,0.0,0.0,0.0,0.0,0.0,0.0,0.0,0.0,0.0,0.0,0.0,0.0,0.0,0.0,0.0,0.0,0.0,0.0,0.0,0.0,0.0,0.0,0.0,0.0,0.0,0.0,0.0,0.0,0.0,0.0,0.0,0.0,0.0,0.0,0.0,0.0,0.0,0.0,0.0,0.0,0.0,0.0,0.0,0.0,0.0,0.0,0.0,0.0,0.0,0.0,0.0,0.0,0.0,0.0,0.0,0.0,0.0,0.0,0.0,0.0,0.0,0.0,0.0,0.0,0.0,0.0,0.0,0.0,0.0,0.0,0.0,0.0,0.0,0.0,0.0,0.0,0.0,0.0,0.0,0.0,0.0,0.0,0.0,0.0,0.0,0.0,0.0,0.0,0.0,0.0,0.0,0.0,0.0,0.0,0.0,0.0,0.0,0.0,0.0,0.0,0.0,0.0,0.0,0.0,0.0,0.0,0.0,0.0,0.0,0.0,0.0,0.0,0.0,0.0,0.0,0.0,0.0,0.0,0.0,0.0,0.0,0.0,0.0,0.0,0.0,0.0,0.0,0.0,0.0,0.0,0.0,0.0,0.0,0.0,0.0,0.0,0.0,0.0,0.0,0.0,0.0,0.0,0.0,0.0,0.0,0.0,0.0,0.0,0.0,0.0,0.0,0.0,0.0,0.0,0.0,0.0,0.0,0.0,0.0,0.0,0.0,0.0,0.0,0.0,0.0,0.0,0.0,0.0,0.0,0.0,0.0,0.0,0.0,0.0,0.0,0.0,0.0,0.0,0.0,0.0,0.0,0.0,0.0,0.0,0.0,0.0,0.0,0.0,0.0,0.0,0.0,0.0,0.0,0.0,0.0,0.0,0.0,0.0,0.0,0.0,0.0,0.0,0.0,0.0,0.0,0.0,0.0,0.0,0.0,0.0,0.0,0.0,0.0,0.0,0.0,0.0,0.0,0.0,0.0,0.0,0.0,0.0,0.0,0.0,0.0,0.0,0.0,0.0,0.0,0.0,0.0,0.0,0.0,0.0,0.0,0.0,0.0,0.0,0.0,0.0,0.0,0.0,0.0,0.0,0.0,0.0,0.0,0.0,0.0,0.0,0.0,0.0,0.0,0.0,0.0,0.0,0.0,0.0,0.0,0.0,0.0,0.0,0.0,0.0,0.0,0.0,0.0,0.0,0.0,0.0,0.0,0.0,0.0,0.0,0.0,0.0,0.0,0.0,0.0,0.0,0.0,0.0,0.0,0.0,0.0,0.0,0.0,0.0,0.0,0.0,0.0,0.0,0.0,0.0,0.0,0.0,0.0,0.0,0.0,0.0,0.0,0.0,0.0,0.0,0.0,0.0,0.0,0.0,0.0,0.0,0.0,0.0,0.0,0.0,0.0,0.0,0.0,0.0,0.0,0.0,0.0,0.0,0.0,0.0,0.0,0.0,0.0,0.0,0.0,0.0,0.0,0.0,0.0,0.0,0.0,0.0,0.0,0.0,0.0,0.0,0.0,0.0,0.0,0.0,0.0,0.0,0.0,0.0,0.0,0.0,0.0,0.0,0.0,0.0,0.0,0.0,0.0,0.0,0.0,0.0,0.0,0.0,0.0,0.0,0.0,0.0,0.0,0.0,0.0,0.0,0.0,0.0,0.0,0.0,0.0,0.0,0.0,0.0,0.0,0.0,0.0,0.0,0.0,0.0,0.0,0.0,0.0,0.0,0.0,0.0,0.0,0.0,0.0,0.0,0.0,0.0,0.0,0.0,0.0,0.0,0.0,0.0,0.0,0.0,0.0,0.0,0.0,0.0,0.0,0.0,0.0,0.0,0.0,0.0,0.0,0.0,0.0,0.0,0.0,0.0,0.0,0.0,0.0,0.0,0.0,0.0,0.0,0.0,0.0,0.0,0.0,0.0,0.0,0.0,0.0,0.0,0.0,0.0,0.0,0.0,0.0,0.0,0.0,0.0,0.0,0.0,0.0,0.0,0.0,0.0,0.0,0.0,0.0,0.0,0.0,0.0,0.0,0.0,0.0,0.0,0.0,0.0,0.0,0.0,0.0,0.0,0.0,0.0,0.0,0.0,0.0,0.0,0.0,0.0,0.0,0.0,0.0,0.0,0.0,0.0,0.0,0.0,0.0,0.0,0.0,0.0,0.0,0.0,0.0,0.0,0.0,0.0,0.0,0.0,0.0,0.0,0.0,0.0,0.0,0.0,0.0,0.0,0.0,0.0,0.0,0.0,0.0,0.0,0.0,0.0,0.0,0.0,0.0,0.0,0.0,0.0,0.0,0.0,0.0,0.0,0.0,0.0,0.0,0.0,0.0,0.0,0.0,0.0,0.0,0.0,0.0,0.0,0.0,0.0,0.0,0.0,0.0,0.0,0.0,0.0,0.0,0.0,0.0,0.0,0.0,0.0,0.0,0.0,0.0,0.0,0.0,0.0,0.0,0.0,0.0,0.0,0.0,0.0,0.0,0.0,0.0,0.0,0.0,0.0,0.0,0.0,0.0,0.0,0.0,0.0,0.0,0.0,0.0,0.0,0.0,0.0,0.0,0.0,0.0,0.0,0.0,0.0,0.0,0.0,0.0,0.0,0.0,0.0,0.0,0.0,0.0,0.0,0.0,0.0,0.0,0.0,0.0,0.0,0.0,0.0,0.0,0.0,0.0,0.0,0.0,0.0,0.0,0.0,0.0,0.0,0.0,0.0,0.0,0.0,0.0,0.0,0.0,0.0,0.0,0.0,0.0,0.0,0.0,0.0,0.0,0.0,0.0,0.0,0.0,-3.1426,0.0,0.0,0.0,-3.0684,0.0,0.0,0.0,0.0,0.0,0.0,0.0,0.0,0.0,0.0,0.0,0.0,0.0,0.0,0.0,0.0,0.0,0.0,0.0,0.0,0.0,0.0,0.0,0.0,0.0,0.0,0.0,0.0,0.0,0.0,0.0,0.0,0.0,0.0,0.0,0.0,0.0,0.0,0.0,0.0,0.0,0.0,0.0,0.0,0.0,0.0,0.0,0.0,0.0,0.0,0.0,0.0,0.0,0.0,0.0,0.0,0.0,0.0,0.0,0.0,0.0,0.0,0.0,0.0,0.0,0.0,0.0,0.0,0.0,0.0,0.0,0.0,0.0,0.0,0.0,0.0,0.0,0.0,0.0,0.0,0.0,0.0,0.0,0.0,0.0,0.0,0.0,0.0,0.0,0.0,0.0,0.0,0.0,0.0,0.0,0.0,0.0,0.0,0.0,0.0,0.0,0.0,0.0,0.0,0.0,0.0,0.0,0.0,0.0,0.0,-3.1719,-3.2148,-3.1797,-3.1465,-3.1211,0.0,0.0,0.0,0.0,0.0,0.0,0.0,0.0,0.0,0.0,0.0,0.0,0.0,0.0,0.0,0.0,0.0,0.0,0.0,0.0,0.0,0.0,0.0,0.0,0.0,0.0,0.0,0.0,0.0,0.0,0.0,0.0,0.0,0.0,0.0,0.0,0.0,0.0,0.0,0.0,0.0,0.0,0.0,0.0,0.0,0.0,0.0,0.0,0.0,0.0,0.0,0.0,0.0,0.0,0.0,0.0,0.0,0.0,0.0,0.0,0.0,0.0,0.0,0.0,0.0,0.0,0.0,0.0,0.0,0.0,0.0,0.0,0.0,0.0,0.0,0.0,0.0,0.0,0.0,0.0,0.0,0.0,0.0,0.0,0.0,0.0,0.0,0.0,0.0,0.0,0.0,0.0,0.0,0.0,0.0,0.0,0.0,0.0,0.0,0.0,0.0,0.0,0.0,0.0,0.0,0.0,0.0,0.0,0.0,0.0,0.0,0.0,-3.2363,-3.2012,-3.1367,0.0,0.0,0.0,0.0,0.0,0.0,0.0,0.0,0.0,0.0,0.0,0.0,0.0,0.0,0.0,0.0,0.0,0.0,0.0,0.0,0.0,0.0,0.0,0.0,0.0,0.0,0.0,0.0,0.0,0.0,0.0,0.0,0.0,0.0,0.0,0.0,0.0,0.0,0.0,0.0,0.0,0.0,0.0,0.0,0.0,0.0,0.0,0.0,0.0,0.0,0.0,0.0,0.0,0.0,0.0,0.0,0.0,0.0,0.0,0.0,0.0,0.0,0.0,0.0,0.0,0.0,0.0,0.0,0.0,0.0,0.0,0.0,0.0,0.0,0.0,0.0,0.0,0.0,0.0,0.0,0.0,0.0,0.0,0.0,0.0,0.0,0.0,0.0,0.0,0.0,0.0,0.0,0.0,0.0,0.0,0.0,0.0,0.0,0.0,0.0,0.0,0.0,0.0,0.0,0.0,0.0,0.0,0.0,0.0,0.0,-3.2871,-3.3281,-3.293,0.0,-3.0996,0.0,0.0,0.0,0.0,0.0,0.0,0.0,0.0,0.0,0.0,0.0,0.0,0.0,0.0,0.0,0.0,0.0,0.0,0.0,0.0,0.0,0.0,0.0,0.0,0.0,0.0,0.0,0.0,0.0,0.0,0.0,0.0,0.0,0.0,0.0,0.0,0.0,0.0,0.0,0.0,0.0,0.0,0.0,0.0,0.0,0.0,0.0,0.0,0.0,0.0,0.0,0.0,0.0,0.0,0.0,0.0,0.0,0.0,0.0,0.0,0.0,0.0,0.0,0.0,0.0,0.0,0.0,0.0,0.0,0.0,0.0,0.0,0.0,0.0,0.0,0.0,0.0,0.0,0.0,0.0,0.0,0.0,0.0,0.0,0.0,0.0,0.0,0.0,0.0,0.0,0.0,0.0,0.0,0.0,0.0,0.0,0.0,0.0,0.0,0.0,0.0,0.0,0.0,0.0,0.0,0.0,0.0,0.0,0.0,0.0,-3.2988,-3.3418,-3.2773,-3.2248,0.0,0.0,0.0,0.0,0.0,0.0,0.0,0.0,0.0,0.0,0.0,0.0,0.0,0.0,0.0,0.0,0.0,0.0,0.0,0.0,0.0,0.0,0.0,0.0,0.0,0.0,0.0,0.0,0.0,0.0,0.0,0.0,0.0,0.0,0.0,0.0,0.0,0.0,0.0,0.0,0.0,0.0,0.0,0.0,0.0,0.0,0.0,0.0,0.0,0.0,0.0,0.0,0.0,0.0,0.0,0.0,0.0,0.0,0.0,0.0,0.0,0.0,0.0,0.0,0.0,0.0,0.0,0.0,0.0,0.0,0.0,0.0,0.0,0.0,0.0,0.0,0.0,0.0,0.0,0.0,0.0,0.0,0.0,0.0,0.0,0.0,0.0,0.0,0.0,0.0,0.0,0.0,0.0,0.0,0.0,0.0,0.0,0.0,0.0,0.0,0.0,0.0,0.0,0.0,0.0,0.0,0.0,0.0,0.0,0.0,-3.2695,-3.3105,-3.3359,-3.2598,-3.2229,-3.2229,0.0,0.0,0.0,0.0,0.0,0.0,0.0,0.0,0.0,0.0,0.0,0.0,0.0,0.0,0.0,0.0,0.0,0.0,0.0,0.0,0.0,0.0,0.0,0.0,0.0,0.0,0.0,0.0,0.0,0.0,0.0,0.0,0.0,0.0,0.0,0.0,0.0,0.0,0.0,0.0,0.0,0.0,0.0,0.0,0.0,0.0,0.0,0.0,0.0,0.0,0.0,0.0,0.0,0.0,0.0,0.0,0.0,0.0,0.0,0.0,0.0,0.0,0.0,0.0,0.0,0.0,0.0,0.0,0.0,0.0,0.0,0.0,0.0,0.0,0.0,0.0,0.0,0.0,0.0,0.0,0.0,0.0,0.0,0.0,0.0,0.0,0.0,0.0,0.0,0.0,0.0,0.0,0.0,0.0,0.0,0.0,0.0,0.0,0.0,0.0,0.0,0.0,0.0,0.0,0.0,0.0,0.0,0.0,-3.2187,-3.2969,-3.3398,-3.3398,-3.2617,-3.2229,0.0,0.0,0.0,0.0,0.0,0.0,0.0,0.0,0.0,0.0,0.0,0.0,0.0,0.0,0.0,0.0,0.0,0.0,0.0,0.0,0.0,0.0,0.0,0.0,0.0,0.0,0.0,0.0,0.0,0.0,0.0,0.0,0.0,0.0,0.0,0.0,0.0,0.0,0.0,0.0,0.0,0.0,0.0,0.0,0.0,0.0,0.0,0.0,0.0,0.0,0.0,0.0,0.0,0.0,0.0,0.0,0.0,0.0,0.0,0.0,0.0,0.0,0.0,0.0,0.0,0.0,0.0,0.0,0.0,0.0,0.0,0.0,0.0,0.0,0.0,0.0,0.0,0.0,0.0,0.0,0.0,0.0,0.0,0.0,0.0,0.0,0.0,0.0,0.0,0.0,0.0,0.0,0.0,0.0,0.0,0.0,0.0,0.0,0.0,0.0,0.0,0.0,0.0,0.0,0.0,0.0,0.0,0.0,0.0,-3.2268,-3.2988,-3.3418,-3.3398,-3.2617,-3.2229,0.0,0.0,0.0,0.0,0.0,0.0,0.0,0.0,0.0,0.0,0.0,0.0,0.0,0.0,0.0,0.0,0.0,0.0,0.0,0.0,0.0,0.0,0.0,0.0,0.0,0.0,0.0,0.0,0.0,0.0,0.0,0.0,0.0,0.0,0.0,0.0,0.0,0.0,0.0,0.0,0.0,0.0,0.0,0.0,0.0,0.0,0.0,0.0,0.0,0.0,0.0,0.0,0.0,0.0,0.0,0.0,0.0,0.0,0.0,0.0,0.0,0.0,0.0,0.0,0.0,0.0,0.0,0.0,0.0,0.0,0.0,0.0,0.0,0.0,0.0,0.0,0.0,0.0,0.0,0.0,0.0,0.0,0.0,0.0,0.0,0.0,0.0,0.0,0.0,0.0,0.0,0.0,0.0,0.0,0.0,0.0,0.0,0.0,0.0,0.0,0.0,0.0,0.0,0.0,0.0,0.0,0.0,0.0,0.0,-3.2773,0.0,-3.3633,-3.3613,-3.2949,-3.2461,0.0,0.0,0.0,0.0,0.0,0.0,0.0,0.0,0.0,0.0,0.0,0.0,0.0,0.0,0.0,0.0,0.0,0.0,0.0,0.0,0.0,0.0,0.0,0.0,0.0,0.0,0.0,0.0,0.0,0.0,0.0,0.0,0.0,0.0,0.0,0.0,0.0,0.0,0.0,0.0,0.0,0.0,0.0,0.0,0.0,0.0,0.0,0.0,0.0,0.0,0.0,0.0,0.0,0.0,0.0,0.0,0.0,0.0,0.0,0.0,0.0,0.0,0.0,0.0,0.0,0.0,0.0,0.0,0.0,0.0,0.0,0.0,0.0,0.0,0.0,0.0,0.0,0.0,0.0,0.0,0.0,0.0,0.0,0.0,0.0,0.0,0.0,0.0,0.0,0.0,0.0,0.0,0.0,0.0,0.0,0.0,0.0,0.0,0.0,0.0,0.0,0.0,0.0,0.0,0.0,0.0,0.0,0.0,-3.2855,-3.3984,-3.4062,-3.4082,-3.4062,-3.3633,-3.3008,0.0,0.0,0.0,0.0,0.0,0.0,0.0,0.0,0.0,0.0,0.0,0.0,0.0,0.0,0.0,0.0,0.0,0.0,0.0,0.0,0.0,0.0,0.0,0.0,0.0,0.0,0.0,0.0,0.0,0.0,0.0,0.0,0.0,0.0,0.0,0.0,0.0,0.0,0.0,0.0,0.0,0.0,0.0,0.0,0.0,0.0,0.0,0.0,0.0,0.0,0.0,0.0,0.0,0.0,0.0,0.0,0.0,0.0,0.0,0.0,0.0,0.0,0.0,0.0,0.0,0.0,0.0,0.0,0.0,0.0,0.0,0.0,0.0,0.0,0.0,0.0,0.0,0.0,0.0,0.0,0.0,0.0,0.0,0.0,0.0,0.0,0.0,0.0,0.0,0.0,0.0,0.0,0.0,0.0,0.0,0.0,0.0,0.0,0.0,0.0,0.0,0.0,0.0,0.0,0.0,0.0,0.0,0.0,0.0,-3.4043,-3.4355,-3.4492,-3.4473,-3.3809,-3.3164,0.0,0.0,0.0,0.0,0.0,0.0,0.0,0.0,0.0,0.0,0.0,0.0,0.0,0.0,0.0,0.0,0.0,0.0,0.0,0.0,0.0,0.0,0.0,0.0,0.0,0.0,0.0,0.0,0.0,0.0,0.0,0.0,0.0,0.0,0.0,0.0,0.0,0.0,0.0,0.0,0.0,0.0,0.0,0.0,0.0,0.0,0.0,0.0,0.0,0.0,0.0,0.0,0.0,0.0,0.0,0.0,0.0,0.0,0.0,0.0,0.0,0.0,0.0,0.0,0.0,0.0,0.0,0.0,0.0,0.0,0.0,0.0,0.0,0.0,0.0,0.0,0.0,0.0,0.0,0.0,0.0,0.0,0.0,0.0,0.0,0.0,0.0,0.0,0.0,0.0,0.0,0.0,0.0,0.0,0.0,0.0,0.0,0.0,0.0,0.0,0.0,0.0,0.0,0.0,0.0,0.0,0.0,0.0,0.0,-3.4551,-3.4824,-3.4961,-3.4961,-3.4258,-3.3555,-3.2812,0.0,0.0,0.0,0.0,0.0,0.0,0.0,0.0,0.0,0.0,0.0,0.0,0.0,0.0,0.0,0.0,0.0,0.0,0.0,0.0,0.0,0.0,0.0,0.0,0.0,0.0,0.0,0.0,0.0,0.0,0.0,0.0,0.0,0.0,0.0,0.0,0.0,0.0,0.0,0.0,0.0,0.0,0.0,0.0,0.0,0.0,0.0,0.0,0.0,0.0,0.0,0.0,0.0,0.0,0.0,0.0,0.0,0.0,0.0,0.0,0.0,0.0,0.0,0.0,0.0,0.0,0.0,0.0,0.0,0.0,0.0,0.0,0.0,0.0,0.0,0.0,0.0,0.0,0.0,0.0,0.0,0.0,0.0,0.0,0.0,0.0,0.0,0.0,0.0,0.0,0.0,0.0,0.0,0.0,0.0,0.0,0.0,0.0,0.0,0.0,0.0,0.0,0.0,0.0,0.0,0.0,0.0,0.0,-3.541,-3.5449,-3.5469,-3.5469,-3.498,-3.416,0.0,0.0,0.0,0.0,0.0,0.0,0.0,0.0,0.0,0.0,0.0,0.0,0.0,0.0,0.0,0.0,0.0,0.0,0.0,0.0,0.0,0.0,0.0,0.0,0.0,0.0,0.0,0.0,0.0,0.0,0.0,0.0,0.0,0.0,0.0,0.0,0.0,0.0,0.0,0.0,0.0,0.0,0.0,0.0,0.0,0.0,0.0,0.0,0.0,0.0,0.0,0.0,0.0,0.0,0.0,0.0,0.0,0.0,0.0,0.0,0.0,0.0,0.0,0.0,0.0,0.0,0.0,0.0,0.0,0.0,0.0,0.0,0.0,0.0,0.0,0.0,0.0,0.0,0.0,0.0,0.0,0.0,0.0,0.0,0.0,0.0,0.0,0.0,0.0,0.0,0.0,0.0,0.0,0.0,0.0,0.0,0.0,0.0,0.0,0.0,0.0,0.0,0.0,0.0,0.0,0.0,0.0,0.0,0.0,-3.584,-3.6172,-3.6348,-3.6328,-3.5605,-3.4746,0.0,0.0,0.0,0.0,0.0,0.0,0.0,0.0,0.0,0.0,0.0,0.0,0.0,0.0,0.0,0.0,0.0,0.0,0.0,0.0,0.0,0.0,0.0,0.0,0.0,0.0,0.0,0.0,0.0,0.0,0.0,0.0,0.0,0.0,0.0,0.0,0.0,0.0,0.0,0.0,0.0,0.0,0.0,0.0,0.0,0.0,0.0,0.0,0.0,0.0,0.0,0.0,0.0,0.0,0.0,0.0,0.0,0.0,0.0,0.0,0.0,0.0,0.0,0.0,0.0,0.0,0.0,0.0,0.0,0.0,0.0,0.0,0.0,0.0,0.0,0.0,0.0,0.0,0.0,0.0,0.0,0.0,0.0,0.0,0.0,0.0,0.0,0.0,0.0,0.0,0.0,0.0,0.0,0.0,0.0,0.0,0.0,0.0,0.0,0.0,0.0,0.0,0.0,0.0,0.0,0.0,0.0,0.0,-3.541,-3.6289,-3.6894,-3.7109,-3.6934,-3.6113,-3.5156,0.0,0.0,0.0,0.0,0.0,0.0,0.0,0.0,0.0,0.0,0.0,0.0,0.0,0.0,0.0,0.0,0.0,0.0,0.0,0.0,0.0,0.0,0.0,0.0,0.0,0.0,0.0,0.0,0.0,0.0,0.0,0.0,0.0,0.0,0.0,0.0,0.0,0.0,0.0,0.0,0.0,0.0,0.0,0.0,0.0,0.0,0.0,0.0,0.0,0.0,0.0,0.0,0.0,0.0,0.0,0.0,0.0,0.0,0.0,0.0,0.0,0.0,0.0,0.0,0.0,0.0,0.0,0.0,0.0,0.0,0.0,0.0,0.0,0.0,0.0,0.0,0.0,0.0,0.0,0.0,0.0,0.0,0.0,0.0,0.0,0.0,0.0,0.0,0.0,0.0,0.0,0.0,0.0,0.0,0.0,0.0,0.0,0.0,0.0,0.0,0.0,0.0,0.0,0.0,0.0,0.0,0.0,0.0,-3.582,-3.6719,-3.7519,-3.7734,-3.7285,-3.6504,-3.5469,0.0,0.0,0.0,0.0,0.0,0.0,0.0,0.0,0.0,0.0,0.0,0.0,0.0,0.0,0.0,0.0,0.0,0.0,0.0,0.0,0.0,0.0,0.0,0.0,0.0,0.0,0.0,0.0,0.0,0.0,0.0,0.0,0.0,0.0,0.0,0.0,0.0,0.0,0.0,0.0,0.0,0.0,0.0,0.0,0.0,0.0,0.0,0.0,0.0,0.0,0.0,0.0,0.0,0.0,0.0,0.0,0.0,0.0,0.0,0.0,0.0,0.0,0.0,0.0,0.0,0.0,0.0,0.0,0.0,0.0,0.0,0.0,0.0,0.0,0.0,0.0,0.0,0.0,0.0,0.0,0.0,0.0,0.0,0.0,0.0,0.0,0.0,0.0,0.0,0.0,0.0,0.0,0.0,0.0,0.0,0.0,0.0,0.0,0.0,0.0,0.0,0.0,0.0,0.0,0.0,0.0,0.0,0.0,-3.5976,-3.7129,-3.7656,-3.7715,-3.7305,-3.6797,-3.5898,0.0,0.0,0.0,0.0,0.0,0.0,0.0,0.0,0.0,0.0,0.0,0.0,0.0,0.0,0.0,0.0,0.0,0.0,0.0,0.0,0.0,0.0,0.0,0.0,0.0,0.0,0.0,0.0,0.0,0.0,0.0,0.0,0.0,0.0,0.0,0.0,0.0,0.0,0.0,0.0,0.0,0.0,0.0,0.0,0.0,0.0,0.0,0.0,-3.6348,0.0,0.0,0.0,0.0,0.0,0.0,0.0,0.0,0.0,0.0,0.0,0.0,0.0,0.0,0.0,0.0,0.0,0.0,0.0,0.0,0.0,0.0,0.0,0.0,0.0,0.0,0.0,0.0,0.0,0.0,0.0,0.0,0.0,0.0,0.0,0.0,0.0,0.0,0.0,0.0,0.0,0.0,0.0,0.0,0.0,0.0,0.0,0.0,0.0,0.0,0.0,0.0,0.0,0.0,0.0,0.0,0.0,0.0,0.0,-3.6426,-3.7285,-3.791,-3.793,-3.7324,-3.709,-3.625,0.0,0.0,0.0,0.0,0.0,0.0,0.0,0.0,0.0,0.0,0.0,0.0,0.0,0.0,0.0,0.0,0.0,0.0,0.0,0.0,0.0,0.0,0.0,0.0,0.0,0.0,0.0,0.0,0.0,0.0,0.0,0.0,0.0,0.0,0.0,0.0,0.0,0.0,0.0,0.0,0.0,0.0,0.0,0.0,0.0,0.0,0.0,0.0,0.0,0.0,0.0,0.0,0.0,0.0,0.0,0.0,0.0,0.0,0.0,0.0,0.0,0.0,0.0,0.0,0.0,0.0,0.0,0.0,0.0,0.0,0.0,0.0,0.0,0.0,0.0,0.0,0.0,0.0,0.0,0.0,0.0,0.0,0.0,0.0,0.0,0.0,0.0,0.0,0.0,0.0,0.0,0.0,0.0,0.0,0.0,0.0,0.0,0.0,0.0,0.0,0.0,0.0,0.0,0.0,0.0,0.0,0.0,-3.5937,-3.6816,-3.7305,-3.8144,-3.8164,-3.7324,-3.7305,-3.6484,-3.4766,0.0,0.0,0.0,0.0,0.0,0.0,0.0,0.0,0.0,0.0,0.0,0.0,0.0,0.0,0.0,0.0,0.0,0.0,0.0,0.0,0.0,0.0,0.0,0.0,0.0,0.0,0.0,0.0,0.0,0.0,0.0,0.0,0.0,0.0,0.0,0.0,0.0,0.0,-3.3105,-3.4883,0.0,0.0,0.0,0.0,0.0,0.0,0.0,0.0,-3.7012,0.0,0.0,0.0,0.0,0.0,0.0,0.0,0.0,0.0,0.0,0.0,0.0,0.0,0.0,0.0,0.0,0.0,0.0,0.0,0.0,0.0,0.0,0.0,0.0,0.0,0.0,0.0,0.0,0.0,0.0,0.0,0.0,0.0,0.0,0.0,0.0,0.0,0.0,0.0,0.0,0.0,0.0,0.0,0.0,0.0,0.0,0.0,0.0,0.0,0.0,0.0,0.0,0.0,0.0,0.0,0.0,-3.4668,-3.5644,-3.6504,-3.7285,-3.8125,-3.8164,-3.7344,-3.7305,-3.6484,-3.4785,0.0,0.0,0.0,0.0,0.0,0.0,0.0,0.0,0.0,0.0,0.0,0.0,0.0,0.0,0.0,0.0,0.0,0.0,0.0,0.0,0.0,0.0,0.0,0.0,0.0,0.0,0.0,0.0,0.0,0.0,0.0,0.0,0.0,0.0,0.0,0.0,0.0,0.0,0.0,-3.5898,-3.6719,0.0,0.0,0.0,0.0,0.0,0.0,0.0,0.0,-3.6758,0.0,0.0,0.0,0.0,0.0,0.0,0.0,0.0,0.0,0.0,0.0,0.0,0.0,0.0,0.0,0.0,0.0,0.0,0.0,0.0,0.0,0.0,0.0,0.0,0.0,0.0,0.0,0.0,0.0,0.0,0.0,0.0,0.0,0.0,0.0,0.0,0.0,0.0,0.0,0.0,0.0,0.0,0.0,0.0,0.0,0.0,0.0,0.0,0.0,0.0,0.0,0.0,0.0,0.0,0.0,-3.4668,-3.5566,-3.6445,-3.7266,-3.7695,-3.7715,-3.7305,-3.6875,-3.6016,0.0,0.0,0.0,0.0,0.0,0.0,0.0,0.0,0.0,0.0,0.0,0.0,0.0,0.0,0.0,0.0,0.0,0.0,0.0,0.0,0.0,0.0,0.0,0.0,0.0,0.0,0.0,0.0,0.0,0.0,0.0,0.0,0.0,0.0,0.0,0.0,0.0,0.0,0.0,0.0,-3.6172,-3.707,-3.7266,0.0,0.0,0.0,0.0,0.0,0.0,-3.7266,-3.6934,0.0,0.0,0.0,0.0,0.0,0.0,0.0,0.0,0.0,0.0,0.0,0.0,0.0,0.0,0.0,0.0,0.0,0.0,0.0,0.0,0.0,0.0,0.0,0.0,0.0,0.0,0.0,0.0,0.0,0.0,0.0,0.0,0.0,0.0,0.0,0.0,0.0,0.0,0.0,0.0,0.0,0.0,0.0,0.0,0.0,0.0,0.0,0.0,0.0,0.0,0.0,0.0,0.0,0.0,0.0,-3.4551,-3.5449,-3.6348,-3.7246,-3.7305,-3.7305,-3.7285,-3.6484,-3.5566,0.0,0.0,0.0,0.0,0.0,0.0,0.0,0.0,0.0,0.0,0.0,0.0,0.0,0.0,0.0,0.0,0.0,0.0,0.0,0.0,0.0,0.0,0.0,0.0,0.0,0.0,0.0,0.0,0.0,0.0,0.0,0.0,0.0,0.0,0.0,0.0,0.0,0.0,0.0,0.0,0.0,-3.7305,-3.7305,-3.8027,0.0,0.0,0.0,0.0,-3.7988,-3.7578,0.0,0.0,0.0,0.0,0.0,0.0,0.0,0.0,0.0,0.0,0.0,0.0,0.0,0.0,0.0,0.0,0.0,0.0,0.0,0.0,0.0,0.0,0.0,0.0,0.0,0.0,0.0,0.0,0.0,0.0,0.0,0.0,0.0,0.0,0.0,0.0,0.0,0.0,0.0,0.0,0.0,0.0,0.0,0.0,0.0,0.0,0.0,0.0,0.0,0.0,0.0,0.0,0.0,0.0,0.0,0.0,-3.4121,-3.5019,-3.6055,-3.7226,-3.7305,-3.7305,-3.7285,-3.6465,-3.543,0.0,0.0,0.0,0.0,0.0,0.0,0.0,0.0,0.0,0.0,0.0,0.0,0.0,0.0,0.0,0.0,0.0,0.0,0.0,0.0,0.0,0.0,0.0,0.0,0.0,0.0,0.0,0.0,0.0,0.0,0.0,0.0,0.0,0.0,0.0,0.0,0.0,0.0,0.0,0.0,0.0,-3.7305,-3.7305,-3.8027,-3.8574,0.0,0.0,-3.8437,-3.7988,-3.7578,0.0,0.0,0.0,0.0,0.0,0.0,0.0,0.0,0.0,0.0,0.0,0.0,0.0,0.0,0.0,0.0,0.0,0.0,0.0,0.0,0.0,0.0,0.0,0.0,0.0,0.0,0.0,0.0,0.0,0.0,0.0,0.0,0.0,0.0,0.0,0.0,0.0,0.0,0.0,0.0,0.0,0.0,0.0,0.0,0.0,0.0,0.0,0.0,0.0,0.0,0.0,0.0,0.0,0.0,0.0,-3.2855,-3.4107,-3.4687,-3.5625,-3.6875,-3.6699,-3.6582,-3.6562,-3.5723,-3.4785,0.0,0.0,0.0,0.0,0.0,0.0,0.0,0.0,0.0,0.0,0.0,0.0,0.0,0.0,0.0,0.0,0.0,0.0,0.0,0.0,0.0,0.0,0.0,0.0,0.0,0.0,0.0,0.0,0.0,0.0,0.0,0.0,0.0,0.0,0.0,0.0,0.0,0.0,0.0,0.0,0.0,0.0,-3.7305,-3.8027,0.0,0.0,0.0,-3.8516,-3.832,0.0,0.0,0.0,0.0,0.0,0.0,0.0,0.0,0.0,0.0,0.0,0.0,0.0,0.0,0.0,0.0,0.0,0.0,0.0,0.0,0.0,0.0,0.0,0.0,0.0,0.0,0.0,0.0,0.0,0.0,0.0,0.0,0.0,0.0,0.0,0.0,0.0,0.0,0.0,0.0,0.0,0.0,0.0,0.0,0.0,0.0,0.0,0.0,0.0,0.0,0.0,0.0,0.0,0.0,0.0,0.0,0.0,-3.3887,-3.4434,-3.5332,-3.6601,-3.625,-3.6035,-3.6016,-3.5156,0.0,0.0,0.0,0.0,0.0,0.0,0.0,0.0,0.0,0.0,0.0,0.0,0.0,0.0,0.0,0.0,0.0,0.0,0.0,0.0,0.0,0.0,0.0,0.0,0.0,0.0,0.0,-3.4173,0.0,0.0,0.0,0.0,0.0,0.0,0.0,0.0,0.0,0.0,0.0,0.0,0.0,0.0,-3.7344,-3.7441,-3.8086,-3.8574,0.0,0.0,-3.8574,-3.8574,-3.7949,-3.7422,0.0,0.0,0.0,0.0,0.0,0.0,0.0,0.0,0.0,0.0,0.0,0.0,0.0,0.0,0.0,0.0,0.0,0.0,0.0,0.0,0.0,0.0,0.0,0.0,0.0,0.0,0.0,0.0,0.0,0.0,0.0,0.0,0.0,0.0,0.0,0.0,0.0,0.0,0.0,0.0,0.0,0.0,0.0,0.0,0.0,0.0,0.0,0.0,0.0,0.0,0.0,0.0,0.0,0.0,-3.2598,-3.3457,-3.4277,-3.5332,-3.6601,-3.625,-3.6035,-3.6016,-3.5156,-3.4101,0.0,0.0,0.0,0.0,0.0,0.0,0.0,0.0,0.0,0.0,0.0,0.0,0.0,0.0,0.0,0.0,0.0,0.0,0.0,0.0,0.0,0.0,0.0,0.0,0.0,0.0,0.0,0.0,0.0,0.0,0.0,0.0,0.0,0.0,0.0,0.0,0.0,0.0,0.0,0.0,0.0,-3.7441,-3.7832,-3.8281,-3.8574,0.0,-3.8574,-3.8574,-3.8574,-3.8184,-3.7754,-3.7363,0.0,0.0,0.0,0.0,0.0,0.0,0.0,0.0,0.0,0.0,0.0,0.0,0.0,0.0,0.0,0.0,0.0,0.0,0.0,0.0,0.0,0.0,0.0,0.0,0.0,0.0,0.0,0.0,0.0,0.0,0.0,0.0,0.0,0.0,0.0,0.0,0.0,0.0,0.0,0.0,0.0,0.0,0.0,0.0,0.0,0.0,0.0,0.0,0.0,0.0,0.0,0.0,0.0,-3.2187,-3.3027,-3.3867,-3.4824,-3.584,-3.5976,-3.5762,-3.5215,-3.4883,-3.3984,0.0,0.0,0.0,0.0,0.0,0.0,0.0,0.0,0.0,0.0,0.0,0.0,0.0,0.0,0.0,0.0,0.0,0.0,0.0,0.0,0.0,0.0,0.0,0.0,0.0,0.0,0.0,0.0,-3.686,-3.622,-3.4987,0.0,0.0,0.0,0.0,0.0,0.0,0.0,0.0,0.0,0.0,-3.7653,-3.7871,-3.8301,0.0,0.0,-3.8574,-3.8574,-3.8574,-3.8439,-3.8228,-3.807,-3.8307,0.0,0.0,0.0,0.0,0.0,0.0,0.0,0.0,0.0,0.0,0.0,0.0,0.0,0.0,0.0,0.0,0.0,0.0,0.0,0.0,0.0,0.0,0.0,0.0,0.0,0.0,0.0,0.0,0.0,0.0,0.0,0.0,0.0,0.0,0.0,0.0,0.0,0.0,0.0,0.0,0.0,0.0,0.0,0.0,0.0,0.0,0.0,0.0,0.0,0.0,0.0,0.0,-3.1934,-3.2793,-3.3633,-3.4512,-3.5371,-3.5684,-3.5469,-3.4726,-3.4453,-3.3633,0.0,0.0,0.0,0.0,0.0,0.0,0.0,0.0,0.0,0.0,0.0,0.0,0.0,0.0,0.0,0.0,0.0,0.0,0.0,0.0,0.0,0.0,0.0,0.0,0.0,0.0,0.0,0.0,-3.714,-3.6179,-3.4979,0.0,0.0,0.0,0.0,0.0,0.0,0.0,0.0,0.0,0.0,-3.8257,-3.8529,-3.8813,-3.8918,-3.8938,-3.8938,-3.8938,-3.8938,-3.8898,-3.8875,-3.8826,0.0,0.0,0.0,0.0,0.0,0.0,0.0,0.0,0.0,0.0,0.0,0.0,0.0,0.0,0.0,0.0,0.0,0.0,0.0,0.0,0.0,0.0,0.0,0.0,0.0,0.0,0.0,-2.6451,0.0,0.0,-2.897,0.0,0.0,0.0,0.0,0.0,0.0,0.0,0.0,0.0,0.0,0.0,0.0,0.0,0.0,0.0,0.0,0.0,0.0,0.0,0.0,0.0,0.0,-3.1934,-3.2773,-3.3613,-3.4473,-3.5351,-3.541,-3.5176,-3.4687,-3.3887,-3.3047,-3.2229,0.0,0.0,0.0,0.0,0.0,0.0,0.0,0.0,0.0,0.0,0.0,0.0,0.0,0.0,0.0,0.0,0.0,0.0,0.0,0.0,0.0,0.0,0.0,0.0,0.0,0.0,-3.7204,-3.6707,-3.6164,0.0,0.0,0.0,0.0,0.0,0.0,0.0,0.0,0.0,-3.8697,-3.8893,-3.9219,-4.0095,-3.993,-3.9714,-3.9714,-3.9642,-3.9714,-3.9714,-3.9694,-3.9697,0.0,0.0,0.0,0.0,0.0,0.0,0.0,0.0,0.0,0.0,0.0,0.0,0.0,0.0,0.0,0.0,0.0,0.0,0.0,0.0,0.0,0.0,0.0,0.0,0.0,0.0,0.0,-2.5452,-2.6461,0.0,0.0,0.0,0.0,0.0,0.0,0.0,0.0,0.0,0.0,0.0,-3.1583,-3.1816,0.0,0.0,0.0,0.0,0.0,0.0,0.0,0.0,0.0,0.0,0.0,0.0,-3.1523,-3.2363,-3.293,-3.3652,-3.4492,-3.4785,-3.4726,-3.4277,-3.373,-3.2754,-3.1348,0.0,0.0,0.0,0.0,0.0,0.0,0.0,0.0,0.0,0.0,0.0,0.0,0.0,0.0,0.0,0.0,0.0,0.0,0.0,0.0,0.0,0.0,0.0,0.0,0.0,-3.6877,0.0,0.0,0.0,0.0,0.0,0.0,0.0,0.0,0.0,0.0,-3.789,-3.8717,-4.0197,-4.0409,-4.052,-4.0951,-4.0912,-4.077,0.0,0.0,0.0,0.0,0.0,0.0,0.0,0.0,0.0,0.0,0.0,0.0,0.0,0.0,-4.6227,-4.6168,-4.6099,-4.6024,-4.605,0.0,0.0,0.0,0.0,0.0,0.0,0.0,0.0,0.0,0.0,0.0,0.0,0.0,0.0,-2.6129,-2.7078,-2.8474,0.0,0.0,0.0,0.0,0.0,0.0,0.0,0.0,-3.207,-3.2305,-3.2248,-3.2305,-3.2305,0.0,-3.2229,-3.1582,0.0,0.0,0.0,0.0,0.0,0.0,0.0,0.0,-3.1309,-3.2148,-3.2578,-3.3203,-3.4043,-3.4336,-3.4355,-3.4062,-3.3359,-3.2246,-3.0703,-2.9941,-2.9375,0.0,0.0,0.0,0.0,0.0,0.0,0.0,0.0,0.0,0.0,0.0,0.0,0.0,0.0,0.0,0.0,0.0,0.0,0.0,0.0,0.0,0.0,0.0,-3.6997,0.0,0.0,0.0,0.0,0.0,0.0,0.0,0.0,0.0,-3.8908,-3.9493,-4.0388,-4.1726,-4.2033,-4.2201,-4.25,0.0,0.0,0.0,0.0,0.0,0.0,0.0,-4.284,-4.2979,-4.3883,-4.4709,-4.5051,-4.5879,-4.664,-4.723,0.0,0.0,-4.6948,-4.6859,-4.6853,-4.6853,-4.7154,-4.728,-4.6928,-4.7154,-4.7305,0.0,0.0,0.0,0.0,0.0,0.0,0.0,0.0,-2.5859,-2.7192,0.0,-2.9931,0.0,0.0,0.0,0.0,-3.2209,-3.2168,0.0,0.0,-3.2656,-3.2637,-3.2385,-3.2695,-3.2656,-3.2266,-3.2346,-3.2246,-3.2209,-3.1367,0.0,0.0,0.0,0.0,0.0,0.0,-3.1328,-3.2148,-3.2578,-3.3203,-3.4004,-3.4043,-3.4043,-3.4029,-3.2812,-3.1562,-3.0273,-2.9805,-2.9375,-2.8926,-2.8516,0.0,0.0,0.0,0.0,0.0,0.0,0.0,0.0,0.0,0.0,0.0,0.0,0.0,0.0,0.0,0.0,0.0,0.0,0.0,0.0,-3.6184,0.0,0.0,0.0,0.0,0.0,0.0,0.0,0.0,0.0,-4.0909,-4.0472,-4.1024,-4.1933,-4.3256,0.0,0.0,0.0,0.0,-4.4274,-4.4252,-4.4252,-4.4252,-4.4252,-4.4252,-4.4412,-4.48,0.0,0.0,-4.6808,-4.7539,-4.8067,-4.8436,-4.8367,-4.8153,-4.7669,-4.7721,-4.7857,-4.7857,-4.7883,-4.7933,-4.7908,-4.7883,-4.7908,-2.4147,0.0,0.0,0.0,0.0,-2.369,-2.4275,-2.5109,-2.6633,-2.7912,-2.8975,-3.0484,0.0,0.0,0.0,0.0,0.0,0.0,-3.2773,-3.3086,-3.3516,-3.3789,-3.3984,-3.4101,-3.4082,-3.3965,-3.3984,-3.3652,-3.3066,-3.2812,-3.2168,-3.1152,0.0,0.0,0.0,0.0,-3.1621,-3.2209,-3.2578,-3.3066,-3.3594,-3.3613,-3.332,-3.2734,-3.2424,-3.1543,-3.0234,-2.9785,-2.9375,-2.8926,-2.8516,0.0,0.0,0.0,0.0,0.0,0.0,0.0,0.0,0.0,0.0,0.0,0.0,0.0,0.0,0.0,0.0,0.0,0.0,0.0,-3.5749,-3.6602,-3.704,0.0,0.0,0.0,0.0,0.0,0.0,0.0,0.0,0.0,-4.3891,-4.3622,-4.3922,0.0,0.0,-4.5993,-4.6244,-4.618,-4.6046,-4.582,-4.5752,0.0,-4.5752,-4.5978,-4.618,-4.6271,-4.6808,-4.7407,-4.8026,-4.8313,-4.8576,-4.8877,-4.8883,-4.8864,-4.8921,-4.8372,-4.7958,-4.7933,-4.8234,-4.836,-4.8033,-4.8234,-4.8385,-2.505,-2.4422,-2.4088,-2.3941,-2.3955,-2.4278,-2.4823,-2.5669,-2.727,-2.8481,-2.9545,-3.1256,-3.2199,-3.2599,-3.2986,0.0,0.0,0.0,-3.3691,-3.3926,-3.4199,-3.4453,-3.4687,-3.4687,-3.4687,-3.4687,-3.4687,-3.4336,-3.3672,-3.3672,-3.3125,-3.2051,0.0,-3.1641,-3.1406,-3.1641,-3.1992,-3.2402,-3.2676,-3.2988,-3.3418,-3.3262,-3.2851,-3.2187,-3.2012,-3.1465,-3.0508,-3.0059,-2.9629,-2.9199,-2.8769,-2.8457,0.0,0.0,0.0,0.0,0.0,0.0,0.0,0.0,0.0,0.0,0.0,-3.1086,-3.1322,0.0,0.0,0.0,-3.4204,-3.5488,-3.6588,-3.7067,0.0,0.0,0.0,0.0,0.0,0.0,0.0,-4.2481,-4.3262,-4.4412,-4.589,-4.5721,-4.5869,-4.6948,-4.7329,-4.7441,-4.7581,0.0,-4.7497,-4.7274,-4.7274,-4.7274,-4.7274,-4.7431,-4.763,-4.7738,-4.8158,-4.8551,-4.8902,-4.9032,-4.9097,-4.9267,-4.9267,-4.9332,-4.9525,-4.9012,-4.8586,-4.8586,-4.8837,-4.8962,-4.8636,-4.8862,-4.8987,-2.5825,-2.5478,-2.4676,-2.4342,-2.4329,-2.4596,-2.5147,-2.6031,-2.782,-2.9048,-3.0103,-3.2167,-3.3292,-3.3785,-3.4379,0.0,-3.4141,-3.4531,-3.4707,-3.4746,-3.4746,-3.4785,-3.4805,-3.4805,-3.4805,-3.4805,-3.4805,-3.459,-3.4199,-3.418,-3.375,-3.291,-3.2519,-3.2326,-3.2168,-3.2207,-3.2402,-3.2793,-3.2832,-3.3047,-3.3398,-3.3008,-3.2598,-3.2248,-3.1738,-3.1328,-3.0898,-3.0449,-3.0019,-2.9629,-2.918,-2.873,-2.8359,0.0,0.0,0.0,0.0,0.0,0.0,0.0,0.0,0.0,0.0,0.0,0.0,0.0,0.0,-3.3817,-3.5231,0.0,-3.7291,-3.7864,0.0,0.0,0.0,-4.1253,-4.2049,-4.3048,-4.3735,-4.3735,0.0,0.0,-4.6907,-4.7419,-4.7706,-4.7932,-4.8386,-4.8666,-4.8666,-4.8641,-4.8666,-4.8641,-4.8666,-4.8666,-4.8576,-4.8641,-4.8706,-4.9007,-4.9137,-4.9202,-4.9461,-4.9525,-4.959,-4.959,-4.959,-4.959,-4.959,-4.954,-4.959,-4.954,-4.9565,-4.9565,-4.9515,-4.954,-4.954,-2.6119,-2.5916,-2.5625,-2.5411,-2.5211,-2.558,-2.6212,-2.7087,-2.8399,-2.984,-3.1157,-3.226,-3.3225,-3.4115,-3.451,-3.4648,-3.4551,-3.4648,-3.4902,-3.5215,-3.5234,-3.5391,-3.5703,-3.5703,-3.5703,-3.5703,-3.5703,-3.5488,-3.5098,-3.5078,-3.4648,-3.3809,-3.3672,-3.3144,-3.2287,-3.248,-3.2695,-3.2793,-3.3105,-3.332,-3.3398,-3.3008,-3.2598,-3.2168,-3.1738,-3.1328,-3.0898,-3.0449,-3.0156,-3.0039,-2.9316,-2.8813,-2.8769,-2.8379,0.0,0.0,0.0,0.0,0.0,0.0,0.0,0.0,0.0,-3.2154,-3.3032,0.0,-3.4786,0.0,-3.6763,-3.7977,-3.894,-3.985,0.0,0.0,-4.1972,-4.2777,-4.2982,-4.3983,-4.4699,-4.4699,-4.5782,-4.6872,-4.7583,-4.8159,-4.866,-4.9121,-4.9257,-4.9332,-4.9332,-4.9332,-4.9357,-4.9332,-4.9357,-4.9332,-4.9332,-4.9332,-4.9357,-4.9461,-4.9461,-4.9525,-4.959,-4.959,-4.959,-4.959,-4.959,-4.959,-4.959,-4.959,-4.959,-4.959,-4.959,-4.959,-4.959,-4.959,-4.959,-2.6293,-2.6146,-2.6146,-2.6208,-2.6202,-2.6312,-2.6857,-2.7897,-2.891,-3.0153,-3.1553,-3.3031,-3.3928,-3.4489,-3.5062,-3.5176,-3.5019,-3.5195,-3.543,-3.5664,-3.5684,-3.5801,-3.6016,-3.6035,-3.6035,-3.6035,-3.6035,-3.5801,-3.541,-3.5391,-3.5039,-3.4355,-3.416,-3.3775,-3.3047,-3.3047,-3.3066,-3.3086,-3.3301,-3.3418,-3.3398,-3.2832,-3.2402,-3.2168,-3.1562,-3.1133,-3.0898,-3.0644,-3.041,-3.0195,-2.9726,-2.9316,-2.8945,-2.8535,-2.8237,0.0,0.0,0.0,0.0,0.0,0.0,0.0,0.0,0.0,0.0,0.0,-3.6549,-3.7577,-3.8587,-3.9564,-4.0609,-4.1242,-4.1834,-4.2461,-4.3443,-4.4136,-4.4255,-4.5022,-4.565,-4.5899,-4.6631,-4.7431,-4.8184,-4.8586,-4.8987,-4.9515,-4.959,-4.959,-4.959,-4.959,-4.959,-4.959,-4.959,-4.959,-4.959,-4.959,-4.959,-4.959,-4.959,-4.959,-4.959,-4.959,-4.959,-4.959,-4.959,-4.959,-4.959,-4.959,-4.959,-4.959,-4.959,-4.959,-4.959,-4.959,-4.959,-2.64,-2.64,-2.64,-2.6637,-2.7083,-2.6822,-2.741,-2.86,-2.9365,-3.0387,-3.179,-3.3806,-3.4781,-3.4883,-3.5588,-3.5753,-3.5508,-3.584,-3.6035,-3.6035,-3.6035,-3.6035,-3.6035,-3.6035,-3.6035,-3.6035,-3.6035,-3.582,-3.5488,-3.5469,-3.5234,-3.4785,-3.4355,-3.4121,-3.4043,-3.3633,-3.3418,-3.3418,-3.3418,-3.3418,-3.3418,-3.2598,-3.2229,-3.2129,-3.1348,-3.0898,-3.0898,-3.0898,-3.0703,-3.0312,-3.0234,-2.9863,-2.9121,-2.8691,-2.8564,0.0,-2.8793,0.0,0.0,0.0,0.0,0.0,0.0,0.0,0.0,-3.7215,-3.8561,-3.9853,-4.0474,-4.1219,-4.2231,-4.2453,-4.3037,-4.4236,-4.4858,-4.5301,-4.5623,-4.6024,-4.6527,-4.7079,-4.7205,-4.7631,-4.8586,-4.8812,-4.9088,-4.9515,-4.959,-4.959,-4.959,-4.959,-4.959,-4.959,-4.959,-4.959,-4.959,-4.959,-4.959,-4.959,-4.959,-4.959,-4.959,-4.959,-4.959,-4.959,-4.959,-4.959,-4.959,-4.959,-4.959,-4.959,-4.959,-4.959,-4.959,-4.959,-4.9565,-2.64,-2.64,-2.64,-2.686,-2.7476,-2.7421,-2.8097,-2.9311,-2.9833,-3.0973,-3.2527,-3.3575,-3.4314,-3.4876,-3.5363,-3.5704,-3.5918,-3.5976,-3.6035,-3.6035,-3.6035,-3.6035,-3.6035,-3.6035,-3.6035,-3.6035,-3.6035,-3.5976,-3.5898,-3.5898,-3.5684,-3.5254,-3.4805,-3.4394,-3.4127,0.0,0.0,0.0,-3.3418,-3.3418,-3.3398,-3.2598,-3.2229,-3.2148,-3.1328,0.0,-3.0898,-3.0898,-3.0859,-3.0742,-3.0391,0.0,0.0,0.0,0.0,0.0,0.0,0.0,0.0,0.0,0.0,0.0,-3.5855,-3.6767,-3.7287,-3.8948,-4.0333,-4.1241,-4.2058,-4.2768,-4.3419,-4.4294,-4.4978,-4.5262,-4.5764,-4.609,-4.615,-4.625,-4.6527,-4.7018,-4.7481,-4.8008,-4.8661,-4.9138,-4.9464,-4.9565,-4.959,-4.959,-4.959,-4.959,-4.959,-4.959,-4.959,-4.959,-4.959,-4.959,-4.959,-4.959,-4.959,-4.959,-4.959,-4.959,-4.959,-4.959,-4.959,-4.959,-4.959,-4.959,-4.959,-4.959,-4.959,-4.959,-4.959,-4.959,-4.9464,-2.64,-2.64,-2.64,-2.686,0.0,-2.7555,-2.8417,-2.9774,-2.994,-3.0867,-3.2474,-3.34,-3.4232,-3.4921,-3.5333,-3.5675,-3.6035,-3.6035,-3.6035,-3.6035,-3.6035,-3.6035,-3.6035,-3.6035,-3.6035,-3.6035,-3.6035,-3.6035,-3.6035,-3.6035,-3.582,-3.5391,-3.4922,-3.4492,-3.4062,-3.3633,-3.3418,-3.3418,-3.3418,-3.3418,-3.3398,-3.2812,-3.2383,-3.2229,-3.1543,0.0,0.0,0.0,0.0,0.0,0.0,0.0,0.0,0.0,0.0,-3.0,-3.0314,-3.0811,-3.1579,-3.2586,-3.391,-3.5409,-3.7286,-3.8593,-3.9206,-4.0533,-4.1501,-4.1943,-4.283,-4.3614,-4.4166,-4.4995,-4.5598,-4.5874,-4.615,-4.6326,-4.6326,-4.6326,-4.6527,-4.7054,-4.7581,-4.8134,-4.8686,-4.9238,-4.9565,-4.959,-4.959,-4.959,-4.959,-4.959,-4.959,-4.959,-4.959,-4.959,-4.959,-4.959,-4.959,-4.959,-4.959,-4.959,-4.959,-4.959,-4.959,-4.959,-4.959,-4.959,-4.959,-4.959,-4.959,-4.9565,-4.9364,-4.9188,-4.9188,-4.9188,-4.9113,-2.64,-2.64,-2.64,-2.686,-2.7555,-2.7555,-2.8544,-2.9992,0.0,0.0,0.0,-3.3209,-3.4094,-3.4921,-3.5264,-3.5606,-3.6016,-3.6035,-3.6035,-3.6035,-3.6035,-3.6035,-3.6035,-3.6035,-3.6035,-3.6035,-3.6035,-3.6035,-3.6035,-3.6035,-3.5801,-3.5391,-3.4922,-3.4453,-3.3965,-3.3594,-3.3418,-3.3418,-3.3418,-3.3418,-3.3398,-3.3008,-3.2598,-3.2168,-3.1738,-3.1309,-3.0898,-3.0898,-3.0898,-3.0898,-3.0898,-3.0723,-3.0351,-3.0312,-3.029,-3.0238,-3.0534,-3.109,-3.1973,-3.3157,-3.4549,-3.6122,-3.8327,-4.0037,-4.0938,-4.1688,-4.2128,-4.2228,-4.3288,-4.4141,-4.4593,-4.5246,-4.5824,-4.6276,-4.6326,-4.6326,-4.6326,-4.6326,-4.6527,-4.6993,-4.7444,-4.8033,-4.8686,-4.9138,-4.949,-4.959,-4.959,-4.959,-4.959,-4.959,-4.959,-4.959,-4.959,-4.959,-4.959,-4.959,-4.959,-4.959,-4.959,-4.959,-4.959,-4.959,-4.959,-4.959,-4.959,-4.959,-4.959,-4.949,-4.9464,-4.9439,-4.9012,-4.8611,-4.8611,-4.8598,-4.846,-2.64,-2.64,-2.64,-2.686,-2.7555,-2.7555,-2.8414,-2.9747,-3.0788,-3.1722,-3.2522,-3.2773,-3.3608,-3.4921,-3.499,-3.5333,-3.6035,-3.6035,-3.6035,-3.6035,-3.6035,-3.6035,-3.6035,-3.6035,-3.6035,-3.6035,-3.6035,-3.6035,-3.6035,-3.6035,-3.5801,-3.5391,-3.4922,-3.4297,-3.3574,-3.3457,-3.3418,-3.3418,-3.3418,-3.3418,-3.3418,-3.3008,-3.2598,-3.2168,-3.1758,-3.1309,-3.0918,-3.0898,-3.0898,-3.0898,-3.0898,-3.0859,-3.0801,-3.0781,-3.0878,-3.1088,-3.1434,-3.2064,-3.2952,-3.3655,-3.5099,-3.7325,-3.9249,-4.0563,-4.1176,-4.1558,-4.1947,-4.2445,-4.3669,-4.4543,-4.4669,-4.5573,-4.62,-4.6301,-4.6326,-4.6326,-4.6326,-4.6326,-4.6502,-4.7029,-4.7179,-4.7657,-4.851,-4.8875,-4.9063,-4.9464,-4.9565,-4.959,-4.959,-4.959,-4.959,-4.959,-4.959,-4.959,-4.959,-4.959,-4.959,-4.959,-4.959,-4.959,-4.959,-4.959,-4.959,-4.959,-4.9565,-4.954,-4.954,-4.9188,-4.8937,-4.8862,-4.8435,-4.8058,-4.8033,-4.7732,-4.7405,-2.64,-2.64,-2.64,-2.686,-2.7712,-2.8573,-2.9264,-2.9931,-3.1001,-3.1828,-3.2322,-3.2579,-3.3539,-3.4853,-3.4921,-3.5333,-3.6035,-3.6035,-3.6035,-3.6035,-3.6035,-3.6035,-3.6035,-3.6035,-3.6035,-3.6035,-3.6035,-3.6035,-3.6035,-3.6035,-3.5684,-3.5019,-3.4336,-3.3809,-3.3437,-3.3418,-3.3418,-3.3418,-3.3418,-3.3418,-3.3418,-3.3242,-3.2832,-3.2187,-3.1973,-3.1562,-3.0918,-3.0898,-3.0898,-3.0898,-3.0898,-3.0898,-3.0898,-3.0898,-3.0937,-3.1054,-3.1498,-3.2177,-3.3,-3.4602,-3.6272,-3.8045,-3.9358,-4.0354,-4.095,-4.1717,-4.2389,-4.2935,-4.3994,-4.4744,-4.507,-4.5824,-4.6326,-4.6326,-4.6326,-4.6326,-4.6326,-4.6326,-4.6426,-4.6677,-4.6892,-4.733,-4.7807,-4.8134,-4.851,-4.9038,-4.9364,-4.959,-4.959,-4.959,-4.959,-4.959,-4.959,-4.959,-4.959,-4.959,-4.959,-4.959,-4.959,-4.959,-4.959,-4.959,-4.959,-4.9565,-4.9364,-4.9163,-4.9138,-4.8686,-4.8385,-4.8259,-4.7857,-4.7531,-4.7431,-4.7054,-4.6728,-2.64,-2.64,-2.64,-2.686,-2.7805,-2.9431,-3.0129,-3.0222,-3.1163,-3.1799,-3.2227,-3.2561,-3.3539,-3.4853,-3.4921,-3.5333,-3.5947,-3.6035,-3.6035,-3.6035,-3.6035,-3.6035,-3.6035,-3.6035,-3.6035,-3.6035,-3.6035,-3.6035,-3.6035,-3.6035,-3.5566,-3.4687,-3.3848,-3.3418,-3.3418,-3.3418,-3.3418,-3.3418,-3.3418,-3.3418,-3.3418,-3.3418,-3.3066,-3.2383,-3.2207,-3.1816,-3.1094,-3.0937,-3.0898,-3.0898,-3.0898,-3.0898,-3.0898,-3.0898,-3.0898,-3.0957,-3.154,-3.2362,-3.3396,-3.543,-3.7148,-3.8238,-3.9162,-3.9931,-4.0595,-4.1573,-4.2535,-4.3193,-4.4003,-4.4753,-4.5397,-4.5974,-4.6326,-4.6326,-4.6326,-4.6326,-4.6326,-4.6326,-4.6326,-4.6351,-4.6677,-4.6918,-4.7179,-4.7481,-4.8008,-4.8686,-4.9138,-4.9414,-4.9565,-4.959,-4.959,-4.959,-4.959,-4.959,-4.959,-4.959,-4.959,-4.959,-4.959,-4.959,-4.9565,-4.9515,-4.9414,-4.9314,-4.8912,-4.8636,-4.8535,-4.8109,-4.7807,-4.7707,-4.7305,-4.6954,-4.6928,-4.6652,-4.6351,-2.64,-2.64,-2.64,-2.686,-2.779,-2.9353,-3.0052,-3.0238,-3.142,-3.2183,-3.2535,-3.2667,-3.3539,-3.4784,-3.4921,-3.5333,-3.5967,-3.6035,-3.6035,-3.6035,-3.6035,-3.6035,-3.6035,-3.6035,-3.6035,-3.6035,-3.6035,-3.6035,-3.6016,-3.5976,-3.5547,-3.4687,-3.3848,-3.3418,-3.3418,-3.3418,-3.3418,-3.3418,-3.3418,-3.3418,-3.3418,-3.3418,-3.3203,-3.2754,-3.2363,-3.1953,-3.1484,-3.1094,-3.0898,-3.0898,-3.0898,-3.0898,-3.0898,-3.0898,-3.0898,-3.0996,-3.1897,-3.3123,-3.4677,-3.5957,-3.6993,-3.7699,-3.8716,-3.9579,-4.0223,-4.0884,-4.1816,-4.2839,-4.3763,-4.4602,-4.5388,-4.5999,-4.6301,-4.6326,-4.6326,-4.6326,-4.6326,-4.6326,-4.6326,-4.6326,-4.6401,-4.6577,-4.7004,-4.7118,-4.7631,-4.846,-4.8711,-4.9012,-4.9414,-4.9515,-4.9565,-4.959,-4.959,-4.959,-4.959,-4.959,-4.959,-4.959,-4.959,-4.9565,-4.9464,-4.9163,-4.89,-4.8786,-4.8385,-4.8033,-4.7883,-4.7581,-4.723,-4.7154,-4.6828,-4.6426,-4.6401,-4.6351,-4.6326,-2.64,-2.64,-2.64,-2.686,-2.779,-2.9119,-2.9912,-3.0176,-3.1225,-3.1977,-3.2621,-3.2912,-3.3757,-3.4921,-3.4921,-3.5333,-3.6016,-3.6035,-3.6035,-3.6035,-3.6035,-3.6035,-3.6035,-3.6035,-3.6035,-3.6035,-3.6035,-3.6035,-3.5937,-3.5508,-3.5039,-3.4648,-3.3848,-3.3418,-3.3418,-3.3418,-3.3418,-3.3418,-3.3418,-3.3418,-3.3418,-3.3418,-3.3223,-3.2832,-3.2637,-3.2344,-3.1914,-3.1484,-3.1269,-3.125,-3.1035,-3.0996,-3.125,-3.125,-3.1387,-3.17,-3.2695,-3.3799,-3.5044,-3.599,-3.679,-3.7449,-3.8379,-3.9285,-3.9954,-4.0797,-4.187,-4.2939,-4.3761,-4.4643,-4.5764,-4.6175,-4.6326,-4.6326,-4.6326,-4.6326,-4.6326,-4.6326,-4.6326,-4.6326,-4.6326,-4.6376,-4.6652,-4.6928,-4.7244,-4.7782,-4.8033,-4.8485,-4.8987,-4.9113,-4.9264,-4.9515,-4.959,-4.959,-4.959,-4.959,-4.959,-4.959,-4.959,-4.954,-4.9163,-4.8987,-4.8686,-4.8335,-4.7807,-4.7481,-4.7456,-4.7029,-4.6627,-4.6602,-4.6577,-4.6326,-4.6326,-4.6326,-4.6326,-2.64,-2.6386,-2.6465,-2.7018,-2.7726,-2.8822,-2.9586,-3.0253,-3.1169,-3.1993,-3.2645,-3.3173,-3.3925,-3.4677,-3.484,-3.5333,-3.5947,-3.6035,-3.6035,-3.6035,-3.6035,-3.6035,-3.6035,-3.6035,-3.6035,-3.6035,-3.6035,-3.6035,-3.5918,-3.5137,-3.4687,-3.457,-3.3848,-3.3418,-3.3418,-3.3418,-3.3418,-3.3418,-3.3418,-3.3418,-3.3418,-3.3418,-3.3281,-3.2988,-3.2851,-3.2656,-3.2405,-3.1914,-3.1699,-3.168,-3.1406,-3.1387,-3.166,-3.1699,-3.1955,-3.2488,-3.3293,-3.4248,-3.5225,-3.5987,-3.6728,-3.7374,-3.8216,-3.899,-3.9672,-4.0716,-4.1828,-4.2936,-4.3831,-4.4824,-4.592,-4.624,-4.6326,-4.6326,-4.6326,-4.6326,-4.6326,-4.6326,-4.6326,-4.6326,-4.6326,-4.6326,-4.6376,-4.6652,-4.6892,-4.7205,-4.7481,-4.7908,-4.8435,-4.8686,-4.8937,-4.9314,-4.9464,-4.959,-4.959,-4.959,-4.959,-4.954,-4.9515,-4.9188,-4.8761,-4.8636,-4.8284,-4.7682,-4.7205,-4.6954,-4.6903,-4.6527,-4.6326,-4.6326,-4.6326,-4.6326,-4.6326,-4.6326,-4.6326,-2.64,-2.6465,-2.6795,-2.7175,-2.7712,-2.8573,-2.9353,-3.0206,-3.1408,-3.2205,-3.2649,-3.3412,-3.4037,-3.4471,-3.4727,-3.5333,-3.5967,-3.6035,-3.6035,-3.6035,-3.6035,-3.6035,-3.6035,-3.6035,-3.6035,-3.6035,-3.6035,-3.6035,-3.5957,-3.5137,-3.4687,-3.4648,-3.3848,-3.3418,-3.3418,-3.3418,-3.3418,-3.3418,-3.3418,-3.3418,-3.3418,-3.3418,-3.3418,-3.334,-3.3008,-3.2812,-3.2715,-3.2363,-3.2148,-3.2209,-3.2131,-3.215,-3.219,-3.2148,-3.2527,-3.3208,-3.3595,-3.4268,-3.5232,-3.5972,-3.6667,-3.7335,-3.7998,-3.8679,-3.94,-4.0491,-4.1638,-4.2711,-4.3877,-4.4897,-4.5693,-4.612,-4.6301,-4.6326,-4.6326,-4.6326,-4.6326,-4.6326,-4.6326,-4.6326,-4.6326,-4.6326,-4.6326,-4.6326,-4.6602,-4.6867,-4.7093,-4.7355,-4.7857,-4.8385,-4.8661,-4.8862,-4.9188,-4.959,-4.959,-4.959,-4.959,-4.9439,-4.9138,-4.8761,-4.841,-4.8033,-4.7556,-4.7104,-4.6753,-4.6502,-4.6376,-4.6326,-4.6326,-4.6326,-4.6326,-4.6326,-4.6326,-4.6326,-4.6326,-2.64,-2.6465,-2.686,-2.7254,-2.7633,-2.8275,-2.9119,-3.0206,-3.1148,-3.2027,-3.2641,-3.3447,-3.4001,-3.4456,-3.4746,-3.5196,-3.5675,-3.5899,-3.6035,-3.6035,-3.6035,-3.6035,-3.6035,-3.6035,-3.6035,-3.6035,-3.6035,-3.6035,-3.5918,-3.5117,-3.4687,-3.4551,-3.3848,-3.3418,-3.3418,-3.3418,-3.3418,-3.3418,-3.3418,-3.3418,-3.3418,-3.3418,-3.3418,-3.3418,-3.3281,-3.3203,-3.3203,-3.2793,-3.2559,-3.2578,-3.2385,-3.2305,-3.2559,-3.2832,-3.3152,-3.3664,-3.4015,-3.4448,-3.5087,-3.5665,-3.6279,-3.6728,-3.7577,-3.8515,-3.9491,-4.0708,-4.1885,-4.289,-4.4026,-4.4951,-4.544,-4.5939,-4.6326,-4.6326,-4.6326,-4.6326,-4.6326,-4.6326,-4.6326,-4.6326,-4.6326,-4.6326,-4.6326,-4.6326,-4.6401,-4.6552,-4.6602,-4.6853,-4.728,-4.7606,-4.7883,-4.8209,-4.8686,-4.9063,-4.9063,-4.9389,-4.9515,-4.9163,-4.8875,-4.8309,-4.7883,-4.7581,-4.7129,-4.6778,-4.6401,-4.6351,-4.6326,-4.6326,-4.6326,-4.6326,-4.6326,-4.6326,-4.6326,-4.6326,-4.6326,-2.64,-2.6479,-2.6702,-2.7097,-2.7633,-2.7961,-2.8808,-3.0129,-3.0994,-3.1863,-3.2643,-3.3548,-3.4126,-3.4303,-3.4794,-3.5173,-3.5352,-3.5811,-3.6035,-3.6035,-3.6035,-3.6035,-3.6035,-3.6035,-3.6035,-3.6035,-3.6035,-3.6035,-3.5957,-3.5273,-3.4863,-3.4648,-3.3965,-3.3555,-3.3437,-3.3418,-3.3418,-3.3418,-3.3418,-3.3418,-3.3418,-3.3418,-3.3418,-3.3418,-3.3418,-3.3418,-3.3418,-3.3144,-3.2988,-3.2949,-3.2715,-3.2715,-3.2988,-3.3262,-3.3481,-3.3733,-3.4173,-3.4485,-3.4797,-3.5418,-3.6055,-3.6423,-3.7214,-3.8198,-3.9356,-4.0684,-4.1803,-4.281,-4.3949,-4.4755,-4.5208,-4.5757,-4.618,-4.624,-4.6326,-4.6326,-4.6326,-4.6326,-4.6326,-4.6326,-4.6326,-4.6326,-4.6326,-4.6326,-4.6326,-4.6326,-4.6326,-4.6502,-4.6778,-4.7054,-4.7168,-4.7606,-4.8134,-4.8435,-4.8485,-4.8686,-4.9063,-4.8812,-4.8259,-4.7782,-4.7431,-4.7104,-4.6803,-4.6451,-4.6326,-4.6326,-4.6326,-4.6326,-4.6326,-4.6326,-4.6326,-4.6326,-4.6326,-4.6326,-4.6326,-2.64,-2.6386,-2.6386,-2.686,-2.7555,-2.7633,-2.8573,-3.0052,-3.0994,-3.1824,-3.27,-3.3821,-3.4082,-3.409,-3.4938,-3.53,-3.5097,-3.5675,-3.6035,-3.6035,-3.6035,-3.6035,-3.6035,-3.6035,-3.6035,-3.6035,-3.6035,-3.6035,-3.5996,-3.5547,-3.5117,-3.4687,-3.4258,-3.3789,-3.3418,-3.3418,-3.3418,-3.3418,-3.3418,-3.3418,-3.3418,-3.3418,-3.3418,-3.3418,-3.3418,-3.3418,-3.3418,-3.3398,-3.3359,-3.3379,-3.3359,-3.3398,-3.3359,-3.3418,-3.3418,-3.3544,-3.4047,-3.436,-3.4485,-3.5294,-3.5932,-3.6383,-3.7054,-3.7984,-3.9081,-4.0288,-4.1445,-4.2559,-4.3579,-4.4446,-4.484,-4.5392,-4.5939,-4.6266,-4.624,-4.6326,-4.6326,-4.6326,-4.6326,-4.6326,-4.6326,-4.6326,-4.6326,-4.6326,-4.6326,-4.6326,-4.6326,-4.6326,-4.6451,-4.6753,-4.7054,-4.7205,-4.7556,-4.7908,-4.7908,-4.7933,-4.8284,-4.841,-4.7757,-4.723,-4.7029,-4.6753,-4.6602,-4.6326,-4.6326,-4.6326,-4.6326,-4.6326,-4.6326,-4.6326,-4.6326,-4.6326,-4.6326,-4.6326,-4.6326,-2.64,-2.64,-2.64,-2.686,-2.7555,-2.7555,-2.8573,-3.0144,-3.0763,-3.1609,-3.2674,-3.3558,-3.3933,-3.4054,-3.5012,-3.53,-3.5009,-3.5675,-3.6035,-3.6035,-3.6035,-3.6035,-3.6035,-3.6035,-3.6035,-3.6035,-3.6035,-3.6035,-3.5937,-3.5605,-3.5156,-3.4707,-3.4277,-3.3848,-3.3457,-3.3418,-3.3418,-3.3418,-3.3418,-3.3418,-3.3418,-3.3418,-3.3418,-3.3418,-3.3418,-3.3418,-3.3418,-3.3418,-3.3418,-3.3418,-3.3418,-3.3418,-3.3418,-3.3418,-3.3418,-3.3418,-3.3796,-3.4173,-3.4423,-3.4922,-3.5479,-3.6097,-3.6924,-3.791,-3.8989,-4.0389,-4.1575,-4.2411,-4.3357,-4.4051,-4.4508,-4.5061,-4.5574,-4.5939,-4.612,-4.6326,-4.6326,-4.6326,-4.6326,-4.6326,-4.6326,-4.6326,-4.6326,-4.6326,-4.6326,-4.6326,-4.6326,-4.6326,-4.6351,-4.6476,-4.6552,-4.6602,-4.7029,-4.7355,-4.7355,-4.7355,-4.7531,-4.7707,-4.728,-4.6903,-4.6702,-4.6552,-4.6376,-4.6326,-4.6326,-4.6326,-4.6326,-4.6326,-4.6326,-4.6326,-4.6326,-4.6326,-4.6326,-4.6326,-4.6326,-2.64,-2.64,-2.64,-2.6847,-2.7555,-2.7555,-2.8573,-3.0052,-3.0593,-3.1517,-3.2614,-3.3638,-3.3909,-3.4035,-3.5018,-3.5312,-3.5028,-3.5538,-3.5879,-3.5947,-3.6035,-3.6035,-3.6035,-3.6035,-3.6035,-3.6035,-3.6035,-3.6035,-3.6016,-3.5742,-3.541,-3.4961,-3.4531,-3.4101,-3.3691,-3.3496,-3.3418,-3.3418,-3.3418,-3.3418,-3.3418,-3.3418,-3.3418,-3.3418,-3.3418,-3.3418,-3.3418,-3.3418,-3.3418,-3.3418,-3.3418,-3.3418,-3.3418,-3.3418,-3.3418,-3.3481,-3.3733,-3.3985,-3.4235,-3.4673,-3.5108,-3.581,-3.6765,-3.7857,-3.8897,-4.0388,-4.1451,-4.2241,-4.3114,-4.374,-4.4113,-4.4693,-4.5208,-4.5574,-4.6059,-4.624,-4.6326,-4.6326,-4.6326,-4.6326,-4.6326,-4.6326,-4.6326,-4.6326,-4.6326,-4.6326,-4.6326,-4.6326,-4.6326,-4.6326,-4.6326,-4.6351,-4.6577,-4.6778,-4.6828,-4.6828,-4.6767,-4.6878,-4.6828,-4.6627,-4.6451,-4.6426,-4.6326,-4.6326,-4.6326,-4.6326,-4.6326,-4.6326,-4.6326,-4.6326,-4.6326,-4.6326,-4.6326,-4.6326,-4.625,-2.64,-2.64,-2.64,-2.686,-2.7555,-2.7633,-2.8573,-2.9974,-3.0516,-3.1363,-3.2588,-3.3693,-3.4101,-3.4069,-3.4972,-3.5257,-3.5035,-3.5333,-3.5743,-3.5947,-3.6035,-3.6035,-3.6035,-3.6035,-3.6035,-3.6035,-3.6035,-3.6035,-3.6016,-3.5976,-3.5801,-3.5332,-3.4922,-3.4492,-3.4043,-3.3652,-3.3476,-3.3418,-3.3418,-3.3418,-3.3418,-3.3418,-3.3418,-3.3418,-3.3418,-3.3418,-3.3418,-3.3418,-3.3418,-3.3418,-3.3418,-3.3418,-3.3418,-3.3418,-3.3418,-3.3418,-3.367,-3.3859,-3.4047,-3.4485,-3.5025,-3.55,-3.6581,-3.7588,-3.8755,-3.9977,-4.1099,-4.2056,-4.2799,-4.3389,-4.3826,-4.4385,-4.4902,-4.5331,-4.5939,-4.6266,-4.6326,-4.6326,-4.6326,-4.6326,-4.6326,-4.6326,-4.6326,-4.6326,-4.6326,-4.6326,-4.6326,-4.6326,-4.6326,-4.6326,-4.6326,-4.6351,-4.6426,-4.6451,-4.6577,-4.6577,-4.6577,-4.6577,-4.6552,-4.6476,-4.6351,-4.6326,-4.6326,-4.6326,-4.6326,-4.6326,-4.6326,-4.6326,-4.6326,-4.6326,-4.6326,-4.6326,-4.6326,-4.6326,-4.6125,-2.64,-2.64,-2.64,-2.686,-2.7647,-2.7633,-2.8431,-2.9601,-3.0129,-3.1055,-3.213,-3.312,-3.3598,-3.3907,-3.4721,-3.5082,-3.5004,-3.5333,-3.5675,-3.5967,-3.6035,-3.6035,-3.6035,-3.6035,-3.6035,-3.6035,-3.6035,-3.6035,-3.6035,-3.6035,-3.582,-3.541,-3.5254,-3.4805,-3.416,-3.3965,-3.373,-3.3457,-3.3418,-3.3418,-3.3418,-3.3418,-3.3418,-3.3418,-3.3418,-3.3418,-3.3418,-3.3418,-3.3418,-3.3418,-3.3418,-3.3418,-3.3418,-3.3418,-3.3418,-3.3418,-3.3481,-3.367,-3.3922,-3.4318,-3.4814,-3.5537,-3.6603,-3.7636,-3.8552,-3.967,-4.0686,-4.1486,-4.2166,-4.2799,-4.3365,-4.4051,-4.4755,-4.5574,-4.5999,-4.6266,-4.6326,-4.6326,-4.6326,-4.6326,-4.6326,-4.6326,-4.6326,-4.6326,-4.6326,-4.6326,-4.6326,-4.6326,-4.6326,-4.6326,-4.6326,-4.6326,-4.6351,-4.6326,-4.6351,-4.6351,-4.6351,-4.6376,-4.6376,-4.6376,-4.6326,-4.6326,-4.6326,-4.6326,-4.6326,-4.6326,-4.6326,-4.6326,-4.6326,-4.6326,-4.6326,-4.6326,-4.6326,-4.6301,-4.5999,-2.64,-2.64,-2.64,-2.6781,-2.7412,-2.7555,-2.8275,-2.9212,-2.9897,-3.067,-3.1731,-3.2574,-3.318,-3.3599,-3.427,-3.4563,-3.4703,-3.5059,-3.547,-3.5743,-3.5947,-3.6016,-3.6035,-3.6035,-3.6035,-3.6035,-3.6035,-3.6035,-3.6035,-3.6035,-3.5879,-3.5664,-3.5469,-3.5117,-3.4687,-3.4219,-3.3965,-3.3711,-3.3535,-3.3418,-3.3418,-3.3418,-3.3418,-3.3418,-3.3418,-3.3418,-3.3418,-3.3418,-3.3418,-3.3418,-3.3418,-3.3418,-3.3418,-3.3418,-3.3418,-3.3418,-3.3418,-3.3481,-3.3709,-3.4143,-3.4762,-3.5466,-3.6616,-3.7545,-3.8399,-3.9455,-4.0539,-4.0864,-4.1719,-4.242,-4.2925,-4.374,-4.4607,-4.5392,-4.5878,-4.6145,-4.624,-4.6326,-4.6326,-4.6326,-4.6326,-4.6326,-4.6326,-4.6326,-4.6326,-4.6326,-4.6326,-4.6326,-4.6326,-4.6326,-4.6326,-4.6326,-4.6326,-4.6326,-4.6326,-4.6326,-4.6326,-4.6326,-4.6326,-4.6326,-4.6326,-4.6326,-4.6326,-4.6326,-4.6326,-4.6326,-4.6326,-4.6326,-4.6326,-4.6326,-4.6326,-4.6326,-4.6326,-4.6301,-4.5999,-2.64,-2.64,-2.64,-2.6637,-2.7032,-2.749,-2.8104,-2.8886,-2.9664,-3.05,-3.1328,-3.2116,-3.2662,-3.3131,-3.3607,-3.4009,-3.437,-3.4784,-3.5196,-3.5606,-3.5879,-3.6035,-3.6035,-3.6035,-3.6035,-3.6035,-3.6035,-3.6035,-3.6035,-3.6035,-3.6035,-3.5898,-3.5625,-3.543,-3.5156,-3.4609,-3.4238,-3.4082,-3.375,-3.3574,-3.3535,-3.3476,-3.3418,-3.3418,-3.3418,-3.3418,-3.3418,-3.3418,-3.3418,-3.3418,-3.3418,-3.3418,-3.3418,-3.3418,-3.3418,-3.3418,-3.3418,-3.3437,-3.3618,-3.4231,-3.4784,-3.5409,-3.6619,-3.7574,-3.8157,-3.928,-4.0084,-4.0409,-4.1399,-4.2102,-4.2736,-4.3615,-4.4422,-4.5123,-4.5574,-4.5878,-4.618,-4.6266,-4.6326,-4.6326,-4.6326,-4.6326,-4.6326,-4.6326,-4.6326,-4.6326,-4.6326,-4.6326,-4.6326,-4.6326,-4.6326,-4.6326,-4.6326,-4.6326,-4.6326,-4.6326,-4.6326,-4.6326,-4.6326,-4.6326,-4.6326,-4.6326,-4.6326,-4.6326,-4.6326,-4.6326,-4.6326,-4.6326,-4.6326,-4.6326,-4.6326,-4.6326,-4.6326,-4.6326,-4.6125,-2.64,-2.64,-2.64,-2.6623,-2.7032,-2.749,-2.7961,-2.851,-2.929,-2.9899,-3.0526,-3.1308,-3.1885,-3.2406,-3.3073,-3.3621,-3.3992,-3.4577,-3.5264,-3.5879,-3.5947,-3.6035,-3.6035,-3.6035,-3.6035,-3.6035,-3.6035,-3.6035,-3.6035,-3.6035,-3.6035,-3.5996,-3.5898,-3.5723,-3.5391,-3.5176,-3.4902,-3.457,-3.4141,-3.3945,-3.3848,-3.3633,-3.3496,-3.3457,-3.3418,-3.3418,-3.3418,-3.3418,-3.3418,-3.3418,-3.3418,-3.3418,-3.3418,-3.3418,-3.3418,-3.3437,-3.3457,-3.3574,-3.3951,-3.4384,-3.4958,-3.5685,-3.6471,-3.7369,-3.8138,-3.8663,-3.9473,-4.0127,-4.0841,-4.1655,-4.2799,-4.349,-4.4199,-4.4755,-4.5208,-4.5574,-4.5878,-4.612,-4.624,-4.6326,-4.6326,-4.6326,-4.6326,-4.6326,-4.6326,-4.6326,-4.6326,-4.6326,-4.6326,-4.6326,-4.6326,-4.6326,-4.6326,-4.6326,-4.6326,-4.6326,-4.6326,-4.6326,-4.6326,-4.6326,-4.6326,-4.6326,-4.6326,-4.6326,-4.6326,-4.6326,-4.6326,-4.6326,-4.6326,-4.6326,-4.6326,-4.6326,-4.6326,-4.6326,-4.5999,-2.64,-2.64,-2.64,-2.6544,-2.6781,-2.7175,-2.7485,-2.7919,-2.8666,-2.9258,-2.9729,-3.0383,-3.1113,-3.1837,-3.2435,-3.3002,-3.3733,-3.4508,-3.5333,-3.5879,-3.6035,-3.6035,-3.6035,-3.6035,-3.6035,-3.6035,-3.6035,-3.6035,-3.6035,-3.6035,-3.6035,-3.6035,-3.6035,-3.5918,-3.5664,-3.5508,-3.5254,-3.5,-3.459,-3.4375,-3.4297,-3.416,-3.3887,-3.3691,-3.3535,-3.3418,-3.3418,-3.3418,-3.3418,-3.3418,-3.3418,-3.3418,-3.3418,-3.3418,-3.3418,-3.3437,-3.3652,-3.3789,-3.4107,-3.4668,-3.5231,-3.5845,-3.6376,-3.7084,-3.7775,-3.8237,-3.8835,-3.9691,-4.0323,-4.1164,-4.261,-4.3326,-4.3888,-4.4508,-4.5025,-4.5453,-4.5757,-4.6059,-4.6326,-4.6326,-4.6326,-4.6326,-4.6326,-4.6326,-4.6326,-4.6326,-4.6326,-4.6326,-4.6326,-4.6326,-4.6326,-4.6326,-4.6326,-4.6326,-4.6326,-4.6326,-4.6326,-4.6326,-4.6326,-4.6326,-4.6326,-4.6326,-4.6326,-4.6326,-4.6326,-4.6326,-4.6326,-4.6326,-4.6326,-4.6326,-4.6326,-4.6326,-4.6225,-4.6075,-4.5623,-2.6253,-2.6253,-2.6253,-2.6266,-2.6331,-2.6711,-2.6951,-2.7207,-2.7947,-2.8548,-2.9076,-2.9493,-3.0349,-3.1253,-3.1855,-3.2491,-3.3469,-3.4439,-3.5264,-3.5811,-3.5947,-3.6016,-3.6035,-3.6035,-3.6035,-3.6035,-3.6035,-3.6035,-3.6035,-3.6035,-3.6035,-3.6035,-3.6035,-3.5996,-3.5918,-3.5703,-3.5527,-3.543,-3.5039,-3.4824,-3.4766,-3.4687,-3.4434,-3.418,-3.3926,-3.375,-3.375,-3.373,-3.3672,-3.3633,-3.3613,-3.3613,-3.3594,-3.3535,-3.3516,-3.3555,-3.3945,-3.4238,-3.4492,-3.5007,-3.5485,-3.5897,-3.6281,-3.6816,-3.7415,-3.7904,-3.8437,-3.9144,-3.9931,-4.0971,-4.2166,-4.2925,-4.3553,-4.4175,-4.4816,-4.5331,-4.5696,-4.5999,-4.618,-4.6326,-4.6326,-4.6326,-4.6326,-4.6326,-4.6326,-4.6326,-4.6326,-4.6326,-4.6326,-4.6326,-4.6326,-4.6326,-4.6326,-4.6326,-4.6326,-4.6326,-4.6326,-4.6326,-4.6326,-4.6326,-4.6326,-4.6326,-4.6326,-4.6326,-4.6326,-4.6326,-4.6326,-4.6326,-4.6326,-4.6326,-4.6326,-4.6326,-4.61,-4.5824,-4.5296,-2.5651,-2.5651,-2.5651,-2.5665,-2.5742,-2.6049,-2.6419,-2.6808,-2.734,-2.7997,-2.8666,-2.909,-2.976,-3.0574,-3.1415,-3.2403,-3.3608,-3.4508,-3.5127,-3.5606,-3.5811,-3.6035,-3.6035,-3.6035,-3.6035,-3.6035,-3.6035,-3.6035,-3.6035,-3.6035,-3.6035,-3.6035,-3.6035,-3.6035,-3.6016,-3.5937,-3.5859,-3.5801,-3.5469,-3.5293,-3.5215,-3.4941,-3.4746,-3.459,-3.4434,-3.4375,-3.4414,-3.4453,-3.4492,-3.4492,-3.4492,-3.4453,-3.4355,-3.4121,-3.4023,-3.4043,-3.4355,-3.4726,-3.5019,-3.5254,-3.5586,-3.5936,-3.6296,-3.6654,-3.7146,-3.7549,-3.8083,-3.8946,-3.9997,-4.1164,-4.2166,-4.2799,-4.3365,-4.3927,-4.4446,-4.5025,-4.5331,-4.5696,-4.5999,-4.618,-4.624,-4.6326,-4.6326,-4.6326,-4.6326,-4.6326,-4.6326,-4.6326,-4.6326,-4.6326,-4.6326,-4.6326,-4.6326,-4.6326,-4.6326,-4.6326,-4.6326,-4.6326,-4.6326,-4.6326,-4.6326,-4.6326,-4.6326,-4.6326,-4.6326,-4.6326,-4.6326,-4.6326,-4.6326,-4.6326,-4.6326,-4.6326,-4.6075,-4.5799,-4.5271,-2.5518,-2.5518,-2.5518,-2.5518,-2.5518,-2.5657,-2.5957,-2.6198,-2.6622,-2.7138,-2.7806,-2.8374,-2.9168,-3.0101,-3.0922,-3.2193,-3.359,-3.4577,-3.5127,-3.547,-3.5811,-3.6035,-3.6035,-3.6035,-3.6035,-3.6035,-3.6035,-3.6035,-3.6035,-3.6035,-3.6035,-3.6035,-3.6035,-3.6035,-3.6035,-3.6016,-3.6035,-3.5957,-3.582,-3.5703,-3.5684,-3.5293,-3.5078,-3.5019,-3.4844,-3.4707,-3.4687,-3.4687,-3.4687,-3.4687,-3.4687,-3.4687,-3.4707,-3.4746,-3.4648,-3.4531,-3.4824,-3.5137,-3.541,-3.5566,-3.584,-3.5957,-3.62,-3.6403,-3.6742,-3.7213,-3.7816,-3.888,-3.9801,-4.0906,-4.1678,-4.242,-4.2925,-4.3514,-4.4137,-4.4631,-4.5061,-4.5514,-4.5817,-4.6059,-4.6205,-4.6266,-4.6326,-4.6326,-4.6326,-4.6326,-4.6326,-4.6326,-4.6326,-4.6326,-4.6326,-4.6326,-4.6326,-4.6326,-4.6326,-4.6326,-4.6326,-4.6326,-4.6326,-4.6326,-4.6326,-4.6326,-4.6326,-4.6326,-4.6326,-4.6326,-4.6326,-4.6326,-4.6326,-4.6326,-4.6326,-4.6276,-4.6075,-4.5723,-4.5121,-2.5344,-2.5331,-2.5331,-2.5331,-2.5331,-2.5331,-2.5424,-2.5623,-2.6029,-2.6481,-2.7085,-2.7783,-2.8722,-2.9783,-3.0852,-3.2123,-3.3678,-3.4439,-3.5059,-3.5333,-3.5811,-3.6035,-3.6035,-3.6035,-3.6035,-3.6035,-3.6035,-3.6035,-3.6035,-3.6035,-3.6035,-3.6035,-3.6035,-3.6035,-3.6035,-3.6035,-3.6035,-3.6035,-3.6035,-3.6035,-3.5937,-3.5723,-3.5527,-3.5508,-3.5156,-3.5,-3.5078,-3.5078,-3.5078,-3.5059,-3.5039,-3.5,-3.5039,-3.5312,-3.5332,-3.5098,-3.5332,-3.5469,-3.5605,-3.5781,-3.5976,-3.6016,-3.6035,-3.62,-3.6519,-3.7059,-3.775,-3.888,-3.9735,-4.0388,-4.11,-4.1847,-4.2483,-4.3051,-4.374,-4.4385,-4.4755,-4.5184,-4.5635,-4.5878,-4.6145,-4.6266,-4.6326,-4.6326,-4.6326,-4.6326,-4.6326,-4.6326,-4.6326,-4.6326,-4.6326,-4.6326,-4.6326,-4.6326,-4.6326,-4.6326,-4.6326,-4.6326,-4.6326,-4.6326,-4.6326,-4.6326,-4.6326,-4.6326,-4.6326,-4.6326,-4.6326,-4.6326,-4.6326,-4.6326,-4.6326,-4.6175,-4.5874,-4.5397,-4.4794,-2.4669,-2.4743,-2.4743,-2.4743,-2.4756,-2.477,-2.4965,-2.5308,-2.5663,-2.6282,-2.6983,-2.7783,-2.8578,-2.964,-3.126,-3.2263,-3.3121,-3.4232,-3.4921,-3.5127,-3.5675,-3.5967,-3.6035,-3.6035,-3.6035,-3.6035,-3.6035,-3.6035,-3.6035,-3.6035,-3.6035,-3.6035,-3.6035,-3.6035,-3.6035,-3.6035,-3.6035,-3.6035,-3.6035,-3.6035,-3.6016,-3.5957,-3.5918,-3.5879,-3.582,-3.5742,-3.5703,-3.5703,-3.5723,-3.5762,-3.582,-3.584,-3.5879,-3.5898,-3.5937,-3.5879,-3.5918,-3.5937,-3.5918,-3.5976,-3.6035,-3.6035,-3.6035,-3.6219,-3.6539,-3.7059,-3.7816,-3.8615,-3.9407,-3.9997,-4.0582,-4.1527,-4.2166,-4.2736,-4.3302,-4.3927,-4.436,-4.4939,-4.5392,-4.5757,-4.5939,-4.618,-4.6326,-4.6326,-4.6326,-4.6326,-4.6301,-4.6326,-4.6326,-4.6326,-4.618,-4.618,-4.612,-4.618,-4.612,-4.618,-4.624,-4.624,-4.6301,-4.6301,-4.6326,-4.6326,-4.6326,-4.6326,-4.6301,-4.6301,-4.6326,-4.6326,-4.6326,-4.625,-4.62,-4.5949,-4.5623,-4.5045,-4.4418,-2.4636,-2.4636,-2.4636,-2.4636,-2.4636,-2.4636,-2.471,-2.5005,-2.5506,-2.6019,-2.6531,-2.7623,-2.8794,-2.9997,-3.1489,-3.2333,-3.2911,-3.4024,-3.4715,-3.499,-3.547,-3.5811,-3.5967,-3.6035,-3.6035,-3.6035,-3.6035,-3.6035,-3.6035,-3.6035,-3.6035,-3.6035,-3.6035,-3.6035,-3.6035,-3.6035,-3.6035,-3.6035,-3.6035,-3.6035,-3.6035,-3.6035,-3.6035,-3.6035,-3.6035,-3.6035,-3.6035,-3.6035,-3.6035,-3.6035,-3.6035,-3.6035,-3.6016,-3.6016,-3.6016,-3.6016,-3.6016,-3.6016,-3.6016,-3.6035,-3.6035,-3.6035,-3.6016,-3.6132,-3.6519,-3.7011,-3.7616,-3.837,-3.9012,-3.9604,-4.0257,-4.1164,-4.1783,-4.2356,-4.2988,-4.349,-4.4051,-4.4631,-4.5147,-4.5453,-4.5817,-4.5939,-4.612,-4.618,-4.618,-4.6326,-4.624,-4.624,-4.624,-4.6326,-4.612,-4.5999,-4.6024,-4.5939,-4.5939,-4.5939,-4.612,-4.618,-4.624,-4.624,-4.6301,-4.6326,-4.618,-4.624,-4.6266,-4.6266,-4.624,-4.6301,-4.6301,-4.6175,-4.605,-4.5698,-4.5296,-4.4568,-4.3966,-2.4636,-2.4636,-2.4636,-2.4636,-2.4636,-2.4636,-2.4636,-2.471,-2.5433,-2.58,-2.6239,-2.7405,-2.8923,-3.0211,-3.1277,-3.2052,-3.2771,-3.3747,-3.4439,-3.4921,-3.5333,-3.5675,-3.5879,-3.6035,-3.6035,-3.6035,-3.6035,-3.6035,-3.6035,-3.6035,-3.6035,-3.6035,-3.6035,-3.6035,-3.6035,-3.6035,-3.6035,-3.6035,-3.6035,-3.6035,-3.6035,-3.6035,-3.6035,-3.6035,-3.6035,-3.6035,-3.6035,-3.6035,-3.6035,-3.6035,-3.6035,-3.6035,-3.6035,-3.6035,-3.6035,-3.6035,-3.6035,-3.6035,-3.6035,-3.6035,-3.6035,-3.6035,-3.6016,-3.6152,-3.6451,-3.6876,-3.7348,-3.8037,-3.8681,-3.9341,-3.9931,-4.0669,-4.1293,-4.1934,-4.261,-4.3114,-4.3678,-4.4261,-4.4779,-4.5147,-4.5453,-4.5696,-4.5817,-4.5939,-4.6059,-4.624,-4.624,-4.618,-4.612,-4.6059,-4.5939,-4.5696,-4.5696,-4.5696,-4.5696,-4.5757,-4.5878,-4.5999,-4.6059,-4.6059,-4.5999,-4.5939,-4.5878,-4.5939,-4.612,-4.5999,-4.5817,-4.6059,-4.625,-4.5999,-4.5698,-4.5347,-4.4869,-4.4166,-4.3582,-2.4636,-2.4636,-2.4636,-2.4636,-2.4636,-2.4636,-2.4636,-2.4636,-2.5433,-2.58,-2.6093,-2.7405,-2.8779,-2.9926,-3.0852,-3.1788,-3.2701,-3.3469,-3.4232,-3.4853,-3.5264,-3.5606,-3.5899,-3.6035,-3.6035,-3.6035,-3.6035,-3.6035,-3.6035,-3.6035,-3.6035,-3.6035,-3.6035,-3.6035,-3.6035,-3.6035,-3.6035,-3.6035,-3.6035,-3.6035,-3.6035,-3.6035,-3.6035,-3.6035,-3.6035,-3.6035,-3.6035,-3.6035,-3.6035,-3.6035,-3.6035,-3.6035,-3.6035,-3.6035,-3.6035,-3.6035,-3.6035,-3.6035,-3.6035,-3.6035,-3.6035,-3.6035,-3.6016,-3.6152,-3.6384,-3.6809,-3.728,-3.7616,-3.8283,-3.8814,-3.9407,-3.9953,-4.0777,-4.1357,-4.2061,-4.2673,-4.3302,-4.3927,-4.4446,-4.4779,-4.5086,-4.5392,-4.5514,-4.5635,-4.5757,-4.5939,-4.5878,-4.5817,-4.5635,-4.5574,-4.5453,-4.5331,-4.5331,-4.5331,-4.5331,-4.5392,-4.5514,-4.5574,-4.5635,-4.5574,-4.5453,-4.5453,-4.5574,-4.5574,-4.5635,-4.5514,-4.5403,-4.5608,-4.5675,-4.5614,-4.5321,-4.4644,-4.4086,-4.3437,-4.2974,-2.4636,-2.4636,-2.4636,-2.4636,-2.4636,-2.4636,-2.4636,-2.471,-2.5226,-2.5887,-2.6546,-2.7623,-2.8779,-2.9783,-3.071,-3.1647,-3.2631,-3.3209,-3.4024,-3.4646,-3.5127,-3.547,-3.5743,-3.6035,-3.6035,-3.6035,-3.6035,-3.6035,-3.6035,-3.6035,-3.6035,-3.6035,-3.6035,-3.6035,-3.6035,-3.6035,-3.6035,-3.6035,-3.6035,-3.6035,-3.6035,-3.6035,-3.6035,-3.6035,-3.6035,-3.6035,-3.6035,-3.6035,-3.6035,-3.6035,-3.6035,-3.6035,-3.6035,-3.6035,-3.6035,-3.6035,-3.6035,-3.6035,-3.6035,-3.6035,-3.6035,-3.6035,-3.6016,-3.6084,-3.6268,-3.6539,-3.6876,-3.7348,-3.795,-3.8503,-3.8946,-3.9757,-4.0539,-4.0906,-4.1486,-4.2166,-4.2862,-4.3553,-4.4051,-4.4446,-4.4779,-4.5086,-4.5208,-4.5331,-4.5453,-4.5574,-4.5514,-4.5453,-4.5208,-4.5086,-4.4963,-4.484,-4.4816,-4.4816,-4.4816,-4.4963,-4.5086,-4.5086,-4.5147,-4.5086,-4.4963,-4.527,-4.5392,-4.527,-4.5184,-4.5098,-4.5061,-4.5143,-4.5101,-4.4948,-4.4351,-4.354,-4.3044,-4.2655,-4.2443,-2.4636,-2.4636,-2.4636,-2.4636,-2.4636,-2.4636,-2.4636,-2.471,-2.5005,-2.5814,-2.6838,-2.7695,-2.8635,-2.9568,-3.0425,-3.1418,-3.2351,-3.2981,-3.3886,-3.4508,-3.499,-3.5333,-3.5743,-3.6035,-3.6035,-3.6035,-3.6035,-3.6035,-3.6035,-3.6035,-3.6035,-3.6035,-3.6035,-3.6035,-3.6035,-3.6035,-3.6035,-3.6035,-3.6035,-3.6035,-3.6035,-3.6035,-3.6035,-3.6035,-3.6035,-3.6035,-3.6035,-3.6035,-3.6035,-3.6035,-3.6035,-3.6035,-3.6035,-3.6035,-3.6035,-3.6035,-3.6035,-3.6035,-3.6035,-3.6035,-3.6035,-3.6035,-3.6035,-3.6035,-3.6084,-3.6336,-3.6722,-3.6944,-3.7549,-3.8171,-3.8549,-3.9231,-4.0018,-4.0388,-4.1035,-4.1719,-4.242,-4.3051,-4.3615,-4.4051,-4.4385,-4.457,-4.4717,-4.4755,-4.4878,-4.5086,-4.5208,-4.4939,-4.4631,-4.4508,-4.4446,-4.4323,-4.4199,-4.4261,-4.4323,-4.4323,-4.4261,-4.4199,-4.4261,-4.4385,-4.4446,-4.4755,-4.4755,-4.4446,-4.436,-4.4559,-4.4354,-4.3966,-4.4072,-4.4224,-4.3462,-4.2709,-4.2593,-4.233,-4.2135,-2.4636,-2.4636,-2.4636,-2.4636,-2.4636,-2.4636,-2.4636,-2.4636,-2.5079,-2.5667,-2.6546,-2.755,-2.8346,-2.8995,-2.9997,-3.1135,-3.2052,-3.2631,-3.3469,-3.4508,-3.4921,-3.5333,-3.5743,-3.5967,-3.6035,-3.6035,-3.6035,-3.6035,-3.6035,-3.6035,-3.6035,-3.6035,-3.6035,-3.6035,-3.6035,-3.6035,-3.6035,-3.6035,-3.6035,-3.6035,-3.6035,-3.6035,-3.6035,-3.6035,-3.6035,-3.6035,-3.6035,-3.6035,-3.6035,-3.6035,-3.6035,-3.6035,-3.6035,-3.6035,-3.6035,-3.6035,-3.6035,-3.6035,-3.6035,-3.6035,-3.6035,-3.6035,-3.6035,-3.6035,-3.6084,-3.6268,-3.6519,-3.6722,-3.7213,-3.777,-3.8171,-3.8636,-3.9297,-3.9997,-4.0647,-4.1293,-4.1934,-4.261,-4.3114,-4.3553,-4.374,-4.395,-4.4075,-4.4137,-4.4261,-4.4446,-4.4717,-4.4508,-4.4075,-4.4013,-4.395,-4.3888,-4.3764,-4.3764,-4.3764,-4.3576,-4.3451,-4.3451,-4.3514,-4.3764,-4.3826,-4.3888,-4.3764,-4.3514,-4.3654,-4.3917,-4.3269,-4.2539,-4.2676,-4.2791,-4.2616,-4.2119,-4.2078,-4.1915,-4.1631,-2.4636,-2.4636,-2.4636,-2.4636,-2.4636,-2.4636,-2.4636,-2.471,-2.5286,-2.5726,-2.6239,-2.7478,-2.8346,-2.8923,-2.9822,-3.0818,-3.1666,-3.2491,-3.34,-3.4144,-3.4627,-3.5196,-3.5606,-3.5899,-3.6035,-3.6035,-3.6035,-3.6035,-3.6035,-3.6035,-3.6035,-3.6035,-3.6035,-3.6035,-3.6035,-3.6035,-3.6035,-3.6035,-3.6035,-3.6035,-3.6035,-3.6035,-3.6035,-3.6035,-3.6035,-3.6035,-3.6035,-3.6035,-3.6035,-3.6035,-3.6035,-3.6035,-3.6035,-3.6035,-3.6035,-3.6035,-3.6035,-3.6035,-3.6035,-3.6035,-3.6035,-3.6035,-3.6035,-3.6035,-3.6016,-3.6084,-3.6268,-3.6451,-3.6809,-3.728,-3.7683,-3.8171,-3.8769,-3.9428,-4.0062,-4.0799,-4.1486,-4.2102,-4.2673,-4.3012,-4.3263,-4.3389,-4.3514,-4.3389,-4.3451,-4.3451,-4.3639,-4.3764,-4.3428,-4.3514,-4.3514,-4.3514,-4.3451,-4.3389,-4.3263,-4.3012,-4.2949,-4.3012,-4.32,-4.3451,-4.3389,-4.3075,-4.3137,-4.3137,-4.313,-4.3138,-4.2395,-4.1714,-4.1365,-4.1245,-4.1283,-4.1311,-4.1287,-4.1115,-4.0942,-2.4329,-2.4329,-2.4342,-2.4342,-2.4356,-2.4436,-2.4436,-2.4428,-2.497,-2.5333,-2.5753,-2.6848,-2.762,-2.8333,-2.9286,-3.0273,-3.1043,-3.2088,-3.2905,-3.3615,-3.4521,-3.5108,-3.5538,-3.5811,-3.5967,-3.6035,-3.6035,-3.6035,-3.6035,-3.6035,-3.6035,-3.6035,-3.6035,-3.6035,-3.6035,-3.6035,-3.6035,-3.6035,-3.6035,-3.6035,-3.6035,-3.6035,-3.6035,-3.6035,-3.6035,-3.6035,-3.6035,-3.6035,-3.6035,-3.6035,-3.6035,-3.6035,-3.6035,-3.6035,-3.6035,-3.6035,-3.6035,-3.6035,-3.6035,-3.6035,-3.6035,-3.6035,-3.6035,-3.6035,-3.6035,-3.6016,-3.6152,-3.6268,-3.6471,-3.6876,-3.7348,-3.777,-3.8304,-3.8946,-3.9604,-4.0323,-4.0928,-4.155,-4.2038,-4.2443,-4.2633,-4.2759,-4.2822,-4.2696,-4.2633,-4.257,-4.2443,-4.2633,-4.2736,-4.2822,-4.2822,-4.2759,-4.2696,-4.2506,-4.2443,-4.2379,-4.2379,-4.257,-4.2696,-4.2822,-4.257,-4.2252,-4.2443,-4.2563,-4.2253,-4.1844,-4.1399,-4.0894,-4.0396,-4.0211,-4.0282,-4.0363,-4.0479,-4.0421,-4.0305,-2.3781,-2.3781,-2.3781,-2.3808,-2.3834,-2.4062,-2.4022,-2.3866,-2.4208,-2.4549,-2.4974,-2.5894,-2.6713,-2.7338,-2.8366,-2.9297,-3.0172,-3.1408,-3.2319,-3.3248,-3.4115,-3.4762,-3.5354,-3.5714,-3.5869,-3.5996,-3.6035,-3.6035,-3.6035,-3.6035,-3.6035,-3.6035,-3.6035,-3.6035,-3.6035,-3.6035,-3.6035,-3.6035,-3.6035,-3.6035,-3.6035,-3.6035,-3.6035,-3.6035,-3.6035,-3.6035,-3.6035,-3.6035,-3.6035,-3.6035,-3.6035,-3.6035,-3.6035,-3.6035,-3.6035,-3.6035,-3.6035,-3.6035,-3.6035,-3.6035,-3.6035,-3.6035,-3.6035,-3.6035,-3.6035,-3.6035,-3.6084,-3.6152,-3.6268,-3.6674,-3.7011,-3.7482,-3.7883,-3.8549,-3.921,-3.9801,-4.0344,-4.0906,-4.1357,-4.1678,-4.187,-4.1934,-4.1911,-4.1806,-4.1742,-4.1399,-4.1271,-4.1271,-4.1527,-4.1998,-4.1934,-4.1806,-4.1678,-4.155,-4.1486,-4.1742,-4.1806,-4.1998,-4.1806,-4.1806,-4.155,-4.1486,-4.1678,-4.1606,-4.0968,-4.0558,-4.0334,-3.9862,-3.9254,-3.9249,-3.9426,-3.9603,-3.9755,-3.9873,-3.9814,-2.3781,-2.3781,-2.3781,-2.3781,-2.3754,-2.3634,-2.3647,-2.3825,-2.4167,-2.4522,-2.4946,-2.5666,-2.6294,-2.7192,-2.8041,-2.8769,-2.9695,-3.0651,-3.1384,-3.239,-3.3513,-3.4172,-3.4777,-3.5249,-3.5675,-3.5898,-3.5976,-3.5976,-3.6016,-3.6016,-3.6035,-3.6035,-3.6035,-3.6035,-3.6035,-3.6035,-3.6035,-3.6035,-3.6035,-3.6035,-3.6035,-3.6035,-3.6035,-3.6035,-3.6035,-3.6035,-3.6035,-3.6035,-3.6035,-3.6035,-3.6035,-3.6035,-3.6035,-3.6035,-3.6035,-3.6035,-3.6035,-3.6035,-3.6035,-3.6035,-3.6035,-3.6035,-3.6035,-3.6035,-3.6035,-3.6035,-3.6035,-3.6084,-3.6152,-3.6403,-3.6742,-3.7146,-3.7616,-3.8217,-3.8814,-3.9341,-3.9822,-4.0257,-4.0777,-4.1035,-4.1164,-4.11,-4.1035,-4.1035,-4.0906,-4.0431,-4.017,-4.0236,-4.0388,-4.0906,-4.11,-4.0906,-4.0906,-4.0841,-4.11,-4.1293,-4.1357,-4.1357,-4.1122,-4.0928,-4.0906,-4.0906,-4.0906,-4.0618,-4.0088,-3.9677,-3.9421,-3.8904,-3.832,-3.8477,-3.8679,-3.8894,-3.9049,-3.9167,-3.9108,-2.342,-2.3407,-2.3407,-2.3407,-2.345,-2.322,-2.326,-2.3464,-2.3674,-2.4023,-2.4581,-2.4984,-2.5761,-2.671,-2.7379,-2.8128,-2.8941,-3.0188,-3.1032,-3.1653,-3.2943,-3.369,-3.4261,-3.4718,-3.5168,-3.5488,-3.5684,-3.5723,-3.582,-3.5976,-3.6035,-3.6035,-3.6035,-3.6035,-3.6035,-3.6035,-3.6035,-3.6035,-3.6035,-3.6035,-3.6035,-3.6035,-3.6035,-3.6035,-3.6035,-3.6035,-3.6035,-3.6035,-3.6035,-3.6035,-3.6035,-3.6035,-3.6035,-3.6035,-3.6035,-3.6035,-3.6035,-3.6035,-3.6035,-3.6035,-3.6035,-3.6035,-3.6035,-3.6035,-3.6035,-3.6035,-3.6035,-3.6016,-3.6084,-3.6152,-3.6471,-3.6809,-3.7348,-3.7904,-3.837,-3.8835,-3.9276,-3.967,-3.9997,-4.0323,-4.0388,-4.0257,-4.0257,-4.0192,-4.0127,-3.9801,-3.967,-3.9604,-3.967,-3.9931,-4.0127,-4.0062,-4.0192,-4.0257,-4.0517,-4.0647,-4.0517,-4.0388,-4.0192,-4.0127,-4.017,-4.0105,-3.9953,-3.9625,-3.9187,-3.8784,-3.8314,-3.7884,-3.7456,-3.772,-3.778,-3.7758,-3.7976,-3.8276,-3.8156,-2.2873,-2.2886,-2.2859,-2.2981,-2.2873,-2.2886,-2.2899,-2.2859,-2.2981,-2.3365,-2.3926,-2.4048,-2.4921,-2.6148,-2.6687,-2.7477,-2.8494,-2.966,-3.0495,-3.1043,-3.2627,-3.3463,-3.3841,-3.4274,-3.4719,-3.4883,-3.5078,-3.5391,-3.5508,-3.5703,-3.5898,-3.6016,-3.6035,-3.6035,-3.6035,-3.6035,-3.6035,-3.6035,-3.6035,-3.6035,-3.6035,-3.6035,-3.6035,-3.6035,-3.6035,-3.6035,-3.6035,-3.6035,-3.6035,-3.6035,-3.6035,-3.6035,-3.6035,-3.6035,-3.6035,-3.6035,-3.6035,-3.6035,-3.6035,-3.6035,-3.6035,-3.6035,-3.6035,-3.6035,-3.6035,-3.6035,-3.6035,-3.6035,-3.6016,-3.6084,-3.6336,-3.6539,-3.7011,-3.7415,-3.7816,-3.8283,-3.8769,-3.921,-3.9538,-3.9735,-3.9735,-3.967,-3.9473,-3.9407,-3.921,-3.9078,-3.888,-3.8814,-3.888,-3.9012,-3.9276,-3.9341,-3.9604,-3.9735,-3.967,-3.9735,-3.9538,-3.9407,-3.9341,-3.9341,-3.9473,-3.9236,-3.8848,-3.8616,-3.8378,-3.765,-3.7114,-3.6878,-3.685,-3.6789,-3.6789,-3.6545,-3.6789,-3.7193,-3.7335,-2.2859,-2.2859,-2.2859,-2.2859,-2.2859,-2.2859,-2.2859,-2.2859,-2.2859,-2.3338,-2.3884,-2.4102,-2.4781,-2.5996,-2.6197,-2.7,-2.8312,-2.9238,-2.9913,-3.0799,-3.2134,-3.3028,-3.3356,-3.3914,-3.429,-3.4648,-3.4863,-3.5039,-3.5293,-3.5508,-3.5723,-3.5957,-3.5937,-3.5879,-3.5957,-3.5957,-3.5976,-3.6016,-3.6035,-3.6035,-3.6035,-3.6035,-3.6035,-3.6035,-3.6035,-3.6035,-3.6035,-3.6035,-3.6035,-3.6035,-3.6035,-3.6035,-3.6035,-3.6035,-3.6035,-3.6035,-3.6035,-3.6035,-3.6035,-3.6035,-3.6035,-3.6035,-3.6035,-3.6035,-3.6035,-3.6035,-3.6035,-3.6035,-3.6016,-3.6084,-3.6152,-3.6403,-3.6586,-3.6991,-3.7348,-3.7816,-3.8237,-3.8615,-3.9012,-3.9078,-3.9078,-3.8946,-3.8747,-3.8549,-3.8304,-3.8017,-3.7683,-3.7616,-3.7683,-3.7883,-3.8482,-3.8681,-3.9144,-3.921,-3.9012,-3.888,-3.8747,-3.8814,-3.8946,-3.888,-3.8814,-3.8576,-3.8343,-3.7887,-3.753,-3.6876,-3.6497,-3.6468,-3.6423,-3.6178,-3.6055,-3.5911,-3.5809,-3.6156,-3.634,-2.2859,-2.2859,-2.2859,-2.2859,-2.2859,-2.2859,-2.2859,-2.2859,-2.2859,-2.3338,-2.3966,-2.4102,-2.4781,-2.5928,-2.6078,-2.6934,-2.8196,-2.8988,-2.9761,-3.0638,-3.1672,-3.2381,-3.2963,-3.3508,-3.3739,-3.4121,-3.4375,-3.4629,-3.5019,-3.5098,-3.5234,-3.5449,-3.5469,-3.5566,-3.5684,-3.5762,-3.5859,-3.6016,-3.6016,-3.6035,-3.6035,-3.6035,-3.6035,-3.6035,-3.6035,-3.6035,-3.6035,-3.6035,-3.6035,-3.6035,-3.6035,-3.6035,-3.6035,-3.6035,-3.6035,-3.6035,-3.6035,-3.6035,-3.6035,-3.6035,-3.6035,-3.6035,-3.6035,-3.6035,-3.6035,-3.6035,-3.6035,-3.6035,-3.6035,-3.6016,-3.6016,-3.62,-3.6403,-3.6722,-3.6856,-3.7193,-3.7482,-3.7816,-3.8017,-3.8017,-3.8017,-3.8017,-3.7816,-3.7816,-3.7616,-3.7549,-3.7146,-3.7079,-3.7079,-3.6944,-3.7549,-3.795,-3.8283,-3.835,-3.8017,-3.8017,-3.8017,-3.815,-3.8416,-3.815,-3.795,-3.7929,-3.779,-3.7343,-3.691,-3.6389,-3.6059,-3.5894,-3.5562,-3.5232,-3.5294,-3.5294,-3.5232,-3.517,-3.5294,-2.2859,-2.2859,-2.2859,-2.2859,-2.2859,-2.2859,-2.2859,-2.2859,-2.2928,-2.3338,-2.3966,-2.3966,-2.4849,-2.5727,-2.613,-2.72,-2.813,-2.8988,-2.9709,-3.062,-3.1782,-3.2286,-3.2734,-3.3096,-3.3428,-3.3652,-3.3867,-3.4238,-3.4609,-3.4648,-3.4648,-3.4668,-3.4766,-3.4902,-3.5195,-3.541,-3.5566,-3.582,-3.5918,-3.6016,-3.6035,-3.6035,-3.6035,-3.6035,-3.6035,-3.6035,-3.6035,-3.6035,-3.6035,-3.6035,-3.6035,-3.6035,-3.6035,-3.6035,-3.6035,-3.6035,-3.6035,-3.6035,-3.6035,-3.6035,-3.6035,-3.6035,-3.6035,-3.6035,-3.6035,-3.6035,-3.6035,-3.6035,-3.6035,-3.6035,-3.6016,-3.6084,-3.6268,-3.6384,-3.6519,-3.6722,-3.6944,-3.7146,-3.7146,-3.7213,-3.7213,-3.7213,-3.7146,-3.7079,-3.7011,-3.7011,-3.6944,-3.6944,-3.6876,-3.6674,-3.6876,-3.7011,-3.7213,-3.7146,-3.7146,-3.728,-3.7482,-3.7482,-3.7683,-3.7348,-3.7146,-3.7415,-3.7299,-3.6674,-3.6208,-3.5892,-3.5445,-3.5145,-3.4732,-3.4548,-3.4673,-3.4859,-3.4735,-3.4673,-3.4485,-2.2859,-2.2859,-2.2859,-2.2859,-2.2859,-2.2859,-2.2859,-2.2859,-2.2928,-2.3338,-2.3816,-2.4088,-2.4781,-2.6063,-2.6063,-2.6867,-2.813,-2.8922,-2.9709,-3.0555,-3.1653,-3.2166,-3.2613,-3.3038,-3.3292,-3.3476,-3.3594,-3.3789,-3.4121,-3.4199,-3.4355,-3.459,-3.4629,-3.4726,-3.4824,-3.5078,-3.5351,-3.5586,-3.584,-3.5957,-3.6016,-3.6035,-3.6035,-3.6035,-3.6035,-3.6035,-3.6035,-3.6035,-3.6035,-3.6035,-3.6035,-3.6035,-3.6035,-3.6035,-3.6035,-3.6035,-3.6035,-3.6035,-3.6035,-3.6035,-3.6035,-3.6035,-3.6035,-3.6035,-3.6035,-3.6035,-3.6035,-3.6035,-3.6035,-3.6035,-3.6016,-3.6016,-3.6152,-3.62,-3.6336,-3.6606,-3.6876,-3.6944,-3.7011,-3.7011,-3.7011,-3.7011,-3.6944,-3.6876,-3.6674,-3.6606,-3.6423,-3.6423,-3.6423,-3.6355,-3.6287,-3.6355,-3.6355,-3.6694,-3.7031,-3.7011,-3.7079,-3.7079,-3.7011,-3.6876,-3.6876,-3.7079,-3.6857,-3.6396,-3.5982,-3.563,-3.5124,-3.4615,-3.4418,-3.4298,-3.436,-3.4423,-3.4298,-3.4173,-3.4047]}]]